Date StartTime U_cm/s V_cm/s W_cm/s Ustd_cm/s Vstd_cm/s Wstd_cm/s Uvar_(cm/s)^2 Vvar_(cm/s)^2 Wvar_(cm/s)^2 KE_(m/s)^2 TurbulentKE_(m/s)^2 HorizWindSpeed_cm/s FrictionSpeec_cm/s DragCoef SpeedOfSound_m/s SonicTemperature_C Pressure_mb 
10/03/2013  00:00:00      -90.395      164.512      -27.733       51.115       70.329       43.647     2612.747     4946.153     1905.018        2.273        0.473      187.711       31.220        0.028      337.785        9.991      860.435
10/03/2013  00:01:00      -75.217      117.926      -19.267       46.548       80.880       36.695     2166.718     6541.608     1346.501        1.499        0.503      139.872       20.381        0.021      337.733        9.905      860.443
10/03/2013  00:02:00     -164.019       45.032      -26.572       93.703      129.253       67.489     8780.162    16706.437     4554.756        2.983        1.502      170.089       47.898        0.079      337.740        9.914      860.435
10/03/2013  00:03:00     -171.124      176.211      -15.624      123.103      116.696       69.463    15154.404    13617.938     4825.074        4.708        1.680      245.630       76.332        0.097      337.612        9.701      860.422
10/03/2013  00:04:00     -163.517      231.542      -45.892      117.368      110.107       51.869    13775.364    12123.461     2690.427        5.552        1.429      283.460       56.848        0.040      337.560        9.613      860.395
10/03/2013  00:05:00     -152.209      189.293      -27.888      109.880       93.540       49.982    12073.617     8749.718     2498.246        4.154        1.166      242.898       49.797        0.042      337.527        9.558      860.368
10/03/2013  00:06:00     -119.870      176.228      -17.389       70.818       83.411       52.236     5015.240     6957.390     2728.610        3.021        0.735      213.132       39.516        0.034      337.503        9.517      860.357
10/03/2013  00:07:00      -87.321      194.208      -22.967       46.670       85.067       35.321     2178.075     7236.402     1247.574        2.826        0.533      212.936       36.718        0.030      337.484        9.485      860.325
10/03/2013  00:08:00     -104.919      221.158      -21.557       60.204       67.334       43.455     3624.561     4533.838     1888.336        3.521        0.502      244.783       32.113        0.017      337.446        9.421      860.293
10/03/2013  00:09:00     -104.386      200.101      -25.969       93.813       93.073       56.258     8800.846     8662.568     3164.913        3.612        1.031      225.692       59.839        0.070      337.425        9.388      860.277
10/03/2013  00:10:00     -108.427      136.755      -19.739       67.288       70.073       39.724     4527.684     4910.255     1578.006        2.093        0.551      174.524       33.108        0.036      337.444        9.419      860.275
10/03/2013  00:11:00      -94.059      204.090      -18.562       92.900      100.412       59.920     8630.363    10082.594     3590.416        3.657        1.115      224.721       49.706        0.049      337.388        9.326      860.280
10/03/2013  00:12:00     -110.837      110.451      -10.597       77.024       91.946       52.163     5932.769     8454.094     2721.006        2.085        0.855      156.475       36.735        0.055      337.383        9.319      860.273
10/03/2013  00:13:00     -129.622      179.751      -37.947       97.872       71.344       39.848     9578.892     5089.987     1587.841        3.340        0.813      221.613       36.943        0.028      337.327        9.222      860.273
10/03/2013  00:14:00     -114.252      346.212      -38.511      101.363      109.176       56.509    10274.474    11919.296     3193.317        7.989        1.269      364.577       39.199        0.012      337.257        9.106      860.262
10/03/2013  00:15:00     -148.875      240.084      -44.196       94.093      135.918       56.794     8853.567    18473.822     3225.576        5.615        1.528      282.496       67.163        0.057      337.248        9.092      860.302
10/03/2013  00:16:00     -115.766      221.565      -33.586       75.154       94.965       44.446     5648.074     9018.403     1975.491        4.013        0.832      249.985       39.427        0.025      337.217        9.038      860.302
10/03/2013  00:17:00     -110.448      248.405      -36.070       89.938      117.551       50.562     8088.840    13818.204     2556.526        4.983        1.223      271.852       55.522        0.042      337.199        9.008      860.272
10/03/2013  00:18:00      -89.792      263.549      -15.193       76.539      131.170       68.704     5858.199    17205.622     4720.307        5.276        1.389      278.425       77.579        0.078      337.160        8.944      860.265
10/03/2013  00:19:00      -94.138      189.713      -10.426       99.832      156.709       61.952     9966.337    24557.640     3838.098        4.165        1.918      211.785       45.805        0.047      337.164        8.949      860.236
10/03/2013  00:20:00     -129.209      149.225      -30.585       90.703      100.602       53.846     8227.021    10120.834     2899.437        3.057        1.062      197.391       61.440        0.097      337.137        8.906      860.238
10/03/2013  00:21:00     -143.558      171.221      -25.856       79.177       87.865       39.365     6269.017     7720.294     1549.621        3.306        0.777      223.440       28.006        0.016      337.120        8.877      860.219
10/03/2013  00:22:00     -151.026      218.764      -36.741       98.262      120.412       50.375     9655.365    14498.948     2537.612        4.935        1.335      265.832       48.884        0.034      337.109        8.859      860.253
10/03/2013  00:23:00     -106.492      283.796      -30.845       82.016      133.349       60.513     6726.703    17781.985     3661.789        6.050        1.409      303.119       58.339        0.037      337.085        8.818      860.264
10/03/2013  00:24:00     -157.039      145.606      -32.711      106.146      116.674       51.189    11266.901    13612.710     2620.299        3.721        1.375      214.155       60.952        0.081      337.051        8.761      860.229
10/03/2013  00:25:00     -111.605      146.115      -25.843       68.932       76.828       46.316     4751.649     5902.585     2145.154        2.363        0.640      183.862       46.841        0.065      337.033        8.731      860.221
10/03/2013  00:26:00     -102.017      189.107      -23.265       81.303      156.178       52.506     6610.177    24391.514     2756.877        4.023        1.688      214.869       68.165        0.101      336.973        8.632      860.190
10/03/2013  00:27:00     -223.437      249.250      -61.528      113.469      136.409       59.880    12875.112    18607.325     3585.627        7.544        1.753      334.738       47.227        0.020      337.010        8.691      860.158
10/03/2013  00:28:00      -99.920      246.956      -25.583       82.443      138.193       55.631     6796.828    19097.318     3094.836        5.030        1.449      266.404       57.696        0.047      336.970        8.624      860.159
10/03/2013  00:29:00     -266.654      277.700      -55.441      136.797      120.196       79.967    18713.517    14447.074     6394.659        9.542        1.978      384.996       92.461        0.058      336.978        8.638      860.199
10/03/2013  00:30:00     -201.667      294.310      -49.797      106.025      134.134       65.540    11241.250    17991.888     4295.466        8.164        1.676      356.775       69.615        0.038      336.931        8.561      860.214
10/03/2013  00:31:00     -130.411      173.351      -21.409      102.472      107.960       63.297    10500.572    11655.416     4006.478        3.683        1.308      216.928       62.312        0.083      336.931        8.559      860.226
10/03/2013  00:32:00     -142.281      309.307      -34.728      103.394      101.406       58.171    10690.271    10283.247     3383.850        7.073        1.218      340.462       58.678        0.030      336.872        8.461      860.251
10/03/2013  00:33:00     -159.220      308.317      -45.264       91.675      101.014       62.911     8404.290    10203.731     3957.774        7.251        1.128      347.001       58.308        0.028      336.827        8.387      860.314
10/03/2013  00:34:00     -123.029      311.027      -38.014       76.520      128.894       62.293     5855.288    16613.643     3880.396        6.983        1.317      334.476       61.302        0.034      336.803        8.346      860.341
10/03/2013  00:35:00     -153.190      172.932      -38.617      100.668      128.543       64.135    10133.965    16523.228     4113.325        4.281        1.539      231.025       75.303        0.106      336.811        8.361      860.334
10/03/2013  00:36:00     -125.069      149.566      -14.109       90.580       81.233       53.080     8204.686     6598.783     2817.520        2.791        0.881      194.967       42.232        0.047      336.796        8.335      860.346
10/03/2013  00:37:00      -90.325      241.432      -25.869       85.496      109.967       48.248     7309.525    12092.815     2327.867        4.442        1.087      257.775       47.556        0.034      336.781        8.310      860.334
10/03/2013  00:38:00      -91.715      271.436      -29.497      104.477      136.944       55.060    10915.475    18753.700     3031.556        5.782        1.635      286.512       44.754        0.024      336.789        8.322      860.312
10/03/2013  00:39:00     -110.088      323.524      -44.473       82.951      106.137       52.230     6880.806    11264.991     2727.991        6.982        1.044      341.741       49.736        0.021      336.754        8.264      860.321
10/03/2013  00:40:00     -129.219      277.285      -45.160       79.955      120.808       53.599     6392.867    14594.574     2872.856        5.974        1.193      305.916       58.798        0.037      336.748        8.255      860.345
10/03/2013  00:41:00     -192.642      154.094      -30.594      100.613      139.383       63.646    10122.919    19427.696     4050.813        4.769        1.680      246.690       64.721        0.069      336.752        8.262      860.351
10/03/2013  00:42:00     -109.628      194.632      -25.766       77.983       69.672       49.912     6081.390     4854.208     2491.195        3.199        0.671      223.383       49.181        0.048      336.751        8.258      860.353
10/03/2013  00:43:00     -119.861      414.147      -37.905       96.113      147.059       62.509     9237.643    21626.283     3907.401       11.104        1.739      431.143       57.513        0.018      336.754        8.264      860.366
10/03/2013  00:44:00     -134.534      311.594      -36.087      122.036      112.395       72.394    14892.874    12632.690     5240.826        7.462        1.638      339.396       57.722        0.029      336.746        8.252      860.359
10/03/2013  00:45:00     -277.885      313.568      -70.491      106.003      120.960       65.425    11236.612    14631.249     4280.415       10.533        1.507      418.981       57.512        0.019      336.719        8.207      860.337
10/03/2013  00:46:00     -125.076      207.540      -32.797       80.210      100.530       57.057     6433.648    10106.295     3255.492        3.979        0.990      242.316       51.443        0.045      336.676        8.136      860.316
10/03/2013  00:47:00     -149.291      320.537      -39.938      118.636      189.270       74.246    14074.528    35823.249     5512.454        9.101        2.771      353.599       63.393        0.032      336.702        8.178      860.297
10/03/2013  00:48:00     -229.270      182.155      -40.797       98.262      117.631       58.901     9655.438    13837.034     3469.287        5.718        1.348      292.823       57.086        0.038      336.684        8.149      860.340
10/03/2013  00:49:00     -151.312      171.975      -23.284       74.928       95.181       60.208     5614.188     9059.443     3624.949        3.565        0.915      229.065       50.738        0.049      336.645        8.083      860.357
10/03/2013  00:50:00     -206.124      240.874      -41.468       83.594      108.359       53.194     6987.887    11741.676     2829.620        6.189        1.078      317.029       54.259        0.029      336.640        8.075      860.376
10/03/2013  00:51:00     -222.552      133.199      -23.463      127.913      149.578       68.357    16361.766    22373.570     4672.651        5.561        2.170      259.367       68.322        0.069      336.643        8.081      860.376
10/03/2013  00:52:00     -205.080      125.703      -26.284      116.775      143.262       56.559    13636.352    20524.002     3198.947        4.795        1.868      240.539       49.499        0.042      336.606        8.018      860.369
10/03/2013  00:53:00     -174.270       46.290      -13.851      113.182      128.437       47.553    12810.174    16495.981     2261.312        3.213        1.578      180.313       49.448        0.075      336.629        8.058      860.374
10/03/2013  00:54:00     -292.629        7.099      -53.139      132.077      121.980       67.127    17444.247    14879.238     4505.992        6.266        1.841      292.715       63.557        0.047      336.633        8.065      860.368
10/03/2013  00:55:00     -235.026      101.872      -43.962       64.195      109.662       49.796     4121.037    12025.751     2479.613        4.308        0.931      256.155       22.394        0.008      336.617        8.035      860.361
10/03/2013  00:56:00      -86.106      146.281       -0.808       90.536      165.722       59.698     8196.697    27463.701     3563.803        3.401        1.961      169.743       75.737        0.199      336.590        7.993      860.357
10/03/2013  00:57:00     -136.967      188.777      -27.407       74.514       89.893       52.447     5552.316     8080.793     2750.739        3.576        0.819      233.232       49.327        0.045      336.601        8.010      860.377
10/03/2013  00:58:00     -214.483      227.206      -37.293       94.146       92.926       65.376     8863.495     8635.229     4273.991        6.039        1.089      312.451       54.441        0.030      336.567        7.951      860.413
10/03/2013  00:59:00     -287.965      251.876      -60.721      108.739      164.162       67.161    11824.114    26949.030     4510.663        9.666        2.164      382.577       67.916        0.032      336.554        7.931      860.476
10/03/2013  01:00:00     -214.317      158.989      -31.163      110.600      110.681       58.526    12232.310    12250.312     3425.336        5.004        1.395      266.851       51.444        0.037      336.521        7.875      860.523
10/03/2013  01:01:00     -162.606      115.642      -32.361       97.137      104.072       50.605     9435.630    10831.023     2560.861        3.184        1.141      199.534       48.156        0.058      336.572        7.963      860.555
10/03/2013  01:02:00     -159.134      107.518      -33.874       90.416      104.950       50.707     8175.029    11014.493     2571.190        2.989        1.088      192.052       47.224        0.060      336.601        8.011      860.588
10/03/2013  01:03:00     -173.710      146.838      -28.875       98.713       84.367       56.682     9744.231     7117.861     3212.905        3.632        1.004      227.457       60.819        0.071      336.559        7.940      860.613
10/03/2013  01:04:00     -224.144      217.389      -52.446      103.391       95.923       50.761    10689.732     9201.294     2576.651        6.135        1.123      312.248       55.669        0.032      336.505        7.850      860.613
10/03/2013  01:05:00     -206.063      254.253      -42.950      145.512      150.254       80.062    21173.882    22576.245     6409.886        7.955        2.508      327.271       79.766        0.059      336.477        7.802      860.638
10/03/2013  01:06:00     -306.508      362.001      -57.438      159.755      173.841       84.987    25521.708    30220.729     7222.779       14.562        3.148      474.333       87.488        0.034      336.456        7.766      860.641
10/03/2013  01:07:00     -173.215      267.566      -32.492       95.699      130.700       72.274     9158.342    17082.501     5223.565        6.705        1.573      318.739       64.908        0.041      336.434        7.729      860.617
10/03/2013  01:08:00     -310.839      300.022      -78.771      142.995      136.502       71.952    20447.430    18632.757     5177.161       11.854        2.213      432.012       66.056        0.023      336.421        7.707      860.636
10/03/2013  01:09:00     -221.895      214.287      -51.780      110.591      142.845       62.949    12230.426    20404.696     3962.600        6.721        1.830      308.474       67.199        0.047      336.437        7.734      860.636
10/03/2013  01:10:00     -204.548      245.749      -32.027      135.686      166.915       72.056    18410.670    27860.702     5192.116        7.735        2.573      319.738       75.997        0.056      336.416        7.699      860.607
10/03/2013  01:11:00     -209.679      302.245      -48.418       92.534      124.714       60.806     8562.545    15553.624     3697.418        8.273        1.391      367.855       50.120        0.019      336.388        7.652      860.639
10/03/2013  01:12:00     -226.702      320.282      -43.751       84.911      172.821       66.054     7209.875    29867.022     4363.095        9.866        2.072      392.396       66.498        0.029      336.394        7.661      860.641
10/03/2013  01:13:00     -246.878      273.414      -51.617      109.762      126.749       66.032    12047.768    16065.203     4360.164        8.541        1.624      368.381       65.337        0.031      336.381        7.639      860.679
10/03/2013  01:14:00     -266.536      339.982      -47.251      124.658      164.152       78.270    15539.493    26945.840     6126.144       11.873        2.431      432.006       63.240        0.021      336.369        7.619      860.719
10/03/2013  01:15:00     -278.037      234.903      -48.756      103.909      110.437       74.068    10797.114    12196.430     5486.137        8.166        1.424      363.984       65.498        0.032      336.380        7.638      860.767
10/03/2013  01:16:00     -281.560      356.449      -70.747      140.318      169.156       91.219    19689.170    28613.611     8320.929       13.397        2.831      454.238      100.882        0.049      336.373        7.626      860.789
10/03/2013  01:17:00     -342.922      315.919      -73.177      146.030      130.902       83.305    21324.635    17135.442     6939.755       13.407        2.270      466.263       84.514        0.033      336.370        7.621      860.776
10/03/2013  01:18:00     -217.278      293.311      -27.262      133.081      160.123       84.128    17710.453    25639.339     7077.571        9.220        2.521      365.022       72.958        0.040      336.334        7.561      860.778
10/03/2013  01:19:00     -297.382      344.915      -73.403      131.724      152.064       73.321    17351.144    23123.453     5375.941       12.931        2.293      455.414       69.348        0.023      336.306        7.515      860.751
10/03/2013  01:20:00     -250.460      245.623      -50.159      136.291      116.891       74.030    18575.349    13663.463     5480.425        8.164        1.886      350.800       76.249        0.047      336.303        7.510      860.738
10/03/2013  01:21:00     -251.468      281.505      -59.637      129.121      133.131       71.711    16672.315    17723.821     5142.474        9.278        1.977      377.467       70.902        0.035      336.286        7.482      860.761
10/03/2013  01:22:00     -230.695      267.288      -39.666      138.052      114.955       79.933    19058.279    13214.618     6389.306        8.244        1.933      353.076       79.249        0.050      336.292        7.491      860.754
10/03/2013  01:23:00     -207.801      279.281      -46.056      131.401      132.801       81.023    17266.326    17635.976     6564.777        8.238        2.073      348.108       87.959        0.064      336.272        7.459      860.751
10/03/2013  01:24:00     -224.085      346.686      -54.181      122.205      160.663       66.928    14933.940    25812.636     4479.318       10.927        2.261      412.802       75.857        0.034      336.264        7.445      860.765
10/03/2013  01:25:00     -222.076      281.377      -50.340      136.766      146.077       60.697    18705.002    21338.363     3684.108        8.737        2.186      358.456       61.829        0.030      336.262        7.441      860.764
10/03/2013  01:26:00     -163.648      223.944      -40.333      119.716       94.057       61.221    14331.920     8846.675     3748.013        5.274        1.346      277.365       55.764        0.040      336.273        7.461      860.759
10/03/2013  01:27:00     -157.496      269.745      -30.296      116.467      118.331       62.598    13564.602    14002.144     3918.553        6.498        1.574      312.358       47.534        0.023      336.238        7.402      860.752
10/03/2013  01:28:00     -117.754      254.107      -34.459       84.593      195.411       64.415     7155.984    38185.282     4149.237        6.455        2.475      280.065       75.513        0.073      336.229        7.388      860.743
10/03/2013  01:29:00     -128.612      206.046      -18.042       87.737      123.049       58.440     7697.697    15141.035     3415.215        4.278        1.313      242.891       55.316        0.052      336.215        7.364      860.734
10/03/2013  01:30:00     -180.956      232.731      -39.826      123.114      147.966       67.237    15157.132    21894.039     4520.768        6.503        2.079      294.803       61.366        0.043      336.180        7.306      860.746
10/03/2013  01:31:00     -205.631      226.897      -34.638      134.865      122.216       75.438    18188.474    14936.669     5690.966        6.688        1.941      306.213       85.787        0.078      336.159        7.271      860.743
10/03/2013  01:32:00      -92.068      178.528      -31.491       90.831      104.199       57.639     8250.231    10857.355     3322.271        3.188        1.121      200.870       62.497        0.097      336.181        7.308      860.744
10/03/2013  01:33:00     -153.455      226.300      -21.645      106.256      130.061       64.681    11290.323    16915.885     4183.592        5.380        1.619      273.423       64.898        0.056      336.170        7.287      860.754
10/03/2013  01:34:00     -253.188      267.282      -56.368      161.203      121.107       72.804    25986.512    14666.817     5300.424        9.233        2.298      368.163       82.362        0.050      336.146        7.247      860.729
10/03/2013  01:35:00     -158.039      178.864      -41.988       93.547      122.828       55.893     8751.107    15086.595     3124.069        4.284        1.348      238.680       56.786        0.057      336.117        7.200      860.713
10/03/2013  01:36:00     -128.187      212.417      -17.582       96.524      124.321       59.767     9316.828    15455.629     3572.062        4.510        1.417      248.099       58.507        0.056      336.089        7.154      860.704
10/03/2013  01:37:00     -166.759      273.416      -28.448      127.983      109.138       70.082    16379.756    11911.157     4911.446        6.828        1.660      320.258       70.678        0.049      336.112        7.192      860.684
10/03/2013  01:38:00     -144.639      275.754      -29.932      110.240      141.902       71.717    12152.925    20136.261     5143.322        6.764        1.872      311.385       70.060        0.051      336.110        7.191      860.708
10/03/2013  01:39:00     -164.411      264.517      -37.365      103.298      139.516       66.782    10670.562    19464.652     4459.861        6.649        1.730      311.449       65.528        0.044      336.105        7.180      860.733
10/03/2013  01:40:00     -163.926      395.459      -47.499      135.490      161.441       81.569    18357.464    26063.313     6653.479       11.829        2.554      428.089       84.789        0.039      336.109        7.188      860.735
10/03/2013  01:41:00     -194.625      349.389      -39.285      112.512      127.385       70.587    12659.051    16226.839     4982.557        9.767        1.693      399.940       67.705        0.029      336.098        7.168      860.754
10/03/2013  01:42:00     -242.875      251.603      -63.089      105.702      121.402       56.747    11172.917    14738.409     3220.253        7.770        1.457      349.704       61.397        0.031      336.110        7.190      860.745
10/03/2013  01:43:00     -117.799      242.552      -25.115      106.626      172.826       63.675    11369.052    29868.800     4054.530        5.931        2.265      269.645       54.725        0.041      336.094        7.163      860.740
10/03/2013  01:44:00     -147.759      420.011      -40.047      106.275      163.998       81.921    11294.388    26895.409     6711.005       12.236        2.245      445.244       79.543        0.032      336.086        7.147      860.739
10/03/2013  01:45:00     -132.498      409.454      -37.008       95.995      133.542       62.119     9215.131    17833.467     3858.709       10.874        1.545      430.359       55.115        0.016      336.052        7.090      860.723
10/03/2013  01:46:00     -175.110      267.032      -36.529      120.677      104.558       70.982    14562.866    10932.448     5038.426        6.691        1.527      319.327       74.787        0.055      336.050        7.087      860.720
10/03/2013  01:47:00     -233.469      261.255      -54.599      110.136      112.056       66.354    12129.921    12556.553     4402.833        7.741        1.454      350.374       63.213        0.033      336.052        7.091      860.717
10/03/2013  01:48:00     -203.283      233.009      -41.928      152.661      125.771       64.864    23305.494    15818.435     4207.360        7.034        2.167      309.220       63.747        0.042      336.071        7.124      860.699
10/03/2013  01:49:00     -183.619      216.053      -46.702      104.484      124.639       60.204    10916.998    15534.862     3624.572        5.632        1.504      283.539       62.453        0.049      336.050        7.088      860.705
10/03/2013  01:50:00     -200.975      270.349      -42.838      102.765      129.611       76.362    10560.656    16798.934     5831.157        7.425        1.660      336.867       71.740        0.045      336.055        7.096      860.680
10/03/2013  01:51:00     -212.858      280.608      -55.461      154.726      142.161       70.268    23940.251    20209.739     4937.628        8.810        2.454      352.206       75.114        0.045      336.047        7.084      860.650
10/03/2013  01:52:00     -193.368      182.316      -28.475      105.569       97.371       66.856    11144.801     9481.205     4469.684        4.826        1.255      265.763       59.310        0.050      336.028        7.051      860.627
10/03/2013  01:53:00     -193.689      269.605      -49.394      113.232      103.483       60.168    12821.546    10708.763     3620.161        6.989        1.358      331.967       55.507        0.028      335.996        6.998      860.626
10/03/2013  01:54:00     -160.987      163.050      -32.876       89.774      105.224       54.231     8059.356    11071.996     2941.006        3.782        1.104      229.133       46.186        0.041      336.009        7.020      860.631
10/03/2013  01:55:00      -98.458      280.300      -26.411      130.550      175.451       85.633    17043.314    30783.125     7332.976        7.205        2.758      297.089       79.523        0.072      335.960        6.939      860.616
10/03/2013  01:56:00     -151.697      335.749      -50.608      103.999      187.461       56.543    10815.798    35141.811     3197.151        9.372        2.458      368.429       64.397        0.031      335.977        6.967      860.627
10/03/2013  01:57:00     -162.848      353.542      -46.653      104.681      211.045       64.307    10958.092    44539.845     4135.442       10.665        2.982      389.245       66.285        0.029      335.958        6.935      860.654
10/03/2013  01:58:00     -235.218      269.040      -55.175      130.582      126.200       69.024    17051.544    15926.470     4764.355        8.424        1.887      357.366       68.140        0.036      335.965        6.947      860.658
10/03/2013  01:59:00     -150.625      343.211      -40.340      106.391      158.035       71.972    11319.085    24975.149     5180.009        9.178        2.074      374.809       76.324        0.041      335.942        6.909      860.696
10/03/2013  02:00:00     -153.100      429.182      -52.312      102.327      161.055       66.217    10470.867    25938.802     4384.676       12.558        2.040      455.671       63.827        0.020      335.954        6.928      860.687
10/03/2013  02:01:00     -184.223      175.757      -29.816       77.719      111.698       49.867     6040.296    12476.349     2486.672        4.336        1.050      254.615       48.754        0.037      335.936        6.898      860.663
10/03/2013  02:02:00      -85.293      183.783      -13.853      100.724      134.029       53.328    10145.261    17963.667     2843.877        3.609        1.548      202.610       57.358        0.080      335.924        6.879      860.656
10/03/2013  02:03:00     -136.966      211.940      -24.340      114.202      148.262       77.961    13042.162    21981.627     6077.971        5.268        2.055      252.346       79.407        0.099      335.955        6.930      860.682
10/03/2013  02:04:00     -212.023      231.542      -47.069      105.683      119.654       60.615    11168.983    14317.128     3674.217        6.496        1.458      313.952       61.161        0.038      335.990        6.987      860.720
10/03/2013  02:05:00     -224.066      240.244      -47.149      107.116      120.286       64.585    11473.817    14468.624     4171.168        7.012        1.506      328.516       68.659        0.044      335.970        6.955      860.758
10/03/2013  02:06:00     -181.708      193.893      -38.431       91.126      103.200       49.525     8303.924    10650.314     2452.696        4.674        1.070      265.730       37.745        0.020      335.962        6.942      860.766
10/03/2013  02:07:00      -80.898      132.450        0.636       88.596       99.989       56.774     7849.215     9997.778     3223.284        2.257        1.054      155.201       60.624        0.153      335.950        6.923      860.734
10/03/2013  02:08:00     -181.278      249.456      -49.101       89.322      136.297       62.370     7978.438    18576.915     3890.058        6.397        1.522      308.367       61.633        0.040      335.915        6.862      860.735
10/03/2013  02:09:00     -216.667      186.122      -29.637      160.621      105.027       67.054    25799.165    11030.615     4496.280        6.189        2.066      285.633       85.487        0.090      335.888        6.819      860.726
10/03/2013  02:10:00     -157.668      232.029      -28.476       94.350      119.767       69.429     8901.996    14344.220     4820.388        5.378        1.403      280.530       61.153        0.048      335.859        6.771      860.747
10/03/2013  02:11:00     -126.301      219.125      -36.787       97.302      132.526       64.599     9467.760    17563.102     4173.080        4.826        1.560      252.918       45.080        0.032      335.870        6.786      860.770
10/03/2013  02:12:00     -145.099      363.324      -42.086      112.322      158.962       65.506    12616.169    25268.789     4291.031        9.849        2.109      391.226       61.410        0.025      335.841        6.739      860.823
10/03/2013  02:13:00     -217.292      188.022      -24.693      158.708      111.186       73.097    25188.119    12362.363     5343.217        6.303        2.145      287.346       67.797        0.056      335.845        6.747      860.870
10/03/2013  02:14:00     -175.365      186.046      -28.188      133.026       87.646       56.563    17695.918     7681.734     3199.318        4.736        1.429      255.668       49.383        0.037      335.830        6.722      860.885
10/03/2013  02:15:00     -104.538      164.187      -23.359       90.682      144.924       74.263     8223.270    21002.961     5514.925        3.658        1.737      194.642       71.420        0.135      335.856        6.765      860.889
10/03/2013  02:16:00     -150.134      243.915      -27.504      107.654      124.177       70.850    11589.444    15419.966     5019.775        5.740        1.601      286.418       59.922        0.044      335.842        6.741      860.906
10/03/2013  02:17:00     -109.774      390.817      -35.555      105.263      184.512       71.427    11080.233    34044.691     5101.881       10.813        2.511      405.941       81.883        0.041      335.854        6.762      860.896
10/03/2013  02:18:00     -103.887      325.909      -30.165       86.287      170.588       71.119     7445.405    29100.327     5057.953        7.975        2.080      342.066       63.030        0.034      335.865        6.781      860.891
10/03/2013  02:19:00     -158.962      315.830      -39.638      110.998      162.826       76.046    12320.619    26512.439     5782.962        8.559        2.231      353.578       75.885        0.046      335.851        6.757      860.908
10/03/2013  02:20:00     -104.482      284.716      -29.543      120.935      179.403       80.002    14625.227    32185.272     6400.388        7.302        2.661      303.281       73.648        0.059      335.856        6.765      860.909
10/03/2013  02:21:00      -96.052      389.615      -45.362      105.593      140.124       72.304    11149.963    19634.706     5227.811        9.954        1.801      401.281       64.726        0.026      335.872        6.792      860.908
10/03/2013  02:22:00     -121.165      179.080       -1.489       96.847      138.586       66.015     9379.336    19206.011     4358.026        3.984        1.647      216.219       54.233        0.063      335.875        6.797      860.887
10/03/2013  02:23:00     -142.461      294.140      -35.991      116.643      183.432       72.167    13605.603    33647.165     5208.027        8.027        2.623      326.823       77.906        0.057      335.855        6.762      860.853
10/03/2013  02:24:00      -76.825      125.613       -8.423       95.056      113.346       62.228     9035.702    12847.224     3872.342        2.375        1.288      147.244       57.440        0.152      335.853        6.761      860.833
10/03/2013  02:25:00     -108.521      137.130      -17.549      122.734      130.901       67.369    15063.623    17135.139     4538.628        3.381        1.837      174.875       82.074        0.220      335.828        6.719      860.812
10/03/2013  02:26:00     -173.449       71.677      -39.764      120.503      103.889       58.993    14521.037    10792.907     3480.233        3.279        1.440      187.676       52.665        0.079      335.800        6.673      860.772
10/03/2013  02:27:00     -115.519      168.949      -23.229       80.391      121.746       54.030     6462.764    14822.037     2919.279        3.331        1.210      204.666       50.223        0.060      335.732        6.559      860.776
10/03/2013  02:28:00     -178.157      183.529      -44.765      102.437      108.362       55.301    10493.375    11742.255     3058.205        4.636        1.265      255.779       59.188        0.054      335.700        6.505      860.765
10/03/2013  02:29:00     -123.617      218.316      -38.176       94.271      116.276       56.298     8887.036    13520.083     3169.499        4.498        1.279      250.885       65.793        0.069      335.696        6.499      860.764
10/03/2013  02:30:00     -137.493      208.391      -14.363      135.180      113.054       65.436    18273.590    12781.099     4281.883        4.893        1.767      249.662       65.381        0.069      335.670        6.454      860.766
10/03/2013  02:31:00     -111.522      208.202      -13.451       98.911      144.926       57.048     9783.399    21003.547     3254.444        4.500        1.702      236.189       48.395        0.042      335.677        6.467      860.772
10/03/2013  02:32:00     -206.635      279.025      -52.577      129.424      152.502       72.163    16750.527    23256.836     5207.502        8.426        2.261      347.207       65.216        0.035      335.658        6.436      860.785
10/03/2013  02:33:00     -113.044      261.532       -9.247      154.852      189.302       80.203    23978.997    35835.103     6432.594        7.374        3.312      284.918       91.677        0.104      335.670        6.456      860.803
10/03/2013  02:34:00     -175.652      300.186      -51.138      128.367      146.093       69.319    16478.039    21343.307     4805.100        8.309        2.131      347.801       67.532        0.038      335.645        6.412      860.800
10/03/2013  02:35:00     -111.848      294.800      -34.784       91.074      112.327       56.304     8294.501    12617.299     3170.183        6.235        1.204      315.305       52.932        0.028      335.646        6.415      860.751
10/03/2013  02:36:00     -153.621      486.606      -55.695      121.559      149.647       72.458    14776.622    22394.217     5250.124       15.295        2.121      510.279       79.110        0.024      335.624        6.379      860.725
10/03/2013  02:37:00     -208.061      353.610      -44.758      126.477      159.681       78.737    15996.384    25498.017     6199.461       10.900        2.385      410.280       87.263        0.045      335.624        6.378      860.742
10/03/2013  02:38:00     -129.480      307.326      -36.682      148.496      161.838       76.742    22051.114    26191.546     5889.332        8.333        2.707      333.488       96.517        0.084      335.636        6.399      860.736
10/03/2013  02:39:00     -119.093      304.153      -29.262      104.322       87.362       59.768    10883.103     7632.039     3572.221        6.481        1.104      326.638       53.369        0.027      335.622        6.375      860.765
10/03/2013  02:40:00     -226.261      273.996      -60.766      160.571      145.989       81.705    25782.900    21312.726     6675.690        9.186        2.689      355.342       89.886        0.064      335.637        6.400      860.794
10/03/2013  02:41:00     -124.822      176.009      -32.109       97.745       94.573       59.653     9554.007     8944.127     3558.463        3.482        1.103      215.777       66.532        0.095      335.628        6.386      860.849
10/03/2013  02:42:00     -136.704      218.964      -30.441      137.281      175.988       82.193    18846.150    30971.680     6755.718        6.206        2.829      258.134       98.646        0.146      335.644        6.413      860.885
10/03/2013  02:43:00     -125.826      398.444      -43.996      141.414      189.214       88.915    19997.802    35801.963     7905.881       12.010        3.185      417.839       94.943        0.052      335.635        6.398      860.928
10/03/2013  02:44:00     -168.123      511.948      -64.046      151.462      178.660       90.671    22940.695    31919.354     8221.185       17.876        3.154      538.847       93.852        0.030      335.632        6.391      860.992
10/03/2013  02:45:00     -124.792      413.694      -37.129       86.838      130.232       77.662     7540.922    16960.343     6031.410       10.931        1.527      432.107       80.066        0.034      335.608        6.353      861.010
10/03/2013  02:46:00     -165.329      419.945      -46.541      132.836      144.295       84.423    17645.411    20821.002     7127.173       12.571        2.280      451.317       86.773        0.037      335.572        6.291      861.009
10/03/2013  02:47:00     -171.529      520.340      -52.341      153.019      189.351      102.644    23414.790    35853.755    10535.875       18.635        3.490      547.883      107.561        0.039      335.580        6.305      861.007
10/03/2013  02:48:00     -153.918      352.999      -42.251      103.094      197.104       63.197    10628.374    38850.054     3993.851       10.177        2.674      385.096       58.858        0.023      335.589        6.320      861.047
10/03/2013  02:49:00      -88.500      320.921      -34.162       91.365      143.104       70.934     8347.496    20478.894     5031.598        7.292        1.693      332.901       74.653        0.050      335.588        6.318      861.047
10/03/2013  02:50:00      -73.668      345.060      -42.972       74.696      122.783       55.066     5579.539    15075.610     3032.247        7.501        1.184      352.836       56.128        0.025      335.541        6.241      861.047
10/03/2013  02:51:00     -117.859      286.431      -31.910       73.449      130.686       66.580     5394.801    17078.893     4432.901        6.192        1.345      309.731       69.039        0.050      335.541        6.240      861.061
10/03/2013  02:52:00      -82.877      268.361      -15.366      121.248      170.157       73.382    14701.021    28953.434     5384.984        6.407        2.452      280.867       86.681        0.095      335.540        6.240      861.061
10/03/2013  02:53:00      -38.419      225.629        4.490       95.985      146.830       69.166     9213.025    21559.165     4783.897        4.397        1.778      228.876       82.718        0.131      335.517        6.202      861.055
10/03/2013  02:54:00      -89.862      385.892      -36.924      128.150      114.321       77.225    16422.370    13069.326     5963.749        9.690        1.773      396.216       64.644        0.027      335.527        6.218      861.064
10/03/2013  02:55:00      -73.321      409.048      -31.903       97.253      181.345       81.334     9458.075    32885.836     6615.185       11.133        2.448      415.568       83.749        0.041      335.560        6.271      861.080
10/03/2013  02:56:00     -157.303      425.045      -47.161      103.523      149.146       61.859    10717.000    22244.398     3826.514       12.220        1.839      453.219       63.330        0.020      335.552        6.258      861.089
10/03/2013  02:57:00      -76.755      288.325      -19.391      102.343      166.746       65.725    10474.008    27804.185     4319.736        6.599        2.130      298.367       82.352        0.076      335.548        6.251      861.098
10/03/2013  02:58:00      -84.476      333.592      -31.985       92.107      165.111       71.465     8483.656    27261.480     5107.243        8.014        2.043      344.122       69.610        0.041      335.521        6.207      861.081
10/03/2013  02:59:00     -177.448      464.464      -42.501      131.424      170.586       98.479    17272.194    29099.572     9698.199       15.253        2.803      497.206      100.773        0.041      335.483        6.143      861.054
10/03/2013  03:00:00      -97.326      464.991      -61.635      107.749      168.984       69.453    11609.841    28555.676     4823.669       13.723        2.249      475.067       67.326        0.020      335.493        6.160      861.027
10/03/2013  03:01:00     -102.937      270.897      -27.849       89.440      186.191       55.167     7999.548    34667.054     3043.381        6.522        2.285      289.795       58.673        0.041      335.532        6.225      860.992
10/03/2013  03:02:00     -119.202      283.424      -43.899       95.001      127.261       55.051     9025.224    16195.303     3030.602        6.235        1.413      307.471       60.415        0.039      335.531        6.224      860.968
10/03/2013  03:03:00     -125.298      276.047      -32.997      134.068      161.717       53.175    17974.266    26152.410     2827.581        6.996        2.348      303.152       54.324        0.032      335.509        6.188      860.932
10/03/2013  03:04:00      -84.057      271.860      -34.776       99.006       88.281       58.004     9802.253     7793.540     3364.410        5.157        1.048      284.558       54.087        0.036      335.486        6.148      860.895
10/03/2013  03:05:00     -176.692      198.936      -54.257       99.830      109.053       67.453     9965.931    11892.514     4549.921        5.007        1.320      266.074       68.867        0.067      335.501        6.174      860.898
10/03/2013  03:06:00      -65.684      261.747      -17.232       71.437      101.509       59.612     5103.189    10304.063     3553.532        4.604        0.948      269.863       62.045        0.053      335.460        6.105      860.896
10/03/2013  03:07:00     -101.396      274.547      -21.785      115.768      121.610       57.208    13402.153    14789.056     3272.781        5.879        1.573      292.673       58.616        0.040      335.477        6.134      860.900
10/03/2013  03:08:00     -140.124      328.186      -29.851      148.861      163.538       73.296    22159.468    26744.537     5372.336        9.124        2.714      356.848       86.032        0.058      335.457        6.101      860.905
10/03/2013  03:09:00     -115.269      284.186      -34.062       94.612      120.316       52.440     8951.425    14475.823     2749.997        6.069        1.309      306.673       52.675        0.030      335.464        6.111      860.915
10/03/2013  03:10:00     -121.999      384.823      -39.239      114.522      184.889       76.862    13115.231    34184.071     5907.800       10.885        2.660      403.699       74.039        0.034      335.486        6.149      860.906
10/03/2013  03:11:00     -104.669      292.518      -31.988      102.141      122.486       62.484    10432.763    15002.757     3904.262        6.344        1.467      310.680       70.292        0.051      335.465        6.113      860.946
10/03/2013  03:12:00     -118.284      259.358      -22.088      105.225      123.641       66.903    11072.213    15287.131     4476.005        5.628        1.542      285.057       71.476        0.063      335.482        6.143      860.974
10/03/2013  03:13:00      -82.386      254.734      -28.308       77.209      130.318       54.500     5961.188    16982.869     2970.282        4.919        1.296      267.726       59.148        0.049      335.460        6.106      861.043
10/03/2013  03:14:00      -72.975      211.288      -17.257       89.539      151.480       53.627     8017.253    22946.215     2875.858        4.205        1.692      223.535       64.245        0.083      335.439        6.072      861.075
10/03/2013  03:15:00      -38.200      212.098       -9.384       52.420       79.649       54.750     2747.876     6343.967     2997.610        2.931        0.604      215.511       48.811        0.051      335.466        6.117      861.109
10/03/2013  03:16:00     -125.237      156.902      -24.538      107.192       61.332       50.658    11490.025     3761.579     2566.246        2.936        0.891      200.755       35.865        0.032      335.493        6.162      861.115
10/03/2013  03:17:00      -85.434      262.199      -21.673      130.569      122.781       70.090    17048.144    15075.243     4912.606        5.677        1.852      275.767       49.911        0.033      335.447        6.083      861.121
10/03/2013  03:18:00     -152.838      285.454      -42.367      131.009      152.617       72.900    17163.254    23291.861     5314.453        7.619        2.288      323.795       66.943        0.043      335.481        6.140      861.090
10/03/2013  03:19:00     -113.437      394.793      -41.268      133.500      166.427       74.565    17822.119    27697.924     5559.885       11.075        2.554      410.767       62.219        0.023      335.466        6.116      861.075
10/03/2013  03:20:00     -177.426      319.546      -60.117       90.769      115.414       64.903     8238.973    13320.299     4212.336        8.148        1.289      365.499       58.948        0.026      335.481        6.142      861.034
10/03/2013  03:21:00     -126.252      121.330        5.168      127.201      117.544       73.541    16180.099    13816.599     5408.225        3.304        1.770      175.101       79.683        0.207      335.484        6.146      861.026
10/03/2013  03:22:00      -61.365      278.586      -19.209       77.403      119.057       50.484     5991.231    14174.664     2548.667        5.222        1.136      285.264       52.120        0.033      335.442        6.075      860.991
10/03/2013  03:23:00      -67.314       56.681       -5.005       97.175       76.803       39.121     9443.020     5898.770     1530.479        1.232        0.844       88.000       33.713        0.147      335.464        6.113      860.980
10/03/2013  03:24:00     -112.479      222.041      -25.494      110.442      177.217       69.259    12197.535    31405.706     4796.877        5.549        2.420      248.905       80.668        0.105      335.445        6.080      860.966
10/03/2013  03:25:00     -110.475      401.218      -34.525      126.167      210.277       80.059    15918.065    44216.493     6409.454       12.044        3.327      416.150       83.965        0.041      335.422        6.042      860.940
10/03/2013  03:26:00     -125.937      383.974      -31.649      124.632      126.183       90.766    15533.034    15922.189     8238.396       10.199        1.985      404.099       86.863        0.046      335.388        5.986      860.918
10/03/2013  03:27:00     -130.676      255.666      -21.135      117.880      204.717       71.438    13895.658    41909.031     5103.398        7.189        3.045      287.126       82.952        0.083      335.394        5.996      860.885
10/03/2013  03:28:00     -211.650      238.414      -34.788      136.468      136.756       76.065    18623.391    18702.260     5785.845        7.297        2.156      318.805       71.030        0.050      335.399        6.004      860.878
10/03/2013  03:29:00     -168.223      283.133      -38.613      136.472      166.198       79.829    18624.626    27621.826     6372.673        8.128        2.631      329.338       84.304        0.066      335.410        6.023      860.869
10/03/2013  03:30:00     -147.715      382.314      -41.112      133.362      136.589       82.671    17785.420    18656.547     6834.464       10.647        2.164      409.859       78.255        0.036      335.410        6.022      860.871
10/03/2013  03:31:00     -149.077      362.270      -32.571      112.994      128.662       78.761    12767.708    16553.934     6203.351        9.502        1.776      391.745       73.492        0.035      335.402        6.008      860.868
10/03/2013  03:32:00      -91.904      390.478      -39.278      107.887      171.816       74.051    11639.665    29520.887     5483.588       10.454        2.332      401.147       82.842        0.043      335.418        6.036      860.874
10/03/2013  03:33:00     -144.039      559.252      -64.342      133.247      198.209       93.678    17754.807    39286.640     8775.513       20.172        3.291      577.504      101.853        0.031      335.385        5.980      860.874
10/03/2013  03:34:00     -163.539      395.920      -38.201      157.927      216.601       88.089    24940.939    46916.205     7759.739       13.227        3.981      428.366      100.591        0.055      335.382        5.976      860.899
10/03/2013  03:35:00     -129.751      432.855      -42.552      121.278      163.107       72.093    14708.249    26603.880     5197.353       12.625        2.325      451.883       77.800        0.030      335.388        5.984      860.916
10/03/2013  03:36:00     -207.620      375.828      -59.030      135.611      191.961       78.642    18390.477    36849.212     6184.587       12.462        3.071      429.363       89.779        0.044      335.395        5.997      860.945
10/03/2013  03:37:00     -131.932      372.845      -48.021      124.826      190.449       72.201    15581.536    36270.785     5212.914       10.788        2.853      395.499       70.653        0.032      335.394        5.995      860.974
10/03/2013  03:38:00     -119.260      499.959      -48.559      139.862      213.504       85.327    19561.511    45584.033     7280.719       16.947        3.621      513.987       91.255        0.032      335.391        5.989      861.006
10/03/2013  03:39:00     -155.216      379.275      -43.591      106.003      218.596       80.422    11236.543    47784.246     6467.688       11.765        3.274      409.806       89.092        0.047      335.376        5.965      861.014
10/03/2013  03:40:00     -203.802      519.220      -70.786      107.266      145.570       80.550    11506.015    21190.756     6488.352       17.765        1.959      557.786       81.527        0.021      335.339        5.904      861.023
10/03/2013  03:41:00     -205.082      478.194      -66.315      160.023      147.770       87.343    25607.412    21835.868     7628.734       16.509        2.754      520.315       76.644        0.022      335.336        5.898      861.033
10/03/2013  03:42:00     -232.251      447.209      -61.560      131.546      180.053       89.911    17304.451    32418.923     8084.039       15.776        2.890      503.921       95.317        0.036      335.308        5.853      861.021
10/03/2013  03:43:00     -232.840      457.999      -65.846      142.044      209.437       87.771    20176.410    43863.697     7703.824       17.001        3.587      513.787       85.946        0.028      335.304        5.845      861.012
10/03/2013  03:44:00     -149.861      495.788      -46.971      100.558      130.098       75.344    10111.846    16925.480     5676.716       15.159        1.636      517.942       63.785        0.015      335.314        5.863      861.015
10/03/2013  03:45:00     -190.934      381.872      -53.465      159.032      185.993       91.568    25291.106    34593.495     8384.740       12.669        3.413      426.945      102.342        0.057      335.339        5.903      861.027
10/03/2013  03:46:00     -185.572      480.054      -51.479      128.607      181.649       84.509    16539.817    32996.321     7141.767       16.210        2.834      514.673       72.122        0.020      335.329        5.887      860.993
10/03/2013  03:47:00     -235.677      335.886      -66.908      131.371      132.934       74.863    17258.428    17671.514     5604.465       10.668        2.027      410.321       73.650        0.032      335.325        5.880      861.024
10/03/2013  03:48:00     -187.119      446.070      -52.129      151.353      179.832       90.263    22907.720    32339.466     8147.329       15.004        3.170      483.727      103.489        0.046      335.313        5.861      861.071
10/03/2013  03:49:00     -107.151      298.628      -36.708       95.727      152.462       63.348     9163.738    23244.535     4012.987        6.921        1.821      317.270       68.221        0.046      335.337        5.901      861.148
10/03/2013  03:50:00     -125.495      280.684      -23.123      116.406      131.077       77.366    13550.470    17181.122     5985.550        6.588        1.836      307.461       73.667        0.057      335.298        5.834      861.216
10/03/2013  03:51:00     -103.733      416.607      -43.394      101.221      149.194       66.297    10245.740    22258.954     4395.291       11.155        1.845      429.327       68.446        0.025      335.304        5.844      861.245
10/03/2013  03:52:00     -172.747      331.873      -47.032      112.935      134.230       71.137    12754.323    18017.596     5060.541        8.901        1.792      374.141       70.786        0.036      335.264        5.777      861.258
10/03/2013  03:53:00     -159.520      354.929      -39.265      139.865      183.501       80.775    19562.193    33672.483     6524.652       10.635        2.988      389.129       88.690        0.052      335.249        5.754      861.226
10/03/2013  03:54:00     -134.823      448.367      -58.227      117.653      176.106       80.356    13842.330    31013.471     6457.077       13.695        2.566      468.199       79.955        0.029      335.244        5.745      861.209
10/03/2013  03:55:00     -166.477      248.005      -11.372      142.931      181.113       88.989    20429.385    32801.830     7919.109        7.524        3.058      298.699       86.575        0.084      335.249        5.754      861.198
10/03/2013  03:56:00     -214.128      375.997      -37.861      129.143      206.860       92.542    16677.905    42791.102     8564.030       12.833        3.402      432.694       93.728        0.047      335.225        5.714      861.194
10/03/2013  03:57:00     -165.004      327.850      -37.472      133.127      182.332       74.912    17722.827    33244.833     5611.863        9.634        2.829      367.031       82.016        0.050      335.225        5.713      861.184
10/03/2013  03:58:00     -156.581      424.477      -50.732      122.585      187.925       78.531    15027.020    35315.663     6167.093       13.188        2.825      452.436       81.962        0.033      335.212        5.692      861.174
10/03/2013  03:59:00      -89.328      207.129      -22.280       89.799      102.634       58.238     8063.860    10533.817     3391.674        3.668        1.099      225.570       55.625        0.061      335.237        5.735      861.192
10/03/2013  04:00:00     -159.709      220.357       -7.795      114.345      121.785       74.440    13074.717    14831.517     5541.302        5.378        1.672      272.147       71.244        0.069      335.213        5.695      861.194
10/03/2013  04:01:00     -211.895      376.677      -50.990      118.252      176.369       73.058    13983.579    31106.061     5337.439       11.990        2.521      432.186       78.093        0.033      335.197        5.668      861.219
10/03/2013  04:02:00     -103.745      160.604        0.914       92.220      137.431       69.204     8504.600    18887.205     4789.243        3.436        1.609      191.198       74.198        0.151      335.204        5.680      861.238
10/03/2013  04:03:00      -86.337      217.071      -21.618       87.854      126.308       58.698     7718.238    15953.658     3445.409        4.107        1.356      233.611       46.509        0.040      335.200        5.673      861.248
10/03/2013  04:04:00     -121.297      255.110      -36.975      107.232      181.315       69.188    11498.752    32875.109     4786.911        6.515        2.458      282.478       81.646        0.084      335.213        5.694      861.249
10/03/2013  04:05:00     -118.737      413.664      -32.720      113.655      120.913       72.751    12917.429    14619.840     5292.774       10.955        1.642      430.368       61.023        0.020      335.167        5.618      861.253
10/03/2013  04:06:00     -170.765      240.318      -52.767       97.201      161.718       61.557     9447.963    26152.776     3789.217        6.454        1.969      294.810       67.351        0.052      335.204        5.679      861.264
10/03/2013  04:07:00     -119.267      336.268      -44.024       81.275      130.898       53.855     6605.634    17134.220     2900.309        7.793        1.332      356.793       52.983        0.022      335.165        5.615      861.302
10/03/2013  04:08:00     -191.236      363.015      -42.039      119.691      151.401       74.201    14325.916    22922.218     5505.733       10.643        2.138      410.306       68.420        0.028      335.154        5.598      861.344
10/03/2013  04:09:00     -112.129      317.242      -34.214       95.669      167.551       80.050     9152.640    28073.442     6408.026        7.900        2.182      336.475       81.390        0.059      335.167        5.618      861.392
10/03/2013  04:10:00     -193.673      400.333      -58.390      112.394      154.960       85.989    12632.386    24012.468     7394.138       12.260        2.202      444.720       80.628        0.033      335.139        5.573      861.448
10/03/2013  04:11:00     -119.000      415.168      -52.457       93.785      249.651       61.487     8795.720    62325.383     3780.677       13.207        3.745      431.885       74.745        0.030      335.142        5.578      861.474
10/03/2013  04:12:00     -127.588      277.843      -19.862      142.242      182.659       80.586    20232.845    33364.292     6494.130        7.697        3.005      305.738       85.474        0.078      335.153        5.596      861.477
10/03/2013  04:13:00      -87.063      145.084      -10.333       91.285      128.316       68.279     8332.914    16464.955     4661.986        2.909        1.473      169.202       77.721        0.211      335.117        5.537      861.480
10/03/2013  04:14:00     -179.116      213.056      -28.939      125.524      120.122       73.140    15756.183    14429.189     5349.526        5.692        1.777      278.344       73.966        0.071      335.093        5.496      861.445
10/03/2013  04:15:00     -156.801      259.130      -26.726      100.647      130.497       73.341    10129.868    17029.379     5378.908        6.249        1.627      302.877       49.327        0.027      335.085        5.482      861.403
10/03/2013  04:16:00     -170.996      225.233      -34.563      103.231      107.366       69.219    10656.606    11527.547     4791.226        5.406        1.349      282.789       61.972        0.048      335.070        5.459      861.380
10/03/2013  04:17:00     -186.053      208.039      -36.227      145.927      155.498       78.440    21294.551    24179.595     6152.853        6.541        2.581      279.099       86.091        0.095      335.072        5.464      861.379
10/03/2013  04:18:00     -161.886      182.229      -25.953      124.196      150.377       71.333    15424.552    22613.143     5088.413        5.160        2.156      243.750       72.086        0.087      335.056        5.436      861.359
10/03/2013  04:19:00     -162.965      211.243      -30.690       85.684      117.499       52.402     7341.739    13805.947     2745.975        4.800        1.195      266.798       66.761        0.063      335.041        5.410      861.330
10/03/2013  04:20:00     -176.036      165.971      -30.493       71.847      105.728       51.261     5162.019    11178.383     2627.703        3.921        0.948      241.941       48.554        0.040      335.036        5.402      861.324
10/03/2013  04:21:00     -269.360      220.294      -54.565      128.063      154.489       68.280    16400.062    23866.816     4662.137        8.449        2.246      347.972       69.955        0.040      335.026        5.384      861.305
10/03/2013  04:22:00     -216.720      209.270      -59.736       91.475      119.237       55.445     8367.709    14217.395     3074.173        5.999        1.283      301.266       68.731        0.052      335.022        5.379      861.299
10/03/2013  04:23:00     -156.296      170.896      -31.772       73.576      104.504       61.453     5413.496    10921.112     3776.410        3.737        1.006      231.590       40.149        0.030      335.024        5.380      861.291
10/03/2013  04:24:00     -225.893      197.763      -51.405      118.434       94.570       68.607    14026.685     8943.395     4706.972        6.022        1.384      300.230       68.524        0.052      335.013        5.365      861.287
10/03/2013  04:25:00     -197.978      180.248      -38.174       94.389      129.885       52.429     8909.337    16870.147     2748.802        5.083        1.426      267.740       43.184        0.026      335.018        5.372      861.283
10/03/2013  04:26:00     -171.384      115.659      -16.004       98.743      120.067       55.485     9750.132    14416.123     3078.638        3.512        1.362      206.759       53.623        0.067      334.985        5.316      861.289
10/03/2013  04:27:00     -174.516       94.625      -24.253       99.968      107.306       56.289     9993.676    11514.558     3168.430        3.233        1.234      198.519       59.719        0.090      334.972        5.297      861.295
10/03/2013  04:28:00     -243.062      121.843      -37.671       87.637       68.358       43.041     7680.172     4672.866     1852.545        4.477        0.710      271.892       25.692        0.009      334.947        5.253      861.305
10/03/2013  04:29:00     -179.555      158.215      -29.548      118.356      113.626       65.797    14008.233    12910.875     4329.205        4.469        1.562      239.316       63.576        0.071      334.926        5.220      861.319
10/03/2013  04:30:00     -146.533       -2.656       -8.005       80.883      100.831       49.351     6542.044    10166.938     2435.480        2.034        0.957      146.557       51.433        0.123      334.933        5.232      861.333
10/03/2013  04:31:00     -171.545       79.874      -20.421      149.899      153.488       80.597    22469.594    23558.617     6495.946        4.436        2.626      189.229       65.057        0.118      334.918        5.206      861.333
10/03/2013  04:32:00     -170.330       33.951      -30.019      101.702       76.977       50.029    10343.330     5925.467     2502.907        2.492        0.939      173.681       51.141        0.087      334.847        5.086      861.329
10/03/2013  04:33:00     -212.961       41.896      -32.399       93.428       74.373       48.708     8728.807     5531.343     2372.448        3.239        0.832      217.043       32.221        0.022      334.801        5.010      861.313
10/03/2013  04:34:00     -223.426       14.341      -27.228      144.173      102.806       52.275    20785.816    10569.108     2732.629        4.247        1.704      223.885       60.438        0.073      334.751        4.927      861.295
10/03/2013  04:35:00     -207.435       49.063      -23.515      126.989       97.093       52.392    16126.171     9427.040     2744.897        3.714        1.415      213.159       63.368        0.088      334.676        4.803      861.285
10/03/2013  04:36:00     -200.797        6.078      -14.910      129.751      103.920       57.404    16835.423    10799.386     3295.258        3.575        1.547      200.889       58.170        0.084      334.672        4.795      861.300
10/03/2013  04:37:00     -189.513       98.266      -32.990      133.043       79.166       50.205    17700.507     6267.180     2520.518        3.657        1.324      213.474       66.022        0.096      334.666        4.787      861.320
10/03/2013  04:38:00      -85.716       54.374        5.487       73.208       50.027       41.839     5359.373     2502.690     1750.492        0.997        0.481      101.508       35.153        0.120      334.694        4.835      861.331
10/03/2013  04:39:00     -113.607       31.622       -3.029      144.565       88.216       68.155    20899.138     7782.125     4645.074        2.361        1.666      117.926       62.662        0.282      334.690        4.826      861.360
10/03/2013  04:40:00     -162.739      121.181      -34.526       85.176       65.824       43.745     7254.918     4332.785     1913.656        2.793        0.675      202.901       43.424        0.046      334.644        4.749      861.390
10/03/2013  04:41:00     -147.431       73.965      -27.471       71.291       63.427       50.197     5082.423     4023.019     2519.704        1.979        0.581      164.944       37.666        0.052      334.673        4.797      861.413
10/03/2013  04:42:00     -129.308      163.517      -19.347       74.981       75.089       52.148     5622.152     5638.405     2719.460        2.890        0.699      208.466       39.674        0.036      334.636        4.737      861.411
10/03/2013  04:43:00     -113.956      161.697      -29.922       52.871      128.825       42.131     2795.332    16595.964     1774.989        3.059        1.058      197.818       31.340        0.025      334.631        4.728      861.391
10/03/2013  04:44:00     -118.791       78.705      -21.286       69.960       66.926       45.008     4894.406     4479.030     2025.681        1.608        0.570      142.498       30.370        0.045      334.638        4.740      861.377
10/03/2013  04:45:00     -102.364       -3.839       -8.436       69.767       46.869       32.938     4867.471     2196.744     1084.907        0.936        0.407      102.436       17.424        0.029      334.638        4.741      861.393
10/03/2013  04:46:00     -112.387       41.921      -25.862       55.882       64.671       48.292     3122.778     4182.331     2332.119        1.235        0.482      119.951       33.819        0.079      334.571        4.631      861.412
10/03/2013  04:47:00     -243.148       70.027      -50.491       92.973      142.336       53.068     8643.965    20259.492     2816.202        4.914        1.586      253.031       64.415        0.065      334.545        4.584      861.412
10/03/2013  04:48:00     -158.740      118.449      -37.359       77.122      102.658       62.969     5947.800    10538.566     3965.127        3.053        1.023      198.062       52.155        0.069      334.515        4.536      861.400
10/03/2013  04:49:00     -111.626      116.804       -8.181       65.827       72.044       47.644     4333.226     5190.362     2269.926        1.898        0.590      161.566       45.061        0.078      334.508        4.523      861.400
10/03/2013  04:50:00     -154.566      158.530      -25.892       99.463      125.150       47.160     9892.887    15662.578     2224.035        3.873        1.389      221.410       49.831        0.051      334.518        4.540      861.399
10/03/2013  04:51:00     -194.649      235.001      -39.228       97.351      102.129       62.679     9477.228    10430.403     3928.610        5.924        1.192      305.145       59.815        0.038      334.492        4.497      861.421
10/03/2013  04:52:00     -131.087      208.200      -38.261       80.325       97.192       58.800     6452.134     9446.215     3457.437        4.067        0.968      246.030       55.351        0.051      334.503        4.515      861.463
10/03/2013  04:53:00     -137.565      229.026      -23.177       99.690       99.693       54.195     9938.120     9938.682     2937.120        4.736        1.141      267.165       57.598        0.046      334.501        4.512      861.496
10/03/2013  04:54:00     -136.886      194.463      -35.068       75.859      107.863       46.269     5754.594    11634.481     2140.860        3.865        0.976      237.810       41.514        0.030      334.505        4.519      861.514
10/03/2013  04:55:00     -130.386      227.664      -24.213       80.350       98.726       61.027     6456.093     9746.779     3724.274        4.467        0.996      262.358       62.701        0.057      334.445        4.419      861.531
10/03/2013  04:56:00     -173.162      210.642      -51.969       93.589       84.245       43.960     8758.883     7097.267     1932.439        4.742        0.889      272.681       44.990        0.027      334.453        4.434      861.544
10/03/2013  04:57:00     -147.047      205.045      -30.535       82.095       85.313       51.682     6739.568     7278.371     2671.010        4.064        0.834      252.322       50.334        0.040      334.421        4.379      861.540
10/03/2013  04:58:00     -210.857      261.477      -47.439       96.803      113.482       59.061     9370.914    12878.090     3488.211        7.040        1.287      335.903       70.803        0.044      334.434        4.402      861.529
10/03/2013  04:59:00     -253.757      224.314      -61.283       82.804      101.431       59.143     6856.558    10288.215     3497.903        6.955        1.032      338.688       58.694        0.030      334.443        4.416      861.517
10/03/2013  05:00:00     -167.277      180.552      -26.377       98.805      110.769       56.761     9762.453    12269.876     3221.857        4.326        1.263      246.131       57.142        0.054      334.435        4.403      861.505
10/03/2013  05:01:00     -199.974      199.790      -45.962      105.493      112.456       57.291    11128.774    12646.283     3282.307        5.453        1.353      282.676       61.274        0.047      334.438        4.409      861.512
10/03/2013  05:02:00     -210.839      217.517      -54.836       79.399       97.332       49.149     6304.136     9473.549     2415.575        5.648        0.910      302.930       39.946        0.017      334.453        4.431      861.514
10/03/2013  05:03:00     -172.287      155.655      -22.850       93.927      102.451       57.176     8822.189    10496.227     3269.066        3.851        1.129      232.188       54.438        0.055      334.468        4.457      861.531
10/03/2013  05:04:00     -160.567      197.039      -30.345       70.734      111.139       46.755     5003.328    12351.912     2186.066        4.253        0.977      254.178       32.491        0.016      334.484        4.484      861.552
10/03/2013  05:05:00     -249.454       73.564      -19.706       85.315       70.905       40.540     7278.604     5027.556     1643.461        4.099        0.697      260.074       37.719        0.021      334.516        4.537      861.566
10/03/2013  05:06:00     -242.584       78.133      -40.195       89.940       73.201       40.963     8089.192     5358.337     1677.935        4.084        0.756      254.856       18.396        0.005      334.452        4.430      861.550
10/03/2013  05:07:00     -180.035       64.051      -22.872      108.724       74.329       51.335    11820.983     5524.852     2635.232        2.851        0.999      191.089       56.015        0.086      334.474        4.468      861.534
10/03/2013  05:08:00     -116.953       57.233      -15.402       70.122       62.651       36.161     4917.103     3925.195     1307.627        1.367        0.507      130.206       29.248        0.050      334.443        4.418      861.513
10/03/2013  05:09:00     -180.464      113.388      -24.544       53.919       65.702       43.826     2907.307     4316.711     1920.739        2.758        0.457      213.129       32.749        0.024      334.420        4.378      861.508
10/03/2013  05:10:00     -109.439      108.942      -29.814       48.025       56.809       38.389     2306.412     3227.249     1473.718        1.587        0.350      154.420       20.300        0.017      334.432        4.401      861.530
10/03/2013  05:11:00     -136.448       70.523       -7.791       79.528       97.363       45.708     6324.642     9479.599     2089.177        2.077        0.895      153.595       24.123        0.025      334.414        4.369      861.563
10/03/2013  05:12:00     -153.965      101.705      -18.260       56.311       84.672       44.556     3170.874     7169.290     1985.212        2.335        0.616      184.524       26.907        0.021      334.389        4.327      861.574
10/03/2013  05:13:00     -189.102       80.538      -15.902      101.013       61.711       43.804    10203.642     3808.242     1918.811        2.921        0.797      205.538       43.395        0.045      334.359        4.277      861.601
10/03/2013  05:14:00     -114.352       58.352       -5.479       60.254       52.938       40.953     3630.532     2802.468     1677.131        1.231        0.406      128.380       28.166        0.048      334.370        4.297      861.615
10/03/2013  05:15:00      -92.439       82.053      -11.464       49.578       74.484       39.788     2458.002     5547.815     1583.052        1.250        0.479      123.603       37.797        0.094      334.382        4.316      861.606
10/03/2013  05:16:00     -172.605      109.263      -30.233       86.915      103.671       43.806     7554.162    10747.749     1919.007        3.143        1.011      204.281       49.013        0.058      334.367        4.291      861.614
10/03/2013  05:17:00     -109.656       61.557       -7.409       48.743       42.402       27.345     2375.866     1797.930      747.747        1.039        0.246      125.753       21.637        0.030      334.355        4.274      861.611
10/03/2013  05:18:00     -111.638       57.190      -20.028       72.234       68.832       36.997     5217.741     4737.823     1368.750        1.373        0.566      125.434       38.853        0.096      334.413        4.369      861.628
10/03/2013  05:19:00     -135.533       63.276      -31.847       57.932       83.836       44.867     3356.128     7028.428     2013.006        1.789        0.620      149.576       28.401        0.036      334.373        4.304      861.650
10/03/2013  05:20:00     -125.285       18.803      -30.878       84.829       98.960       61.800     7195.955     9793.095     3819.224        1.890        1.040      126.688       49.704        0.154      334.342        4.249      861.682
10/03/2013  05:21:00     -155.107       65.615      -26.734      105.888       73.879       49.385    11212.285     5458.106     2438.834        2.409        0.955      168.415       48.657        0.083      334.297        4.174      861.724
10/03/2013  05:22:00     -248.548       92.285      -39.318      109.958       71.111       50.234    12090.806     5056.709     2523.413        4.575        0.984      265.128       55.181        0.043      334.285        4.155      861.757
10/03/2013  05:23:00     -112.161       69.990      -32.321       91.582       85.408       44.528     8387.265     7294.512     1982.745        1.809        0.883      132.207       28.403        0.046      334.312        4.199      861.776
10/03/2013  05:24:00     -112.060       34.692       -8.182       52.273       82.742       43.419     2732.457     6846.204     1885.194        1.264        0.573      117.307       34.191        0.085      334.343        4.253      861.784
10/03/2013  05:25:00     -160.496       74.345      -23.707       58.625       66.848       41.038     3436.857     4468.672     1684.154        2.072        0.479      176.878       32.564        0.034      334.287        4.158      861.802
10/03/2013  05:26:00     -127.528       18.383       -9.340       77.271       54.148       39.252     5970.876     2931.957     1540.684        1.356        0.522      128.846       39.823        0.096      334.324        4.220      861.798
10/03/2013  05:27:00     -192.192       46.770      -28.331       74.329       89.985       39.668     5524.751     8097.345     1573.556        2.756        0.760      197.801       38.108        0.037      334.291        4.165      861.783
10/03/2013  05:28:00     -134.389      -26.893      -12.075       77.417       47.702       33.842     5993.449     2275.511     1145.257        1.417        0.471      137.053       29.668        0.047      334.326        4.225      861.774
10/03/2013  05:29:00     -186.823       46.912      -13.338       58.132       52.694       30.354     3379.273     2776.643      921.356        2.218        0.354      192.623       23.724        0.015      334.319        4.212      861.792
10/03/2013  05:30:00     -200.536       -1.053      -17.764       65.337       66.101       48.777     4268.910     4369.329     2379.173        2.577        0.551      200.538       39.460        0.039      334.309        4.193      861.830
10/03/2013  05:31:00      -79.996       61.467       -1.453       86.468       80.501       56.836     7476.691     6480.454     3230.280        1.368        0.859      100.884       49.264        0.238      334.302        4.184      861.854
10/03/2013  05:32:00     -118.923      -43.278       -8.028       97.367       79.949       42.420     9480.250     6391.871     1799.479        1.687        0.884      126.553       32.507        0.066      334.295        4.173      861.882
10/03/2013  05:33:00     -127.485       74.139      -13.012       98.426       67.786       50.215     9687.602     4594.892     2521.587        1.936        0.840      147.475       47.537        0.104      334.284        4.155      861.919
10/03/2013  05:34:00      -88.740       40.541       -6.964       63.165       92.690       45.039     3989.850     8591.526     2028.540        1.209        0.730       97.562       35.089        0.129      334.321        4.217      861.898
10/03/2013  05:35:00     -110.273       49.612       -7.963       48.840       65.602       34.853     2385.315     4303.597     1214.712        1.129        0.395      120.920       26.903        0.050      334.332        4.234      861.898
10/03/2013  05:36:00     -108.184        7.957       -8.615       68.534       70.190       39.098     4696.858     4926.687     1528.680        1.149        0.558      108.476       29.633        0.075      334.391        4.332      861.879
10/03/2013  05:37:00      -90.914       10.714       -4.259       44.621       62.514       34.656     1991.057     3908.002     1201.070        0.775        0.355       91.543       23.995        0.069      334.379        4.313      861.856
10/03/2013  05:38:00     -175.975      -79.960      -27.037       63.208       52.272       41.282     3995.242     2732.335     1704.243        2.326        0.422      193.289       34.108        0.031      334.378        4.307      861.855
10/03/2013  05:39:00      -89.612      -10.428       -8.275       65.187       58.413       29.739     4249.362     3412.095      884.405        0.837        0.427       90.216        8.730        0.009      334.361        4.283      861.842
10/03/2013  05:40:00     -149.453       25.064      -26.677       74.945       59.130       34.607     5616.771     3496.340     1197.638        1.699        0.516      151.540       25.124        0.027      334.421        4.381      861.849
10/03/2013  05:41:00     -164.331      -33.318        0.976       88.452       60.230       39.588     7823.789     3627.613     1567.204        2.056        0.651      167.674       34.937        0.043      334.426        4.389      861.842
10/03/2013  05:42:00     -233.129       46.900      -11.195      137.076       93.374       66.441    18789.819     8718.722     4414.472        4.429        1.596      237.800       77.578        0.106      334.401        4.348      861.849
10/03/2013  05:43:00     -116.421       43.170       -5.668       60.798       45.807       35.989     3696.375     2098.276     1295.206        1.127        0.354      124.167       23.961        0.037      334.414        4.370      861.856
10/03/2013  05:44:00      -80.920      -34.508        1.986       62.375       46.809       35.063     3890.679     2191.078     1229.390        0.753        0.366       87.971       30.486        0.120      334.395        4.339      861.844
10/03/2013  05:45:00      -70.745      -31.610       -0.025       70.274       39.968       35.086     4938.451     1597.411     1230.994        0.688        0.388       77.486       31.381        0.164      334.425        4.390      861.834
10/03/2013  05:46:00     -197.592      -51.855      -14.543       77.519       57.609       38.879     6009.120     3318.831     1511.569        2.639        0.542      204.283       41.076        0.040      334.435        4.403      861.824
10/03/2013  05:47:00     -103.176      -33.963        7.353       76.578       52.815       33.768     5864.240     2789.392     1140.294        1.082        0.490      108.622       32.035        0.087      334.446        4.423      861.819
10/03/2013  05:48:00     -213.097       12.974      -18.687       78.065       69.276       37.784     6094.075     4799.134     1427.610        2.912        0.616      213.491       34.751        0.026      334.532        4.561      861.817
10/03/2013  05:49:00     -115.145      275.214      -30.133      116.600      144.006       52.856    13595.507    20737.836     2793.757        6.351        1.856      298.331       43.411        0.021      334.600        4.676      861.811
10/03/2013  05:50:00     -213.713      144.502      -47.017       96.557       91.136       53.307     9323.277     8305.699     2841.622        4.461        1.024      257.981       49.186        0.036      334.608        4.689      861.801
10/03/2013  05:51:00     -144.008      225.558      -29.700       86.714      105.875       49.916     7519.302    11209.525     2491.578        4.685        1.061      267.609       47.310        0.031      334.569        4.624      861.782
10/03/2013  05:52:00     -115.720      136.320      -25.498       69.156      101.186       46.369     4782.596    10238.622     2150.122        2.489        0.859      178.814       51.964        0.084      334.575        4.636      861.777
10/03/2013  05:53:00     -104.902      121.420      -16.558       71.740       89.531       45.284     5146.653     8015.852     2050.628        2.061        0.761      160.460       47.795        0.089      334.579        4.643      861.777
10/03/2013  05:54:00     -187.486      139.853      -30.419       87.988       86.971       51.303     7741.806     7563.954     2632.043        3.678        0.897      233.902       38.544        0.027      334.591        4.661      861.786
10/03/2013  05:55:00     -180.422      141.427      -33.902       98.040      111.199       56.982     9611.861    12365.272     3246.905        3.946        1.261      229.246       61.016        0.071      334.596        4.668      861.784
10/03/2013  05:56:00     -156.279      177.800      -22.477       76.889      123.585       55.751     5911.873    15273.263     3108.188        4.041        1.215      236.719       43.629        0.034      334.576        4.636      861.750
10/03/2013  05:57:00     -122.460      162.414       -7.576      102.777      151.774       77.549    10563.120    23035.332     6013.892        4.051        1.981      203.407       78.810        0.150      334.567        4.622      861.731
10/03/2013  05:58:00     -154.711      158.913      -21.033       73.578      140.668       45.606     5413.754    19787.389     2079.867        3.845        1.364      221.785       45.414        0.042      334.587        4.654      861.708
10/03/2013  05:59:00      -47.257       61.792       -1.939       64.201       57.755       37.760     4121.814     3335.669     1425.820        0.747        0.444       77.792       38.873        0.250      334.575        4.637      861.707
10/03/2013  06:00:00      -86.875      115.164       -2.022       60.811       97.558       52.249     3697.997     9517.466     2729.990        1.838        0.797      144.257       46.097        0.102      334.560        4.611      861.729
10/03/2013  06:01:00      -38.488       44.583      -20.512       69.616       40.918       21.168     4846.377     1674.288      448.065        0.543        0.348       58.898       27.088        0.212      334.631        4.732      861.745
10/03/2013  06:02:00        9.386       -6.194       20.918       81.266       79.732       46.961     6604.150     6357.168     2205.350        0.786        0.758       11.246       52.676       21.941      334.639        4.742      861.759
10/03/2013  06:03:00      -62.526       -2.727        5.169       87.648       75.018       38.566     7682.190     5627.662     1487.357        0.937        0.740       62.585       28.130        0.202      334.610        4.695      861.810
10/03/2013  06:04:00     -108.284      151.717       -4.754      132.703      121.386       75.381    17610.080    14734.681     5682.288        3.639        1.901      186.396       81.617        0.192      334.510        4.529      861.834
10/03/2013  06:05:00     -185.584      125.980      -33.682       96.588      124.962       59.844     9329.196    15615.517     3581.265        3.998        1.426      224.304       69.907        0.097      334.535        4.568      861.866
10/03/2013  06:06:00      -49.743       86.419       -1.982       47.373       64.631       33.004     2244.231     4177.172     1089.269        0.873        0.376       99.712       34.364        0.119      334.528        4.559      861.895
10/03/2013  06:07:00      -70.880       81.508      -10.001       66.705       75.889       39.959     4449.562     5759.111     1596.728        1.178        0.590      108.016       35.662        0.109      334.523        4.550      861.922
10/03/2013  06:08:00     -115.036      134.444      -17.067       55.489       76.146       40.473     3079.068     5798.277     1638.099        2.106        0.526      176.942       33.244        0.035      334.478        4.473      861.942
10/03/2013  06:09:00      -71.193       83.169      -18.381       28.099       49.114       22.524      789.533     2412.223      507.310        0.802        0.185      109.478       17.304        0.025      334.491        4.498      861.965
10/03/2013  06:10:00      -27.376        4.689        4.276       47.551       33.197       24.319     2261.076     1102.030      591.398        0.237        0.198       27.775       26.714        0.925      334.575        4.639      862.000
10/03/2013  06:11:00      -46.870      -42.733        1.257       39.183       26.819       21.253     1535.272      719.262      451.699        0.336        0.135       63.426       14.768        0.054      334.551        4.597      862.025
10/03/2013  06:12:00      -17.320      -10.004       12.570       27.166       21.696       15.247      737.974      470.713      232.470        0.100        0.072       20.002       11.021        0.304      334.483        4.484      862.069
10/03/2013  06:13:00       -9.621      -67.856       -1.975       21.748       17.560       16.387      472.981      308.337      268.522        0.288        0.052       68.534       11.521        0.028      334.476        4.476      862.103
10/03/2013  06:14:00       -4.271       -5.768       13.325       14.115       39.099       12.238      199.220     1528.709      149.774        0.105        0.094        7.177       19.017        7.021      334.543        4.585      862.118
10/03/2013  06:15:00        2.678       14.178        5.894        9.886       16.003       13.567       97.734      256.093      184.052        0.039        0.027       14.428       13.699        0.901      334.487        4.492      862.138
10/03/2013  06:16:00        2.325       23.861       -8.421       21.081        8.264        6.100      444.390       68.296       37.210        0.060        0.027       23.974        7.313        0.093      334.430        4.399      862.173
10/03/2013  06:17:00        5.315       26.102       -4.002       13.919       15.055        9.159      193.736      226.652       83.882        0.061        0.025       26.638        7.740        0.084      334.386        4.327      862.189
10/03/2013  06:18:00        6.239        9.383        3.971        7.566       10.023        8.798       57.250      100.462       77.400        0.019        0.012       11.268        5.288        0.220      334.423        4.387      862.217
10/03/2013  06:19:00        7.253       20.896        7.361       11.206        8.363        7.720      125.578       69.936       59.602        0.040        0.013       22.119        2.244        0.010      334.479        4.479      862.259
10/03/2013  06:20:00       25.277       23.733        6.264        9.088       10.144        8.413       82.590      102.892       70.786        0.075        0.013       34.673        3.241        0.009      334.408        4.361      862.306
10/03/2013  06:21:00       17.990       17.379        6.019       11.001       10.781        8.102      121.023      116.240       65.647        0.048        0.015       25.014        3.753        0.023      334.334        4.239      862.329
10/03/2013  06:22:00       22.419       21.896        6.547       16.886       10.078        8.739      285.135      101.573       76.367        0.074        0.023       31.338       10.083        0.104      334.288        4.164      862.328
10/03/2013  06:23:00      -85.964       -3.353       -8.455       40.812       24.253       16.061     1665.627      588.202      257.952        0.499        0.126       86.029       15.120        0.031      334.484        4.486      862.357
10/03/2013  06:24:00     -122.020      -56.077      -18.603       49.828       31.648       25.342     2482.804     1001.593      642.209        1.125        0.206      134.289       22.128        0.027      334.485        4.488      862.378
10/03/2013  06:25:00      -43.911       24.397       -2.541       24.819       23.589       18.108      616.007      556.459      327.907        0.201        0.075       50.233        9.327        0.034      334.408        4.362      862.372
10/03/2013  06:26:00      -12.761       42.504       -6.585       12.946       16.658       10.367      167.588      277.476      107.484        0.128        0.028       44.378        6.024        0.018      334.473        4.469      862.367
10/03/2013  06:27:00      -17.937       36.887       -0.383       35.926       19.691       16.162     1290.676      387.718      261.209        0.181        0.097       41.017        9.855        0.058      334.435        4.408      862.359
10/03/2013  06:28:00      -62.281       -0.807       -2.329       14.200       13.886       10.904      201.643      192.808      118.894        0.220        0.026       62.286        7.988        0.016      334.470        4.465      862.349
10/03/2013  06:29:00      -65.541      -37.621        0.818       40.887       25.675       22.596     1671.748      659.200      510.567        0.428        0.142       75.571        7.093        0.009      334.498        4.511      862.354
10/03/2013  06:30:00     -124.562      -53.451       -8.038       55.865       25.248       22.599     3120.891      637.466      510.696        1.135        0.213      135.546       27.906        0.042      334.507        4.524      862.385
10/03/2013  06:31:00     -148.002      -13.062      -15.031       31.667       32.056       17.399     1002.801     1027.610      302.741        1.232        0.117      148.577       12.253        0.007      334.460        4.449      862.423
10/03/2013  06:32:00     -211.694        6.948      -20.246       55.974       55.260       30.667     3133.033     3053.624      940.489        2.620        0.356      211.808       32.063        0.023      334.446        4.421      862.435
10/03/2013  06:33:00     -164.749       91.231      -28.778       36.865       49.889       27.685     1359.051     2488.888      766.436        2.045        0.231      188.322       30.541        0.026      334.441        4.414      862.466
10/03/2013  06:34:00     -129.129       40.728      -17.739       46.056       36.837       24.407     2121.165     1356.953      595.720        1.136        0.204      135.399       26.553        0.038      334.472        4.466      862.477
10/03/2013  06:35:00      -94.436       43.021       -9.554       44.741       37.482       26.326     2001.760     1404.884      693.070        0.748        0.205      103.773       26.430        0.065      334.428        4.393      862.472
10/03/2013  06:36:00     -152.894       53.767      -21.493       59.881       37.485       25.119     3585.692     1405.122      630.981        1.617        0.281      162.073       21.711        0.018      334.440        4.414      862.465
10/03/2013  06:37:00     -131.384      -25.305      -12.896       30.991       39.185       20.402      960.466     1535.431      416.239        1.049        0.146      133.799       16.483        0.015      334.474        4.470      862.448
10/03/2013  06:38:00     -178.541        9.397      -20.960       63.901       61.043       31.811     4083.401     3726.295     1011.928        2.061        0.441      178.788       30.727        0.030      334.519        4.543      862.431
10/03/2013  06:39:00     -107.059      -10.108       -6.459       62.020       45.722       25.031     3846.459     2090.481      626.526        0.908        0.328      107.535       18.239        0.029      334.487        4.491      862.409
10/03/2013  06:40:00     -157.428      -58.553       -3.883       36.639       33.900       28.759     1342.429     1149.199      827.097        1.577        0.166      167.964       13.010        0.006      334.531        4.564      862.393
10/03/2013  06:41:00     -129.195      -50.701       -8.172       46.365       46.317       30.779     2149.720     2145.292      947.316        1.228        0.262      138.787       15.805        0.013      334.475        4.472      862.390
10/03/2013  06:42:00     -151.019      -46.013      -10.490       84.309       85.338       36.279     7107.963     7282.632     1316.131        2.037        0.785      157.873       19.948        0.016      334.470        4.462      862.395
10/03/2013  06:43:00     -152.758       77.472      -22.187       70.745       48.914       34.412     5004.794     2392.568     1184.154        1.920        0.429      171.280       36.205        0.045      334.484        4.484      862.422
10/03/2013  06:44:00     -184.992      -63.351       -9.927       79.102       73.041       30.802     6257.060     5335.042      948.766        2.543        0.627      195.539       31.561        0.026      334.510        4.526      862.411
10/03/2013  06:45:00     -209.348     -120.540      -10.042       59.407       64.143       46.412     3529.243     4114.272     2154.033        3.413        0.490      241.571       23.898        0.010      334.469        4.458      862.385
10/03/2013  06:46:00     -252.847      -43.938      -13.902       96.168       76.569       47.637     9248.219     5862.775     2269.305        4.171        0.869      256.637       40.944        0.025      334.455        4.436      862.373
10/03/2013  06:47:00     -226.960      -37.602      -14.064       74.288       67.202       41.740     5518.779     4516.062     1742.218        3.245        0.589      230.054       38.632        0.028      334.474        4.468      862.363
10/03/2013  06:48:00     -167.919      -34.736      -10.279       86.106       64.127       40.386     7414.207     4112.273     1631.028        2.133        0.658      171.474       39.465        0.053      334.456        4.438      862.366
10/03/2013  06:49:00     -128.143       57.226      -13.089       83.427      110.562       56.566     6960.138    12223.954     3199.657        2.112        1.119      140.341       49.214        0.123      334.417        4.375      862.372
10/03/2013  06:50:00     -118.986      -62.922      -24.774       90.338       72.577       49.901     8161.029     5267.438     2490.106        1.732        0.796      134.599       31.958        0.056      334.456        4.439      862.367
10/03/2013  06:51:00     -299.201      -51.639      -30.411      114.464       70.234       49.112    13102.025     4932.873     2412.030        5.678        1.022      303.625       47.125        0.024      334.548        4.586      862.377
10/03/2013  06:52:00     -265.083      -10.967      -24.175      125.428       83.736       53.835    15732.220     7011.670     2898.154        4.830        1.282      265.310       52.110        0.039      334.614        4.700      862.397
10/03/2013  06:53:00      -89.148       76.256        3.458       48.379       51.891       48.524     2340.539     2692.683     2354.590        1.058        0.369      117.313       36.210        0.095      334.562        4.615      862.417
10/03/2013  06:54:00      -65.249      129.860       -1.961       43.969       55.298       34.534     1933.311     3057.834     1192.599        1.365        0.309      145.331       30.174        0.043      334.598        4.677      862.433
10/03/2013  06:55:00     -164.900       70.536      -19.452       56.897       49.152       31.860     3237.267     2415.954     1015.052        1.961        0.333      179.353       20.902        0.014      334.519        4.542      862.450
10/03/2013  06:56:00     -110.135      -16.359      -11.689       51.088       63.667       30.581     2610.008     4053.501      935.221        1.006        0.380      111.343       27.321        0.060      334.529        4.562      862.456
10/03/2013  06:57:00     -164.373       52.003      -23.808       94.635       71.448       41.698     8955.742     5104.862     1738.746        2.304        0.790      172.403       29.358        0.029      334.583        4.648      862.442
10/03/2013  06:58:00     -115.448       44.555      -16.854       73.393       99.023       43.951     5386.466     9805.533     1931.681        1.636        0.856      123.747       37.745        0.093      334.537        4.572      862.421
10/03/2013  06:59:00      -96.159       50.299       -1.487       99.720       64.024       44.792     9944.021     4099.134     2006.279        1.391        0.802      108.520       56.152        0.268      334.525        4.554      862.435
10/03/2013  07:00:00      -96.954       34.980      -19.552       38.760       41.641       25.616     1502.333     1733.945      656.165        0.745        0.195      103.072       15.386        0.022      334.537        4.575      862.446
10/03/2013  07:01:00     -123.815       70.398      -19.403       37.713       32.681       30.938     1422.308     1068.047      957.155        1.205        0.172      142.429       18.508        0.017      334.508        4.525      862.473
10/03/2013  07:02:00     -147.216       13.658      -12.315       62.487       60.047       36.085     3904.596     3605.686     1302.123        1.541        0.441      147.848       31.501        0.045      334.463        4.450      862.506
10/03/2013  07:03:00     -154.630       14.844      -10.154       78.231       44.197       38.325     6120.045     1953.406     1468.810        1.689        0.477      155.341       26.753        0.030      334.478        4.475      862.533
10/03/2013  07:04:00     -144.115       64.291      -23.777       89.586       79.208       41.315     8025.720     6273.950     1706.897        2.073        0.800      157.806       53.878        0.117      334.530        4.560      862.554
10/03/2013  07:05:00     -162.682       12.896        0.607       61.649       81.095       37.111     3800.644     6576.323     1377.240        1.919        0.588      163.193       36.028        0.049      334.568        4.624      862.567
10/03/2013  07:06:00      -95.985       -5.552      -14.120       65.321       50.583       31.204     4266.806     2558.605      973.679        0.862        0.390       96.146       29.606        0.095      334.434        4.403      862.605
10/03/2013  07:07:00     -145.932       76.239      -22.528       74.709       99.439       64.961     5581.381     9888.051     4219.969        2.365        0.984      164.646       50.415        0.094      334.443        4.417      862.630
10/03/2013  07:08:00     -182.028       43.132      -26.838       61.377       45.267       35.738     3767.169     2049.109     1277.169        2.140        0.355      187.068       23.281        0.015      334.434        4.402      862.654
10/03/2013  07:09:00      -86.174       11.118      -11.228       58.227       50.883       26.808     3390.424     2589.089      718.678        0.719        0.335       86.888       32.702        0.142      334.372        4.303      862.679
10/03/2013  07:10:00      -65.328        2.168        0.882       42.520       55.844       28.505     1807.945     3118.502      812.517        0.500        0.287       65.364       27.160        0.173      334.381        4.317      862.694
10/03/2013  07:11:00     -182.389       23.756      -18.952       79.035       58.513       33.892     6246.488     3423.731     1148.696        2.250        0.541      183.929       41.116        0.050      334.463        4.450      862.710
10/03/2013  07:12:00     -113.150       25.857       -6.673       44.667       62.403       46.255     1995.116     3894.180     2139.503        1.077        0.401      116.066       39.476        0.116      334.381        4.317      862.712
10/03/2013  07:13:00     -120.658      -45.102      -10.063       67.786       75.009       31.174     4594.916     5626.423      971.830        1.394        0.560      128.812       29.396        0.052      334.245        4.089      862.701
10/03/2013  07:14:00      -95.254      -26.533        2.305       68.845       46.315       35.921     4739.607     2145.067     1290.321        0.898        0.409       98.880       27.923        0.080      334.219        4.047      862.691
10/03/2013  07:15:00     -140.106      -30.178      -14.828       66.297       48.725       39.957     4395.256     2374.145     1596.601        1.456        0.418      143.319       34.547        0.058      334.169        3.964      862.684
10/03/2013  07:16:00     -206.839      -60.953      -15.876       43.591       52.811       30.897     1900.145     2789.031      954.612        2.620        0.282      215.633       24.862        0.013      334.067        3.791      862.676
10/03/2013  07:17:00     -148.137      -37.190      -14.768       54.711       41.344       25.668     2993.259     1709.353      658.844        1.445        0.268      152.734       25.134        0.027      334.082        3.817      862.676
10/03/2013  07:18:00     -116.772      -33.939        1.268       63.367       55.255       30.744     4015.381     3053.107      945.188        1.140        0.401      121.604       34.273        0.079      334.087        3.827      862.689
10/03/2013  07:19:00     -157.934      -64.453      -10.435       62.980       41.425       28.778     3966.529     1716.058      828.151        1.786        0.326      170.580       31.964        0.035      334.100        3.849      862.702
10/03/2013  07:20:00     -148.008      -25.242      -18.386       55.051       44.303       26.595     3030.647     1962.780      707.291        1.429        0.285      150.145       22.467        0.022      334.168        3.962      862.711
10/03/2013  07:21:00     -115.936      -64.112       -7.897       61.756       42.638       28.474     3813.855     1818.035      810.749        1.203        0.322      132.482       17.895        0.018      334.216        4.041      862.722
10/03/2013  07:22:00     -143.248      -30.993      -11.999       35.970       35.813       21.859     1293.838     1282.603      477.803        1.234        0.153      146.562        9.618        0.004      334.195        4.006      862.730
10/03/2013  07:23:00     -157.543       13.606      -26.574       52.650       43.004       33.072     2771.995     1849.331     1093.728        1.571        0.286      158.130       20.986        0.018      334.165        3.957      862.749
10/03/2013  07:24:00     -133.875       -5.773      -10.971       31.970       37.019       23.024     1022.089     1370.393      530.115        1.050        0.146      133.999       17.895        0.018      334.186        3.992      862.763
10/03/2013  07:25:00      -97.446      -32.798       -9.021       49.533       36.779       19.869     2453.470     1352.721      394.784        0.743        0.210      102.817       19.660        0.037      334.246        4.092      862.765
10/03/2013  07:26:00     -144.976       63.787      -32.899       30.475       87.486       27.437      928.718     7653.763      752.790        1.775        0.467      158.388       29.854        0.036      334.302        4.183      862.760
10/03/2013  07:27:00      -57.037       61.959        3.838       39.300       54.537       29.547     1544.491     2974.279      872.998        0.625        0.270       84.215       23.230        0.076      334.387        4.327      862.769
10/03/2013  07:28:00      -39.540       16.574        5.869       41.267       46.518       21.659     1702.956     2163.929      469.113        0.310        0.217       42.873       18.018        0.177      334.390        4.331      862.803
10/03/2013  07:29:00      -98.860      -16.620      -14.713       43.111       40.116       27.318     1858.557     1609.300      746.263        0.724        0.211      100.247       12.937        0.017      334.367        4.294      862.819
10/03/2013  07:30:00      -89.682      -26.974       -9.937       43.491       47.685       28.592     1891.464     2273.841      817.518        0.693        0.249       93.651       10.559        0.013      334.381        4.316      862.840
10/03/2013  07:31:00     -146.717      -52.739      -11.348       48.276       40.156       35.468     2330.540     1612.542     1257.983        1.482        0.260      155.908       23.434        0.023      334.348        4.262      862.838
10/03/2013  07:32:00     -138.327      -34.280        2.274       72.887       41.573       33.288     5312.528     1728.312     1108.084        1.423        0.407      142.511       34.027        0.057      334.328        4.228      862.832
10/03/2013  07:33:00     -146.368      -49.530      -15.889       69.151       51.449       39.194     4781.864     2647.030     1536.189        1.655        0.448      154.521       36.575        0.056      334.388        4.328      862.850
10/03/2013  07:34:00     -152.488      -69.933      -19.135       71.937       55.616       38.546     5174.976     3093.163     1485.784        1.913        0.488      167.759       19.559        0.014      334.339        4.244      862.872
10/03/2013  07:35:00     -150.895      -41.483        6.598       63.703       62.665       30.272     4058.083     3926.920      916.364        1.672        0.445      156.493       24.035        0.024      334.316        4.208      862.874
10/03/2013  07:36:00     -181.542      -79.607       -8.888       84.592       59.953       43.566     7155.835     3594.347     1897.990        2.601        0.632      198.229       29.166        0.022      334.275        4.137      862.874
10/03/2013  07:37:00     -147.871       51.076      -18.314       44.079       48.200       32.639     1942.914     2323.272     1065.293        1.507        0.267      156.444       20.118        0.017      334.238        4.078      862.913
10/03/2013  07:38:00     -109.178      -29.466       -9.375       57.811       57.093       34.947     3342.078     3259.655     1221.275        1.035        0.391      113.084       23.699        0.044      334.258        4.111      862.944
10/03/2013  07:39:00     -173.242      -87.488       -6.772       68.008       64.977       36.112     4625.024     4222.017     1304.061        2.393        0.508      194.080       27.957        0.021      334.166        3.956      862.962
10/03/2013  07:40:00     -211.080      -53.000      -13.138       54.646       58.257       32.763     2986.221     3393.821     1073.440        2.749        0.373      217.632       20.197        0.009      334.168        3.959      862.952
10/03/2013  07:41:00     -167.676      -40.002       -9.973       43.915       47.344       27.450     1928.527     2241.427      753.525        1.737        0.246      172.381       24.391        0.020      334.123        3.887      862.960
10/03/2013  07:42:00     -127.456      -42.578        3.143       44.793       57.827       25.516     2006.369     3343.963      651.057        1.203        0.300      134.380       22.369        0.028      334.100        3.850      862.965
10/03/2013  07:43:00     -140.705      -48.828       -2.197       43.277       34.857       28.978     1872.910     1214.990      839.702        1.306        0.196      148.936       24.532        0.027      334.094        3.840      862.965
10/03/2013  07:44:00      -92.542      -67.107       -8.973       48.697       41.401       24.522     2371.435     1714.050      601.350        0.892        0.234      114.312       10.739        0.009      334.165        3.955      862.962
10/03/2013  07:45:00      -99.079      -27.048       -3.494       41.663       53.440       29.139     1735.779     2855.818      849.104        0.800        0.272      102.704       26.976        0.069      334.108        3.863      862.974
10/03/2013  07:46:00     -194.388      -91.466      -13.272       45.301       36.864       26.065     2052.169     1358.930      679.392        2.521        0.205      214.832       19.158        0.008      334.104        3.854      862.995
10/03/2013  07:47:00     -154.765      -36.348       -3.256       69.780       46.727       27.702     4869.255     2183.458      767.392        1.655        0.391      158.976       29.937        0.035      334.161        3.947      863.032
10/03/2013  07:48:00     -161.615       10.736      -13.161       60.198       49.891       25.873     3623.785     2489.126      669.411        1.659        0.339      161.971       28.741        0.031      334.203        4.019      863.082
10/03/2013  07:49:00     -144.446       41.563      -16.479       38.970       27.613       19.649     1518.687      762.493      386.086        1.276        0.133      150.307       20.243        0.018      334.197        4.010      863.109
10/03/2013  07:50:00     -116.870       16.912      -12.612       46.414       37.281       21.509     2154.265     1389.897      462.644        0.905        0.200      118.087       18.217        0.024      334.271        4.135      863.123
10/03/2013  07:51:00      -86.493       17.144      -10.914       34.606       29.502       19.397     1197.553      870.379      376.241        0.517        0.122       88.176       10.710        0.015      334.276        4.141      863.144
10/03/2013  07:52:00     -108.168       34.628       -4.114       45.749       48.855       25.804     2092.950     2386.791      665.850        0.903        0.257      113.575       22.511        0.039      334.350        4.266      863.162
10/03/2013  07:53:00     -141.172       42.242      -12.706       32.987       32.091       16.560     1088.140     1029.833      274.234        1.213        0.120      147.357       12.939        0.008      334.259        4.113      863.175
10/03/2013  07:54:00     -156.274      -11.971      -16.411       37.362       36.166       23.408     1395.905     1307.983      547.912        1.404        0.163      156.732       17.340        0.012      334.303        4.187      863.177
10/03/2013  07:55:00     -144.567       -9.141      -14.412       43.386       23.681       22.271     1882.370      560.790      495.991        1.206        0.147      144.855       19.614        0.018      334.340        4.249      863.185
10/03/2013  07:56:00     -162.428       20.638      -14.558       27.294       23.358       15.438      744.978      545.607      238.329        1.427        0.076      163.734       10.836        0.004      334.302        4.183      863.199
10/03/2013  07:57:00      -76.377      -15.488       -5.652       32.130       22.796       12.701     1032.346      519.665      161.305        0.391        0.086       77.931       13.070        0.028      334.362        4.284      863.198
10/03/2013  07:58:00     -118.035      -63.174        4.228       32.081       28.590       18.903     1029.181      817.378      357.322        1.007        0.110      133.877       14.411        0.012      334.445        4.424      863.199
10/03/2013  07:59:00     -150.821      -28.980       -6.528       30.196       24.448       14.638      911.813      597.704      214.262        1.268        0.086      153.580       12.736        0.007      334.432        4.401      863.209
10/03/2013  08:00:00     -117.123        5.307      -12.308       26.360       25.996       17.906      694.831      675.779      320.638        0.779        0.085      117.243       13.538        0.013      334.496        4.507      863.211
10/03/2013  08:01:00     -114.990      -48.491       -1.790       45.697       42.441       18.348     2088.216     1801.257      336.642        0.990        0.211      124.796       15.486        0.015      334.512        4.534      863.196
10/03/2013  08:02:00     -124.218      -64.288       -4.583       57.124       32.217       26.549     3263.152     1037.946      704.873        1.229        0.250      139.868       30.263        0.047      334.467        4.458      863.189
10/03/2013  08:03:00      -98.127      -78.868       -0.655       59.216       37.444       27.842     3506.551     1402.040      775.198        1.077        0.284      125.893       28.082        0.050      334.520        4.546      863.200
10/03/2013  08:04:00      -73.211      -54.815        1.294       51.998       30.661       27.172     2703.796      940.085      738.306        0.637        0.219       91.458       27.433        0.090      334.553        4.600      863.224
10/03/2013  08:05:00     -127.463      -73.070       -8.142       24.576       24.945       15.506      603.994      622.257      240.421        1.156        0.073      146.922       10.023        0.005      334.522        4.550      863.235
10/03/2013  08:06:00     -101.814      -44.530       -5.136       32.499       28.308       13.145     1056.217      801.323      172.792        0.720        0.102      111.127       10.542        0.009      334.543        4.585      863.263
10/03/2013  08:07:00     -104.165      -45.348       -1.956       34.811       39.358       24.200     1211.804     1549.062      585.632        0.813        0.167      113.607       22.788        0.040      334.598        4.674      863.301
10/03/2013  08:08:00      -36.894      -74.732        3.689       41.038       36.806       27.339     1684.157     1354.710      747.400        0.537        0.189       83.343       23.784        0.081      334.558        4.610      863.332
10/03/2013  08:09:00      -23.571      -66.461        4.205       34.452       60.025       23.402     1186.952     3602.960      547.639        0.516        0.267       70.517       11.588        0.027      334.674        4.802      863.338
10/03/2013  08:10:00      -67.835      -61.362        1.829       44.246       44.384       24.318     1957.716     1969.920      591.355        0.644        0.226       91.471       26.921        0.087      334.716        4.871      863.360
10/03/2013  08:11:00      -70.507      -81.205        6.128       39.706       36.288       29.103     1576.547     1316.850      846.979        0.767        0.187      107.543       26.455        0.061      334.702        4.849      863.374
10/03/2013  08:12:00      -63.895      -20.142       -3.494       53.180       39.377       25.393     2828.149     1550.570      644.818        0.476        0.251       66.995       21.886        0.107      334.636        4.740      863.379
10/03/2013  08:13:00     -116.116      -18.183       -3.917       42.148       34.728       25.025     1776.421     1206.035      626.258        0.872        0.180      117.531       24.106        0.042      334.641        4.749      863.384
10/03/2013  08:14:00      -74.248      -21.348        0.975       30.663       30.258       19.140      940.218      915.536      366.325        0.410        0.111       77.256       10.412        0.018      334.679        4.812      863.374
10/03/2013  08:15:00     -108.239      -14.115      -10.485       47.973       30.107       21.949     2301.387      906.434      481.742        0.786        0.184      109.156       23.659        0.047      334.696        4.840      863.362
10/03/2013  08:16:00      -64.167       -3.862        2.987       69.866       42.498       23.985     4881.292     1806.062      575.303        0.570        0.363       64.284       28.198        0.192      334.704        4.852      863.356
10/03/2013  08:17:00      -33.065        0.198        9.729       29.582       30.462       25.556      875.076      927.925      653.107        0.182        0.123       33.066       21.564        0.425      334.819        5.042      863.363
10/03/2013  08:18:00      -24.797      -34.763        8.515       42.512       35.618       23.190     1807.240     1268.673      537.760        0.275        0.181       42.701       24.114        0.319      334.830        5.062      863.376
10/03/2013  08:19:00      -30.131       -8.749       10.925       38.208       20.806       17.490     1459.885      432.879      305.916        0.165        0.110       31.376       21.339        0.463      334.837        5.073      863.385
10/03/2013  08:20:00       -6.193      -21.249        1.556       24.069       31.429       15.155      579.303      987.765      229.661        0.114        0.090       22.133       11.324        0.262      334.824        5.052      863.403
10/03/2013  08:21:00       17.525       30.615       21.061       29.870       25.310       23.941      892.211      640.617      573.162        0.190        0.105       35.276       21.515        0.372      334.918        5.210      863.425
10/03/2013  08:22:00      -84.310      -48.729       -5.674       70.785       50.429       25.572     5010.523     2543.053      653.944        0.886        0.410       97.379       31.034        0.102      334.832        5.063      863.469
10/03/2013  08:23:00      -85.569      -23.377       -0.603       78.489       45.772       26.270     6160.471     2095.031      690.102        0.841        0.447       88.705       19.771        0.050      334.763        4.950      863.484
10/03/2013  08:24:00      -71.167      -52.101       -1.603       44.060       33.727       22.411     1941.257     1137.484      502.258        0.568        0.179       88.200       23.056        0.068      334.721        4.880      863.498
10/03/2013  08:25:00     -102.097       -2.670        3.253       48.383       36.529       21.572     2340.885     1334.340      465.353        0.729        0.207      102.132       22.614        0.049      334.706        4.856      863.509
10/03/2013  08:26:00     -106.312      -30.226       -2.892       43.859       30.186       22.192     1923.600      911.178      492.470        0.777        0.166      110.525       24.080        0.047      334.743        4.917      863.529
10/03/2013  08:27:00     -119.456        5.450       -6.471       44.246       26.478       22.259     1957.698      701.082      495.479        0.875        0.158      119.580       23.267        0.038      334.709        4.860      863.549
10/03/2013  08:28:00      -68.568      -31.558       -1.445       48.517       32.350       17.401     2353.870     1046.508      302.785        0.470        0.185       75.481       22.585        0.090      334.741        4.914      863.566
10/03/2013  08:29:00      -23.256       -6.772        7.947       24.459       17.617       14.909      598.228      310.350      222.271        0.089        0.057       24.222        9.745        0.162      334.915        5.203      863.552
10/03/2013  08:30:00      -36.803      -19.004       15.988       45.822       28.949       25.350     2099.611      838.040      642.617        0.278        0.179       41.420       30.211        0.532      334.862        5.114      863.552
10/03/2013  08:31:00       37.481        9.810        6.179       37.291       63.981       26.735     1390.627     4093.541      714.746        0.387        0.310       38.744       22.062        0.324      334.858        5.107      863.544
10/03/2013  08:32:00      -19.440       -6.858       12.596       27.908       21.634       16.829      778.861      468.035      283.225        0.106        0.077       20.614       13.360        0.420      334.951        5.264      863.557
10/03/2013  08:33:00      -39.577      108.172        0.936      104.029       81.150       56.084    10822.078     6585.286     3145.447        1.691        1.028      115.185       37.257        0.105      334.919        5.209      863.581
10/03/2013  08:34:00     -109.031      101.676      -28.111       69.724      111.778       35.370     4861.428    12494.347     1251.060        2.081        0.930      149.083       27.519        0.034      335.017        5.371      863.594
10/03/2013  08:35:00     -128.925      164.811      -22.109       64.413       51.203       42.731     4149.026     2621.789     1825.965        2.643        0.430      209.247       34.411        0.027      335.049        5.423      863.622
10/03/2013  08:36:00     -125.158      201.277      -29.314      116.545      138.751       43.042    13582.823    19251.899     1852.628        4.585        1.734      237.017       38.603        0.027      335.089        5.487      863.651
10/03/2013  08:37:00     -191.740      -15.333      -15.011       72.644       67.541       38.525     5277.190     4561.799     1484.146        2.427        0.566      192.352       39.996        0.043      335.104        5.515      863.675
10/03/2013  08:38:00      -99.372        1.692        4.439       91.842       95.029       48.180     8434.898     9030.464     2321.303        1.484        0.989       99.387       39.039        0.154      335.294        5.831      863.668
10/03/2013  08:39:00     -151.955      104.477      -21.048       84.037       72.092       44.037     7062.201     5197.295     1939.257        2.432        0.710      184.406       28.774        0.024      335.185        5.650      863.695
10/03/2013  08:40:00     -157.499      201.654      -42.803       56.516       97.340       43.122     3194.113     9475.100     1859.513        4.091        0.726      255.872       36.352        0.020      335.117        5.536      863.701
10/03/2013  08:41:00     -107.577      253.437      -29.737       89.188       93.393       41.782     7954.416     8722.163     1745.709        4.755        0.921      275.324       42.067        0.023      335.155        5.599      863.714
10/03/2013  08:42:00     -110.187      249.473      -28.596       74.560       83.696       49.907     5559.256     7005.053     2490.708        4.512        0.753      272.723       36.608        0.018      335.102        5.510      863.736
10/03/2013  08:43:00      -79.673      169.120       -9.760       49.938      106.702       37.904     2493.786    11385.230     1436.680        2.518        0.766      186.948       38.388        0.042      335.285        5.816      863.723
10/03/2013  08:44:00      -55.516       51.231       -8.274       41.814       36.291       26.461     1748.412     1317.054      700.164        0.477        0.188       75.542       22.263        0.087      335.320        5.875      863.725
10/03/2013  08:45:00      -45.861      200.400       -8.219       46.275       70.565       39.929     2141.343     4979.358     1594.338        2.552        0.436      205.580       34.810        0.029      335.337        5.901      863.726
10/03/2013  08:46:00        5.731       93.458        2.765       58.807       68.607       43.828     3458.247     4706.853     1920.897        0.943        0.504       93.633       49.737        0.282      335.411        6.027      863.723
10/03/2013  08:47:00      -17.477      109.223       -6.120       32.364       78.972       28.964     1047.455     6236.548      838.890        1.020        0.406      110.612       26.410        0.057      335.427        6.053      863.716
10/03/2013  08:48:00      -27.602      176.419      -15.954       36.610       43.723       33.237     1340.259     1911.726     1104.673        1.825        0.218      178.565       27.921        0.024      335.443        6.079      863.708
10/03/2013  08:49:00      -24.351      317.019      -41.204       88.018       69.247       41.340     7747.232     4795.122     1708.978        5.852        0.713      317.953       27.734        0.008      335.280        5.804      863.709
10/03/2013  08:50:00      -50.654      170.819      -22.550       51.125       52.161       34.326     2613.795     2720.746     1178.267        1.938        0.326      178.172       29.085        0.027      335.486        6.150      863.708
10/03/2013  08:51:00      -39.063      236.409      -18.470       55.856       91.364       41.858     3119.881     8347.319     1752.129        3.549        0.661      239.615       39.907        0.028      335.391        5.991      863.726
10/03/2013  08:52:00     -128.374      123.332      -27.476       84.429       98.049       48.927     7128.289     9613.585     2393.885        2.579        0.957      178.019       55.376        0.097      335.437        6.069      863.749
10/03/2013  08:53:00      -92.598      134.776      -15.878       71.816       98.102       45.306     5157.582     9624.054     2052.663        2.191        0.842      163.521       46.177        0.080      335.550        6.257      863.760
10/03/2013  08:54:00     -146.001      255.391      -37.839       67.137       80.411       40.121     4507.328     6465.905     1609.659        5.028        0.629      294.179       36.797        0.016      335.319        5.871      863.798
10/03/2013  08:55:00     -133.880      262.470      -30.641       58.501       75.158       49.282     3422.366     5648.655     2428.702        4.962        0.575      294.643       44.316        0.023      335.455        6.097      863.825
10/03/2013  08:56:00     -124.607      120.320      -14.069       61.868       74.512       52.458     3827.670     5552.084     2751.892        2.116        0.607      173.216       40.717        0.055      335.464        6.113      863.851
10/03/2013  08:57:00      -49.342      183.707      -21.024       87.521       72.222       43.814     7659.972     5216.046     1919.649        2.571        0.740      190.218       46.840        0.061      335.621        6.374      863.870
10/03/2013  08:58:00      -84.433      296.575      -35.237      107.563       67.658       51.544    11569.721     4577.622     2656.823        5.756        0.940      308.360       43.368        0.020      335.585        6.314      863.896
10/03/2013  08:59:00     -198.787      267.756      -50.280       60.615       80.063       45.236     3674.228     6410.108     2046.266        6.293        0.607      333.481       42.689        0.016      335.379        5.970      863.924
10/03/2013  09:00:00     -113.659      165.028      -26.936       50.553       55.044       35.971     2555.642     3029.824     1293.927        2.388        0.344      200.381       37.387        0.035      335.486        6.150      863.925
10/03/2013  09:01:00      -11.934      161.602       -4.725       42.327      102.817       40.596     1791.615    10571.320     1648.029        2.014        0.701      162.042       52.967        0.107      335.838        6.737      863.920
10/03/2013  09:02:00      -22.666      112.240       -2.460       45.204      109.697       38.699     2043.368    12033.422     1497.618        1.434        0.779      114.506       23.386        0.042      335.857        6.769      863.937
10/03/2013  09:03:00       10.917      141.385        4.766       71.868       80.661       47.085     5165.067     6506.186     2217.038        1.701        0.694      141.806       38.590        0.074      335.985        6.983      863.944
10/03/2013  09:04:00       34.864      205.617      -28.571       82.918      112.679       50.304     6875.331    12696.597     2530.450        3.320        1.105      208.552       53.423        0.066      335.807        6.684      863.969
10/03/2013  09:05:00      -74.613      159.496      -16.025       62.252       84.626       42.230     3875.361     7161.517     1783.396        2.204        0.641      176.085       39.860        0.051      335.706        6.516      864.012
10/03/2013  09:06:00     -154.035      146.362      -30.418       79.369       61.160       39.162     6299.439     3740.530     1533.649        2.882        0.579      212.482       39.798        0.035      335.491        6.157      864.027
10/03/2013  09:07:00      -87.745      133.687      -18.584       62.176       86.326       46.340     3865.862     7452.186     2147.397        1.969        0.673      159.911       48.652        0.093      335.831        6.726      864.038
10/03/2013  09:08:00      -63.456       91.802      -11.903       49.356       59.784       35.367     2436.005     3574.164     1250.846        0.993        0.363      111.598       31.981        0.082      335.876        6.801      864.036
10/03/2013  09:09:00      -88.727      160.294      -16.861       92.137       87.972       46.843     8489.139     7739.024     2194.294        2.613        0.921      183.212       60.095        0.108      335.886        6.817      864.029
10/03/2013  09:10:00      -98.895      162.112      -10.937       77.107      123.836       54.696     5945.463    15335.476     2991.631        3.022        1.214      189.896       46.714        0.061      335.851        6.757      864.028
10/03/2013  09:11:00     -157.514      119.876      -32.183      102.816       68.624       49.601    10571.207     4709.237     2460.286        2.898        0.887      197.942       54.479        0.076      335.587        6.318      864.013
10/03/2013  09:12:00     -108.193       91.533      -10.776       75.034       74.806       46.155     5630.147     5595.909     2130.250        1.678        0.668      141.718       35.665        0.063      335.714        6.531      864.000
10/03/2013  09:13:00      -23.042      207.970      -15.742       51.046      121.441       37.071     2605.722    14747.946     1374.233        3.138        0.936      209.242       42.645        0.042      335.934        6.895      864.020
10/03/2013  09:14:00      -46.907      336.957      -35.577       53.764       60.355       32.258     2890.566     3642.679     1040.604        6.229        0.379      340.206       31.073        0.008      335.490        6.155      864.061
10/03/2013  09:15:00        1.683      295.327      -31.606       54.166       91.211       45.958     2933.924     8319.457     2112.129        5.079        0.668      295.332       48.953        0.027      335.677        6.468      864.089
10/03/2013  09:16:00       15.107      235.624      -18.940       50.951      120.178       58.995     2596.011    14442.735     3480.464        3.831        1.026      236.108       66.735        0.080      335.760        6.605      864.111
10/03/2013  09:17:00       -4.714      196.527       -9.560       73.802       84.010       56.345     5446.761     7057.691     3174.727        2.720        0.784      196.584       54.269        0.076      335.846        6.750      864.108
10/03/2013  09:18:00       22.693      149.009        8.890       66.142       97.102       65.384     4374.713     9428.845     4275.126        2.043        0.904      150.727       65.282        0.188      335.823        6.713      864.093
10/03/2013  09:19:00      -80.160      107.355      -22.903       62.990       60.093       39.931     3967.689     3611.173     1594.480        1.382        0.459      133.980       28.875        0.046      335.973        6.962      864.064
10/03/2013  09:20:00      -61.810      155.437      -11.566       44.212       83.863       36.780     1954.666     7032.950     1352.782        1.923        0.517      167.276       34.799        0.043      335.913        6.863      864.046
10/03/2013  09:21:00      -27.467       81.272       -4.833       37.831       58.962       36.327     1431.168     3476.488     1319.615        0.680        0.311       85.788       38.647        0.203      335.996        7.003      864.036
10/03/2013  09:22:00      -13.992      173.340       -2.533       51.834      119.942       50.077     2686.758    14386.141     2507.658        2.491        0.979      173.904       59.317        0.116      336.092        7.161      864.061
10/03/2013  09:23:00       -8.430      164.326       -1.421       43.784      104.768       48.920     1917.008    10976.435     2393.192        2.118        0.764      164.542       52.246        0.101      335.845        6.747      864.091
10/03/2013  09:24:00        3.687      200.212      -11.771       31.987       76.464       37.598     1023.164     5846.793     1413.585        2.426        0.414      200.246       40.957        0.042      335.657        6.435      864.097
10/03/2013  09:25:00       95.490      140.223      -11.033       59.478       67.053       38.518     3537.673     4496.163     1483.657        1.921        0.476      169.650       30.074        0.031      335.647        6.419      864.068
10/03/2013  09:26:00       66.206       41.563        3.813       46.059       43.333       31.750     2121.466     1877.787     1008.086        0.557        0.250       78.171       27.889        0.127      335.649        6.423      864.047
10/03/2013  09:27:00      -39.056       53.347      -20.390       35.181       43.711       28.789     1237.681     1910.681      828.797        0.438        0.199       66.116       18.140        0.075      335.822        6.713      864.059
10/03/2013  09:28:00       -6.952       45.264       27.974       36.986       33.332       33.142     1367.958     1111.027     1098.392        0.323        0.179       45.794       22.613        0.244      336.297        7.505      864.054
10/03/2013  09:29:00       12.523       44.680       24.053       55.258       72.790       37.745     3053.461     5298.450     1424.693        0.625        0.489       46.402       39.171        0.713      336.161        7.278      864.040
10/03/2013  09:30:00     -100.964       17.667       -5.268       71.702       33.164       33.572     5141.237     1099.833     1127.111        0.895        0.368      102.498       28.146        0.075      335.932        6.894      864.038
10/03/2013  09:31:00      -54.806      -14.807        1.726       45.383       18.735       20.130     2059.644      350.995      405.220        0.302        0.141       56.771       21.561        0.144      335.950        6.924      864.040
10/03/2013  09:32:00      -51.883      -38.489       -6.242       37.205       34.866       26.544     1384.218     1215.659      704.596        0.376        0.165       64.601       13.232        0.042      336.014        7.032      864.031
10/03/2013  09:33:00     -110.345      -30.045       -3.039       33.957       39.312       22.962     1153.073     1545.467      527.246        0.816        0.161      114.363       16.186        0.020      335.933        6.897      864.023
10/03/2013  09:34:00     -178.936       67.843      -20.929       60.267       84.848       34.263     3632.134     7199.155     1173.986        2.453        0.600      191.365       37.515        0.038      335.749        6.587      864.009
10/03/2013  09:35:00      -84.899       55.837      -11.111       66.416       45.539       31.356     4411.094     2073.779      983.195        0.896        0.373      101.615       36.774        0.131      335.910        6.859      863.989
10/03/2013  09:36:00      -33.017      -30.140        7.737       61.774       52.368       33.115     3816.006     2742.404     1096.589        0.486        0.383       44.705       27.357        0.374      336.052        7.094      863.976
10/03/2013  09:37:00     -137.829      -74.659        0.288       80.163       82.432       47.994     6426.097     6794.992     2303.471        2.004        0.776      156.751       42.041        0.072      335.827        6.718      864.009
10/03/2013  09:38:00     -194.942     -103.338      -12.223      110.410       72.047       47.060    12190.330     5190.777     2214.631        3.421        0.980      220.638       47.922        0.047      335.848        6.752      864.050
10/03/2013  09:39:00     -150.046      -36.889      -25.161       67.768       36.415       29.304     4592.482     1326.017      858.714        1.564        0.339      154.514       21.834        0.020      335.698        6.504      864.115
10/03/2013  09:40:00      -93.362      -53.339       -4.256       50.013       32.769       23.861     2501.332     1073.780      569.352        0.786        0.207      107.525       17.826        0.027      335.772        6.629      864.123
10/03/2013  09:41:00     -120.911      -27.490      -15.271       29.510       31.478       17.097      870.852      990.858      292.311        0.888        0.108      123.997        8.386        0.005      335.632        6.395      864.105
10/03/2013  09:42:00      -45.403      -14.177        5.328       49.770       31.067       27.318     2477.093      965.159      746.283        0.324        0.209       47.565       25.859        0.296      336.331        7.561      864.093
10/03/2013  09:43:00       -3.821       -2.963       10.626       34.026       40.107       27.452     1157.741     1608.568      753.629        0.183        0.176        4.835       23.362       23.347      336.438        7.740      864.096
10/03/2013  09:44:00     -116.105      -73.974       -4.071       65.409       65.498       32.513     4278.320     4289.939     1057.091        1.430        0.481      137.668       21.939        0.025      336.053        7.093      864.130
10/03/2013  09:45:00      -45.677       12.345        8.601       50.496       67.005       35.577     2549.805     4489.650     1265.750        0.531        0.415       47.316       29.523        0.389      336.416        7.703      864.125
10/03/2013  09:46:00      -45.218       44.113        4.457       67.966       64.700       42.194     4619.429     4186.152     1780.315        0.730        0.529       63.171       53.136        0.708      336.232        7.395      864.130
10/03/2013  09:47:00       30.086      -11.422       -3.022       57.914       47.177       33.493     3354.082     2225.641     1121.784        0.387        0.335       32.181       22.611        0.494      336.692        8.164      864.119
10/03/2013  09:48:00       34.442       67.924       45.351       78.349       65.005       51.720     6138.613     4225.680     2674.999        1.045        0.652       76.157       37.542        0.243      336.994        8.668      864.153
10/03/2013  09:49:00       88.702       52.468       18.394      115.694       65.224       55.138    13385.010     4254.126     3040.203        1.582        1.034      103.058       52.671        0.261      336.464        7.783      864.167
10/03/2013  09:50:00       47.657      173.661      -15.002       66.075      106.059       58.571     4365.891    11248.416     3430.600        2.585        0.952      180.082       52.493        0.085      336.144        7.246      864.201
10/03/2013  09:51:00       14.083      108.711       -6.807       55.661       79.234       44.840     3098.156     6278.060     2010.611        1.172        0.569      109.619       48.340        0.194      336.326        7.553      864.198
10/03/2013  09:52:00      -22.602       79.956       -0.408       56.508       63.245       35.168     3193.107     3999.950     1236.799        0.767        0.421       83.090       24.912        0.090      336.180        7.308      864.178
10/03/2013  09:53:00      -85.308      134.763       -7.263       76.322       80.140       42.652     5824.993     6422.472     1819.176        1.978        0.703      159.494       42.658        0.072      336.400        7.674      864.186
10/03/2013  09:54:00     -107.251      126.093       -3.734       99.650       77.747       47.229     9930.168     6044.529     2230.585        2.281        0.910      165.536       45.326        0.075      336.383        7.647      864.213
10/03/2013  09:55:00      -53.519       33.402       25.005       71.320       51.863       35.944     5086.553     2689.812     1291.980        0.683        0.453       63.087       36.635        0.337      336.959        8.611      864.206
10/03/2013  09:56:00      -70.218       83.029       -3.839       62.623       92.295       49.830     3921.642     8518.277     2483.013        1.338        0.746      108.740       31.323        0.083      336.545        7.918      864.224
10/03/2013  09:57:00      -34.892       11.529        6.790       51.734       42.243       35.233     2676.452     1784.487     1241.339        0.355        0.285       36.748       33.958        0.854      336.913        8.533      864.209
10/03/2013  09:58:00       -6.398       50.397      -21.695       65.534       51.430       30.965     4294.661     2645.048      958.829        0.547        0.395       50.801       25.581        0.254      336.340        7.576      864.190
10/03/2013  09:59:00      -54.053      125.478      -11.626       56.948       51.278       27.667     3243.065     2629.397      765.461        1.272        0.332      136.625       19.818        0.021      336.626        8.053      864.185
10/03/2013  10:00:00       -4.635       60.832       22.619       30.441       59.584       32.632      926.644     3550.207     1064.868        0.489        0.277       61.008       34.944        0.328      337.062        8.783      864.186
10/03/2013  10:01:00      -16.365      271.805      -25.917       76.221      113.467       59.164     5809.656    12874.852     3500.380        4.850        1.109      272.298       57.203        0.044      336.507        7.850      864.187
10/03/2013  10:02:00      -35.277      206.003       -3.843       43.448       99.762       40.158     1887.767     9952.430     1612.684        2.857        0.673      209.002       39.485        0.036      336.870        8.461      864.203
10/03/2013  10:03:00     -155.534      195.124      -33.577       77.865      109.610       60.151     6062.984    12014.364     3618.175        4.254        1.085      249.528       51.954        0.043      336.542        7.910      864.215
10/03/2013  10:04:00     -118.213      160.251      -23.277       61.513      135.937       45.877     3783.877    18478.759     2104.667        3.228        1.218      199.135       40.193        0.041      336.573        7.962      864.225
10/03/2013  10:05:00      -70.072      195.857       -8.014       66.686      106.503       51.426     4447.009    11342.931     2644.670        3.088        0.922      208.014       44.526        0.046      336.831        8.394      864.282
10/03/2013  10:06:00        1.097      204.210       -9.762       78.342      106.964       53.005     6137.466    11441.345     2809.490        3.109        1.019      204.213       53.439        0.068      336.705        8.183      864.324
10/03/2013  10:07:00       -7.526      291.489      -41.547       53.137       86.735       39.173     2823.540     7523.008     1534.560        4.931        0.594      291.586       43.119        0.022      336.410        7.689      864.325
10/03/2013  10:08:00       34.522      234.591      -20.985      123.194       99.345       56.502    15176.744     9869.333     3192.436        4.245        1.412      237.118       53.288        0.051      336.820        8.375      864.331
10/03/2013  10:09:00      130.816      137.199       10.186      122.663       78.100       62.562    15046.328     6099.651     3914.001        3.054        1.253      189.569       42.121        0.049      336.758        8.272      864.371
10/03/2013  10:10:00       31.155      145.592      -16.608       66.766       79.354       46.186     4457.653     6297.081     2133.142        1.766        0.644      148.888       49.508        0.111      336.449        7.757      864.388
10/03/2013  10:11:00       72.554       82.438        8.568       65.000       58.502       45.970     4225.045     3422.516     2113.201        1.095        0.488      109.819       34.348        0.098      336.681        8.146      864.376
10/03/2013  10:12:00       98.244      110.314        1.459       55.681       71.233       43.929     3100.330     5074.073     1929.784        1.596        0.505      147.719       41.100        0.077      336.643        8.080      864.363
10/03/2013  10:13:00       84.080      112.921      -10.001       51.604       54.940       46.604     2662.986     3018.397     2171.952        1.389        0.393      140.786       39.128        0.077      336.805        8.352      864.360
10/03/2013  10:14:00       50.294      125.279       -9.468       76.918       95.014       56.657     5916.316     9027.746     3210.023        1.823        0.908      134.997       26.163        0.038      336.854        8.434      864.357
10/03/2013  10:15:00     -176.345      169.996      -27.164      143.854       95.309       76.561    20693.862     9083.834     5861.555        4.818        1.782      244.941       84.100        0.118      336.767        8.289      864.340
10/03/2013  10:16:00      104.848      166.461        5.095      203.464      106.053       90.336    41397.717    11247.216     8160.504        4.975        3.040      196.729       86.196        0.192      336.899        8.509      864.358
10/03/2013  10:17:00      276.011      185.290       24.116      128.362       71.274       66.810    16476.784     5080.003     4463.565        6.855        1.301      332.437       46.978        0.020      336.529        7.889      864.385
10/03/2013  10:18:00      159.884      125.124       26.392      101.767       77.783       68.662    10356.527     6050.131     4714.504        3.151        1.056      203.025       39.098        0.037      336.773        8.297      864.378
10/03/2013  10:19:00       -3.291      123.757       -6.032      107.887       98.184       66.904    11639.602     9640.036     4476.168        2.055        1.288      123.801       59.486        0.231      336.929        8.560      864.403
10/03/2013  10:20:00      -74.778      181.740       -9.719       79.112       95.812       50.520     6258.748     9179.982     2552.310        2.835        0.900      196.523       53.320        0.074      336.935        8.570      864.444
10/03/2013  10:21:00       39.187       63.696       10.431       80.949      104.185       58.278     6552.763    10854.552     3396.315        1.325        1.040       74.785       50.756        0.461      337.023        8.718      864.468
10/03/2013  10:22:00      -32.208       96.334      -13.536       76.094       94.316       36.057     5790.361     8895.572     1300.117        1.324        0.799      101.576       29.094        0.082      336.833        8.399      864.457
10/03/2013  10:23:00       14.366      129.798       -7.906       51.251       70.986       39.939     2626.700     5038.989     1595.122        1.319        0.463      130.591       43.958        0.113      337.238        9.078      864.449
10/03/2013  10:24:00       59.736      157.308      -15.065       68.572      112.256       51.442     4702.154    12601.387     2646.273        2.424        0.997      168.268       44.418        0.070      337.193        9.001      864.451
10/03/2013  10:25:00       20.025      168.890       15.223      103.261      111.318       60.492    10662.923    12391.604     3659.291        2.793        1.336      170.073       63.347        0.139      337.186        8.990      864.469
10/03/2013  10:26:00      272.529      174.753       96.851      168.589      107.779      124.331    28422.282    11616.229    15458.231        8.483        2.775      323.745      108.891        0.113      336.870        8.458      864.449
10/03/2013  10:27:00      297.340      160.946       31.635      131.724       85.199       74.936    17351.126     7258.946     5615.371        7.276        1.511      338.104       49.353        0.021      336.590        7.991      864.489
10/03/2013  10:28:00      198.092      143.265       39.795      102.474       82.720       53.108    10500.915     6842.629     2820.409        4.075        1.008      244.469       24.358        0.010      336.896        8.502      864.483
10/03/2013  10:29:00      167.583      144.633       56.254      123.477       68.197       69.588    15246.592     4650.806     4842.453        3.845        1.237      221.365       77.188        0.122      336.984        8.651      864.465
10/03/2013  10:30:00       98.825       74.466       32.300       89.858       57.523       46.911     8074.522     3308.948     2200.606        1.497        0.679      123.740       33.862        0.075      336.931        8.564      864.469
10/03/2013  10:31:00       59.404       95.582       16.639       99.954       89.409       60.901     9990.883     7993.910     3708.971        1.731        1.085      112.538       58.515        0.270      336.934        8.567      864.479
10/03/2013  10:32:00      115.011       97.679       13.947       82.798       56.625       45.183     6855.428     3206.390     2041.506        1.753        0.605      150.893       30.889        0.042      336.668        8.123      864.511
10/03/2013  10:33:00       57.452      114.943       -6.648       57.909       67.470       50.737     3353.405     4552.212     2574.281        1.352        0.524      128.502       39.790        0.096      336.597        8.006      864.531
10/03/2013  10:34:00       74.384       67.868        4.209       58.449       68.860       48.530     3416.293     4741.699     2355.199        1.033        0.526      100.693       42.214        0.176      336.582        7.981      864.527
10/03/2013  10:35:00       48.467       33.979       13.129       55.895       39.172       38.541     3124.234     1534.476     1485.414        0.491        0.307       59.191       28.754        0.236      336.687        8.156      864.524
10/03/2013  10:36:00       -2.101       76.567       -2.845       61.617       95.892       31.494     3796.692     9195.204      991.855        0.993        0.699       76.596       42.313        0.305      336.782        8.313      864.500
10/03/2013  10:37:00      -33.844      181.063      -22.746       42.266       58.315       32.092     1786.393     3400.674     1029.889        2.033        0.311      184.199       33.696        0.033      336.604        8.018      864.489
10/03/2013  10:38:00       -2.243      240.580      -25.585       45.125       63.437       37.346     2036.311     4024.257     1394.735        3.300        0.373      240.591       32.993        0.019      336.719        8.207      864.469
10/03/2013  10:39:00        6.470      190.557       -5.448       48.789      111.521       52.950     2380.335    12436.932     2803.706        2.700        0.881      190.667       57.032        0.089      336.717        8.205      864.471
10/03/2013  10:40:00       21.253      207.680       -6.045       55.638      102.959       60.011     3095.592    10600.486     3601.297        3.045        0.865      208.764       66.032        0.100      336.481        7.809      864.461
10/03/2013  10:41:00      -25.622      282.156      -31.870       53.697       88.346       35.170     2883.399     7805.086     1236.937        4.660        0.596      283.317       43.176        0.023      336.194        7.328      864.490
10/03/2013  10:42:00     -114.125      105.384      -21.572       52.191       52.554       31.317     2723.852     2761.914      980.778        1.553        0.323      155.339       26.664        0.029      336.369        7.624      864.500
10/03/2013  10:43:00      -97.837       62.834      -16.021       41.889       31.330       21.045     1754.708      981.584      442.882        0.848        0.159      116.276       11.811        0.010      336.390        7.660      864.480
10/03/2013  10:44:00      -24.499       10.262       15.713       65.994       26.719       26.642     4355.180      713.885      709.783        0.336        0.289       26.562       21.947        0.683      336.658        8.108      864.441
10/03/2013  10:45:00       86.919      124.482       86.556       69.176       56.860       47.882     4785.377     3233.069     2292.675        2.042        0.516      151.825       42.750        0.079      336.837        8.405      864.421
10/03/2013  10:46:00      -47.059       97.814       14.516      114.187       55.846       59.355    13038.572     3118.821     3523.057        1.583        0.984      108.545       74.302        0.469      336.801        8.346      864.422
10/03/2013  10:47:00       13.993      199.444      -32.148       84.145       76.448       43.041     7080.431     5844.275     1852.528        2.789        0.739      199.934       41.935        0.044      337.130        8.894      864.431
10/03/2013  10:48:00      -94.063      234.792      -25.145      134.936      115.069       67.392    18207.737    13240.823     4541.724        5.029        1.800      252.933       77.701        0.094      336.831        8.395      864.449
10/03/2013  10:49:00     -133.942      251.264      -32.638       70.632       89.431       43.410     4988.883     7997.826     1884.449        4.850        0.744      284.735       50.487        0.031      336.411        7.690      864.475
10/03/2013  10:50:00      -78.002      135.349      -14.500       79.204       71.807       38.148     6273.262     5156.206     1455.259        1.875        0.644      156.216       36.795        0.055      336.627        8.054      864.474
10/03/2013  10:51:00      -45.825       65.965       11.879       42.324       65.642       39.418     1791.327     4308.887     1553.773        0.712        0.383       80.320       37.548        0.219      336.957        8.608      864.481
10/03/2013  10:52:00      -49.008      122.214        2.867      121.314      108.829       50.921    14717.206    11843.676     2592.991        2.324        1.458      131.674       49.257        0.140      336.949        8.592      864.518
10/03/2013  10:53:00      129.240      221.966       15.564      164.279      146.618       86.183    26987.659    21496.798     7427.492        6.105        2.796      256.850       94.679        0.136      336.775        8.300      864.534
10/03/2013  10:54:00      -69.275      383.897      -52.326       66.291      127.162       50.954     4394.474    16170.260     2596.350        8.903        1.158      390.098       57.478        0.022      336.406        7.681      864.549
10/03/2013  10:55:00       67.838      199.127      -26.802       57.732       98.899       57.581     3333.025     9781.045     3315.526        3.070        0.821      210.365       58.036        0.076      336.637        8.070      864.511
10/03/2013  10:56:00       49.215      126.092        3.628       87.415      106.444       59.707     7641.457    11330.362     3564.889        2.043        1.127      135.356       60.228        0.198      336.897        8.506      864.492
10/03/2013  10:57:00      -22.903      125.374       13.895      105.642      106.896       52.057    11160.244    11426.767     2709.914        2.086        1.265      127.449       50.355        0.156      336.901        8.512      864.481
10/03/2013  10:58:00       54.405      100.293        2.328       95.201       73.089       56.197     9063.323     5341.963     3158.107        1.529        0.878      114.099       52.671        0.213      336.756        8.270      864.478
10/03/2013  10:59:00       46.354      153.084       -6.392       91.334       85.896       61.557     8341.896     7378.075     3789.237        2.256        0.975      159.948       47.951        0.090      336.985        8.652      864.493
10/03/2013  11:00:00       94.541      143.902       -2.112       91.339       72.975       68.843     8342.778     5325.317     4739.382        2.403        0.920      172.179       45.470        0.070      336.669        8.123      864.545
10/03/2013  11:01:00       -1.287      271.629      -28.683       52.022       90.094       42.899     2706.300     8116.843     1840.346        4.363        0.633      271.632       46.784        0.030      336.466        7.783      864.542
10/03/2013  11:02:00      -17.093       93.944        9.306       84.714       84.110       64.182     7176.497     7074.544     4119.340        1.378        0.919       95.487       61.388        0.413      336.879        8.476      864.512
10/03/2013  11:03:00      -26.708      175.517      -11.917       49.861       72.432       37.588     2486.089     5246.418     1412.847        2.040        0.457      177.537       35.451        0.040      336.781        8.312      864.470
10/03/2013  11:04:00      -91.211      182.876       -9.307       72.487       80.419       48.550     5254.355     6467.250     2357.123        2.796        0.704      204.360       46.557        0.052      336.917        8.538      864.434
10/03/2013  11:05:00       13.942      106.272       18.868       66.182       95.906       54.496     4380.085     9198.043     2969.777        1.419        0.827      107.182       58.126        0.294      337.348        9.260      864.430
10/03/2013  11:06:00       -5.788      223.391      -24.144       49.079      110.214       39.703     2408.777    12147.039     1576.296        3.332        0.807      223.466       50.538        0.051      336.718        8.204      864.477
10/03/2013  11:07:00      -46.738       84.080       -7.843       62.170       70.328       36.618     3865.110     4946.068     1340.863        0.973        0.508       96.197       30.257        0.099      337.038        8.743      864.483
10/03/2013  11:08:00       27.157       39.256       13.281       59.270       41.306       37.996     3512.930     1706.146     1443.726        0.456        0.333       47.734       18.105        0.144      337.371        9.301      864.508
10/03/2013  11:09:00      -19.844      205.597      -15.036       51.557       99.020       37.909     2658.175     9805.006     1437.111        2.839        0.695      206.552       49.481        0.057      337.197        9.006      864.536
10/03/2013  11:10:00      -21.231      204.211       -7.524       81.103      122.858       55.588     6577.646    15093.969     3089.995        3.348        1.238      205.312       65.162        0.101      337.462        9.450      864.586
10/03/2013  11:11:00      114.591      114.105       18.685       73.714       71.685       57.913     5433.786     5138.752     3353.877        2.021        0.696      161.713       36.710        0.052      337.267        9.124      864.594
10/03/2013  11:12:00       28.665      127.031       10.241       82.030       73.858       55.576     6728.971     5454.967     3088.735        1.616        0.764      130.225       43.710        0.113      337.044        8.752      864.579
10/03/2013  11:13:00      -11.002      171.655      -23.525       33.268       61.188       28.047     1106.739     3743.936      786.639        1.789        0.282      172.008       27.664        0.026      336.769        8.291      864.570
10/03/2013  11:14:00       58.939      105.228      -14.264       74.529       55.257       39.220     5554.575     3053.358     1538.243        1.245        0.507      120.610       21.742        0.032      337.257        9.109      864.572
10/03/2013  11:15:00      115.735      152.398       -7.748      100.578       92.881       61.112    10115.954     8626.852     3734.640        2.957        1.124      191.363       40.520        0.045      337.113        8.865      864.595
10/03/2013  11:16:00      342.701      229.261       22.367      115.722       80.421       75.640    13391.479     6467.528     5721.457        9.804        1.279      412.316       46.103        0.013      336.851        8.427      864.583
10/03/2013  11:17:00      153.573      153.451       24.003      136.871       81.726       82.920    18733.664     6679.196     6875.778        3.999        1.614      217.099       12.319        0.003      337.211        9.030      864.556
10/03/2013  11:18:00      203.450      124.197       18.200       71.465       48.501       54.570     5107.246     2352.352     2977.840        3.379        0.522      238.363       27.294        0.013      336.955        8.601      864.561
10/03/2013  11:19:00      155.575      100.670       21.152       88.817       57.486       52.889     7888.486     3304.637     2797.254        2.439        0.700      185.305       40.885        0.049      337.126        8.888      864.550
10/03/2013  11:20:00       89.578      143.178        2.936      122.724       76.953       60.134    15061.281     5921.750     3616.043        2.656        1.230      168.891       43.564        0.067      337.214        9.035      864.546
10/03/2013  11:21:00       65.328      191.750        5.768       88.206      185.772       79.486     7780.359    34511.331     6317.978        4.483        2.430      202.573       95.374        0.222      337.415        9.371      864.535
10/03/2013  11:22:00      165.780      164.711        8.297      118.144       77.514       65.593    13957.887     6008.379     4302.468        3.947        1.213      233.694       55.989        0.057      337.149        8.924      864.536
10/03/2013  11:23:00      -36.971      323.073      -27.332       81.919      114.155       50.604     6710.778    13031.254     2560.733        6.439        1.115      325.181       57.070        0.031      336.793        8.329      864.527
10/03/2013  11:24:00       55.841      136.937      -13.034       69.693       90.186       42.598     4857.115     8133.502     1814.621        1.842        0.740      147.885       31.688        0.046      336.983        8.651      864.510
10/03/2013  11:25:00      120.029       95.623       25.910      104.129       68.827       43.645    10842.819     4737.144     1904.881        2.085        0.874      153.463       27.324        0.032      337.122        8.884      864.475
10/03/2013  11:26:00      152.842      131.346       30.564      107.430       93.174       71.780    11541.265     8681.304     5152.375        3.346        1.269      201.525       56.701        0.079      337.149        8.926      864.454
10/03/2013  11:27:00      178.455      126.671       19.970      106.140       81.099       65.783    11265.778     6577.091     4327.392        3.523        1.109      218.842       48.200        0.049      337.208        9.024      864.474
10/03/2013  11:28:00      109.507      144.342        9.814      107.973       91.998       75.245    11658.256     8463.699     5661.862        2.935        1.289      181.181       63.557        0.123      337.264        9.119      864.499
10/03/2013  11:29:00       92.599       80.469       23.443      107.988       52.175       51.908    11661.509     2722.239     2694.404        1.634        0.854      122.678       27.602        0.051      337.367        9.293      864.494
10/03/2013  11:30:00       40.586      138.105       -6.632       69.432       71.728       51.924     4820.842     5144.889     2696.069        1.671        0.633      143.945       44.560        0.096      337.095        8.838      864.489
10/03/2013  11:31:00      -27.555      138.708        7.289       53.489       88.944       41.332     2861.117     7911.046     1708.296        1.626        0.624      141.419       43.614        0.095      337.533        9.572      864.454
10/03/2013  11:32:00       45.348       87.041       14.439       58.130       65.588       44.685     3379.128     4301.743     1996.718        0.976        0.484       98.146       39.597        0.163      337.691        9.837      864.424
10/03/2013  11:33:00      221.713      125.470        0.095      106.013       92.506       58.079    11238.708     8557.303     3373.161        4.403        1.158      254.754       16.098        0.004      337.458        9.444      864.424
10/03/2013  11:34:00      167.540       81.867       52.294      107.818       96.762       69.888    11624.797     9362.821     4884.283        3.168        1.294      186.472       46.199        0.061      337.163        8.949      864.397
10/03/2013  11:35:00       81.339       44.759       30.493       86.130       75.626       56.107     7418.419     5719.237     3148.024        1.291        0.814       92.841       42.349        0.208      337.783        9.990      864.382
10/03/2013  11:36:00       92.254      272.570      -17.962      138.314      155.331       77.181    19130.726    24127.735     5956.966        6.616        2.461      287.759       91.426        0.101      337.383        9.316      864.421
10/03/2013  11:37:00        3.093      345.467      -39.140      105.050      153.124       76.222    11035.501    23447.002     5809.734        8.058        2.015      345.481       81.640        0.056      337.114        8.868      864.459
10/03/2013  11:38:00      113.825      142.976        2.409       90.647       86.815       70.306     8216.884     7536.871     4942.898        2.705        1.035      182.751       56.169        0.094      337.104        8.851      864.489
10/03/2013  11:39:00      146.363      111.700       34.157      100.566       75.950       68.058    10113.614     5768.352     4631.902        2.779        1.026      184.117       46.684        0.064      337.526        9.557      864.477
10/03/2013  11:40:00      113.034      101.293       21.444      119.748       94.393       71.831    14339.663     8909.944     5159.701        2.595        1.420      151.779       58.061        0.146      337.527        9.560      864.509
10/03/2013  11:41:00      139.336      137.477       13.907       98.911       77.000       78.267     9783.305     5928.935     6125.691        3.017        1.092      195.741       56.446        0.083      336.996        8.671      864.549
10/03/2013  11:42:00      110.667      106.326        1.464       71.606       59.559       58.585     5127.383     3547.301     3432.224        1.783        0.605      153.468       36.866        0.058      336.835        8.401      864.553
10/03/2013  11:43:00       27.909       21.379       11.884       36.360       36.531       26.620     1322.078     1334.492      708.631        0.237        0.168       35.156       16.086        0.209      337.201        9.016      864.541
10/03/2013  11:44:00       98.030      122.118       28.224      112.189       89.105       63.652    12586.314     7939.620     4051.569        2.494        1.229      156.597       50.178        0.103      337.456        9.440      864.525
10/03/2013  11:45:00      -30.774      236.906      -20.425       70.513      132.096       50.025     4972.097    17449.348     2502.499        4.120        1.246      238.896       63.757        0.071      337.117        8.873      864.554
10/03/2013  11:46:00       55.202      214.385      -16.367       81.731       97.629       56.460     6680.020     9531.372     3187.712        3.433        0.970      221.378       62.380        0.079      337.214        9.034      864.540
10/03/2013  11:47:00      166.603      134.350       17.475      103.541       82.224       52.169    10720.725     6760.868     2721.577        3.315        1.010      214.024       35.181        0.027      337.271        9.130      864.542
10/03/2013  11:48:00       68.154      113.785      106.461       87.179       61.887       58.038     7600.246     3829.955     3368.415        2.186        0.740      132.635       44.884        0.115      337.441        9.415      864.560
10/03/2013  11:49:00       23.877      103.304      133.648       71.932       92.050       73.910     5174.198     8473.139     5462.754        2.410        0.956      106.027       73.992        0.487      337.540        9.581      864.575
10/03/2013  11:50:00       75.995      -95.125        7.787       57.523       84.097       52.016     3308.950     7072.373     2705.638        1.398        0.654      121.754       55.543        0.208      337.207        9.024      864.567
10/03/2013  11:51:00       74.643     -141.603        0.104       78.455      108.242       45.393     6155.113    11716.377     2060.530        2.277        0.997      160.072       46.409        0.084      337.439        9.412      864.540
10/03/2013  11:52:00       61.694      140.083      126.127       84.001       94.489       76.374     7056.145     8928.265     5832.941        3.057        1.091      153.066       71.370        0.217      337.567        9.626      864.541
10/03/2013  11:53:00      192.403      151.490       86.030       96.484       96.507       85.410     9309.203     9313.678     7294.846        4.664        1.296      244.884       69.814        0.081      336.886        8.485      864.553
10/03/2013  11:54:00      138.157       83.729       56.807      102.604       83.936       73.175    10527.484     7045.321     5354.530        2.612        1.146      161.548       55.176        0.117      337.339        9.245      864.539
10/03/2013  11:55:00      240.321      184.687       17.987       99.558       69.115       55.085     9911.852     4776.927     3034.352        5.495        0.886      303.089       29.240        0.009      336.853        8.432      864.554
10/03/2013  11:56:00      165.405      105.203       33.125       84.498       68.751       58.633     7139.921     4726.700     3437.874        2.741        0.765      196.027       41.424        0.045      337.142        8.915      864.536
10/03/2013  11:57:00      203.943      129.206       36.484       66.537       64.627       53.715     4427.110     4176.650     2885.334        3.555        0.574      241.427       43.053        0.032      337.176        8.971      864.534
10/03/2013  11:58:00      109.736       48.850       18.875       60.911       50.327       49.188     3710.098     2532.826     2419.431        1.172        0.433      120.118       33.096        0.076      337.054        8.769      864.535
10/03/2013  11:59:00      138.420      104.744       23.031       68.055       51.528       52.324     4631.467     2655.156     2737.810        2.034        0.501      173.584       29.096        0.028      337.295        9.171      864.543
10/03/2013  12:00:00      219.399       96.293       12.369      102.000       74.072       55.251    10404.079     5486.640     3052.694        3.825        0.947      239.600       31.241        0.017      337.245        9.086      864.541
10/03/2013  12:01:00       53.251      107.711      106.757       67.703       85.114       77.785     4583.709     7244.441     6050.581        2.185        0.894      120.155       71.890        0.358      337.313        9.204      864.547
10/03/2013  12:02:00       43.615       42.380       20.932       48.328       59.156       29.713     2335.588     3499.396      882.853        0.543        0.336       60.814       20.470        0.113      337.521        9.552      864.541
10/03/2013  12:03:00      232.133      136.446       23.835       98.104       63.138       59.931     9624.301     3986.367     3591.704        4.513        0.860      269.264       39.150        0.021      337.496        9.507      864.523
10/03/2013  12:04:00      119.284      138.858       36.780      155.399      106.520       84.700    24148.818    11346.615     7174.031        3.876        2.133      183.058       28.635        0.024      337.659        9.780      864.542
10/03/2013  12:05:00      189.102      142.248       35.134      100.991       75.022       83.687    10199.098     5628.330     7003.570        4.003        1.142      236.631       44.265        0.035      337.686        9.825      864.568
10/03/2013  12:06:00        1.626      130.439       -9.562       81.651       99.825       60.717     6666.884     9964.995     3686.541        1.871        1.016      130.449       50.917        0.152      337.826       10.061      864.592
10/03/2013  12:07:00       -0.403      157.622       -8.320       72.511       73.684       40.341     5257.895     5429.373     1627.403        1.861        0.616      157.622       39.450        0.063      337.552        9.602      864.596
10/03/2013  12:08:00      143.684      165.908       16.941      119.863      121.926       85.070    14367.090    14865.877     7236.935        4.246        1.823      219.478       71.796        0.107      337.624        9.721      864.625
10/03/2013  12:09:00      136.743      134.930       17.528      129.521      115.461       80.182    16775.747    13331.342     6429.219        3.687        1.827      192.106       60.190        0.098      337.604        9.687      864.625
10/03/2013  12:10:00      148.988      163.216       12.873      142.394      134.897       79.134    20275.937    18197.324     6262.123        4.686        2.237      220.991       73.356        0.110      337.653        9.771      864.625
10/03/2013  12:11:00      170.995      113.594       35.134      141.478       82.377       71.402    20016.083     6785.901     5098.233        3.763        1.595      205.287       31.855        0.024      337.518        9.544      864.631
10/03/2013  12:12:00      224.265      141.417       30.761      113.879       70.830       65.162    12968.411     5016.848     4246.114        4.673        1.112      265.130       42.719        0.026      337.398        9.341      864.598
10/03/2013  12:13:00      186.938       95.812       32.853       70.804       70.018       68.305     5013.192     4902.474     4665.571        2.989        0.729      210.062       22.932        0.012      337.682        9.818      864.571
10/03/2013  12:14:00      236.595      142.810       31.855       94.207       72.404       61.267     8874.952     5242.277     3753.639        4.763        0.894      276.354       32.471        0.014      337.400        9.344      864.568
10/03/2013  12:15:00      206.315      164.246       16.268      121.723       94.515       76.394    14816.593     8933.102     5835.987        4.969        1.479      263.710       53.431        0.041      337.312        9.198      864.572
10/03/2013  12:16:00      239.631      154.904       30.629       98.704       84.025       79.196     9742.496     7060.233     6272.053        5.271        1.154      285.339       41.793        0.021      337.388        9.324      864.557
10/03/2013  12:17:00      114.416      155.977        2.524      102.487       87.496       60.216    10503.542     7655.619     3625.993        2.960        1.089      193.442       54.073        0.078      337.582        9.651      864.563
10/03/2013  12:18:00       69.045      112.974      -11.129       56.843       72.720       38.211     3231.156     5288.225     1460.107        1.381        0.499      132.402       40.389        0.093      337.899       10.185      864.566
10/03/2013  12:19:00      205.566      215.100       19.464      148.190      135.855      114.450    21960.348    18456.572    13098.785        7.120        2.676      297.532       79.254        0.071      337.701        9.850      864.556
10/03/2013  12:20:00        0.417      464.575      -58.142      116.914      176.661       64.336    13668.960    31209.058     4139.144       13.410        2.451      464.575       83.889        0.033      337.403        9.351      864.571
10/03/2013  12:21:00       -8.551      313.385      -28.863       71.695       74.753       47.809     5140.135     5587.984     2285.731        5.606        0.651      313.502       40.744        0.017      337.344        9.250      864.607
10/03/2013  12:22:00     -111.212      394.895      -48.191       80.413      135.722       49.966     6466.209    18420.458     2496.646        9.900        1.369      410.256       54.970        0.018      337.302        9.181      864.598
10/03/2013  12:23:00     -111.625      196.480      -17.760       84.631       98.962       62.156     7162.359     9793.531     3863.379        3.610        1.041      225.975       50.372        0.050      337.589        9.664      864.579
10/03/2013  12:24:00      -48.849       45.355       -4.724       78.258       61.515       36.180     6124.373     3784.121     1308.964        0.784        0.561       66.658       48.716        0.534      337.406        9.358      864.551
10/03/2013  12:25:00      124.020       98.080       17.592      127.208       81.120       65.074    16181.948     6580.526     4234.679        2.615        1.350      158.116       39.203        0.061      337.628        9.729      864.532
10/03/2013  12:26:00      240.782      147.219       12.168      115.778       77.057       71.291    13404.623     5937.707     5082.404        5.211        1.221      282.222       56.849        0.041      337.203        9.014      864.510
10/03/2013  12:27:00       50.349       74.843       65.625       65.754       49.781       53.412     4323.610     2478.143     2852.856        1.105        0.483       90.202       33.825        0.141      338.051       10.439      864.466
10/03/2013  12:28:00       69.284       59.815        1.265       99.309       69.014       40.376     9862.294     4762.867     1630.206        1.231        0.813       91.532       28.883        0.100      338.111       10.540      864.475
10/03/2013  12:29:00       43.435       72.040       12.852       98.858       55.682       57.136     9772.884     3100.495     3264.523        1.169        0.807       84.121       38.432        0.209      337.981       10.322      864.485
10/03/2013  12:30:00      -16.331      101.557      -16.039       59.585       45.679       37.129     3550.351     2086.545     1378.549        0.893        0.351      102.862       37.200        0.131      337.635        9.742      864.448
10/03/2013  12:31:00      -28.452      166.886       -5.509       55.688       94.837       43.043     3101.198     8994.121     1852.676        2.132        0.697      169.294       50.827        0.090      337.633        9.739      864.428
10/03/2013  12:32:00       25.899       56.807        4.718       31.615       50.935       40.430      999.518     2594.340     1634.574        0.457        0.261       62.432       32.882        0.277      337.408        9.362      864.393
10/03/2013  12:33:00       49.191      161.621        0.196       66.008       82.923       56.988     4357.069     6876.174     3247.682        2.151        0.724      168.941       51.586        0.093      337.543        9.587      864.400
10/03/2013  12:34:00       66.297      114.309        2.016       64.429       89.091       63.130     4151.158     7937.166     3985.453        1.677        0.804      132.143       49.228        0.139      337.547        9.593      864.376
10/03/2013  12:35:00      -77.538      151.933      -31.371       47.894       78.601       30.161     2293.805     6178.049      909.714        1.973        0.469      170.575       24.530        0.021      337.259        9.112      864.351
10/03/2013  12:36:00       -8.715      123.778        2.763       70.783       68.736       44.195     5010.183     4724.646     1953.227        1.354        0.584      124.084       48.720        0.154      337.457        9.443      864.320
10/03/2013  12:37:00      129.726       72.748       38.097       58.090       56.070       55.120     3374.483     3143.801     3038.166        1.656        0.478      148.732       28.613        0.037      337.421        9.381      864.264
10/03/2013  12:38:00       49.135      170.937        5.630       96.127       83.780       52.605     9240.373     7019.061     2767.275        2.534        0.951      177.859       46.438        0.068      337.564        9.620      864.230
10/03/2013  12:39:00       48.116      138.309       -7.962       70.926       81.087       49.792     5030.530     6575.167     2479.213        1.779        0.704      146.439       49.673        0.115      337.627        9.728      864.245
10/03/2013  12:40:00        1.711      216.837      -30.244       79.298      114.815       53.500     6288.152    13182.526     2862.223        3.513        1.117      216.844       56.095        0.067      337.487        9.492      864.252
10/03/2013  12:41:00      -58.551       21.331      -36.018       33.354       80.943       22.251     1112.522     6551.850      495.102        0.667        0.408       62.316       19.809        0.101      337.261        9.115      864.234
10/03/2013  12:42:00      -37.768       59.537        8.136       42.579       49.368       31.500     1812.997     2437.185      992.237        0.514        0.262       70.506       16.853        0.057      338.081       10.491      864.207
10/03/2013  12:43:00      -45.483      178.950      -25.289       57.518       91.644       35.310     3308.320     8398.679     1246.786        2.384        0.648      184.640       43.508        0.056      337.651        9.766      864.199
10/03/2013  12:44:00      -43.549      183.398      -13.969       32.630       66.344       30.270     1064.700     4401.507      916.264        2.105        0.319      188.497       25.495        0.018      337.673        9.803      864.199
10/03/2013  12:45:00       22.041      173.880      -19.850       60.589       84.984       38.133     3670.973     7222.314     1454.146        2.173        0.617      175.272       37.898        0.047      337.709        9.865      864.182
10/03/2013  12:46:00       34.703       87.098       21.237      117.794       56.598       48.702    13875.450     3203.339     2371.851        1.434        0.973       93.757       35.442        0.143      338.012       10.373      864.168
10/03/2013  12:47:00       42.852      130.953       -9.552       61.357       82.461       54.027     3764.713     6799.787     2918.969        1.628        0.674      137.786       52.964        0.148      338.265       10.797      864.149
10/03/2013  12:48:00       64.200      176.089       -6.297       82.298       95.941       50.835     6772.888     9204.734     2584.164        2.686        0.928      187.427       52.993        0.080      337.908       10.197      864.125
10/03/2013  12:49:00      -63.904      261.929      -31.618      120.112      139.016       74.986    14426.973    19325.471     5622.891        5.652        1.969      269.612       75.699        0.079      337.817       10.045      864.125
10/03/2013  12:50:00     -129.103      317.947      -40.203      102.925      115.784       60.400    10593.585    13405.890     3648.113        7.351        1.382      343.158       55.306        0.026      337.567        9.625      864.136
10/03/2013  12:51:00      -42.296      239.177      -19.428       49.556       92.174       39.542     2455.830     8496.100     1563.607        3.594        0.626      242.888       36.774        0.023      337.757        9.944      864.129
10/03/2013  12:52:00      -46.229      138.424       -2.149       46.185       88.770       42.889     2133.092     7880.137     1839.429        1.658        0.593      145.939       41.818        0.082      338.131       10.573      864.132
10/03/2013  12:53:00       81.258       53.976        1.021       80.893       45.417       37.628     6543.737     2062.661     1415.880        0.977        0.501       97.551       24.608        0.064      338.155       10.614      864.105
10/03/2013  12:54:00      171.147       99.858        8.132       55.106       48.617       45.417     3036.725     2363.568     2062.716        2.339        0.373      198.148       23.211        0.014      337.934       10.242      864.079
10/03/2013  12:55:00      210.243      144.938       20.409      105.634       83.618       63.583    11158.454     6991.970     4042.803        4.390        1.110      255.361       45.166        0.031      337.928       10.232      864.057
10/03/2013  12:56:00      125.210      109.220       28.734      106.723       65.162       85.202    11389.742     4246.127     7259.387        2.566        1.145      166.152       50.150        0.091      338.132       10.575      864.012
10/03/2013  12:57:00      180.114      126.268       24.821       95.015       69.283       60.472     9027.910     4800.146     3656.815        3.324        0.874      219.965       25.155        0.013      337.945       10.259      863.967
10/03/2013  12:58:00       49.657      209.752      -28.594       69.159       77.362       53.111     4783.000     5984.863     2820.785        3.043        0.679      215.549       51.228        0.056      337.715        9.873      863.953
10/03/2013  12:59:00       67.501       95.637       15.790      112.101       88.322       77.083    12566.629     7800.772     5941.756        2.013        1.315      117.059       55.707        0.226      337.995       10.344      863.905
10/03/2013  13:00:00      242.392      164.156       71.317      153.285       93.322       72.693    23496.327     8709.004     5284.335        6.413        1.874      292.748       78.624        0.072      338.091       10.505      863.854
10/03/2013  13:01:00       80.091       71.168      107.879      104.367       80.596       60.794    10892.523     6495.723     3695.963        2.210        1.054      107.143       68.708        0.411      338.398       11.021      863.845
10/03/2013  13:02:00      282.281      170.466       16.905      118.930      104.289       57.509    14144.277    10876.134     3307.319        6.867        1.416      329.759       43.006        0.017      337.857       10.111      863.853
10/03/2013  13:03:00       65.030      143.617      -18.669       82.724       88.355       63.101     6843.305     7806.668     3981.760        2.191        0.932      157.654       57.665        0.134      337.864       10.126      863.845
10/03/2013  13:04:00       70.002       68.470       -1.769       44.966       48.450       37.796     2021.952     2347.434     1428.510        0.769        0.290       97.920       27.355        0.078      337.839       10.083      863.838
10/03/2013  13:05:00       -9.391       21.257        6.306       32.107       28.945       33.187     1030.880      837.828     1101.354        0.177        0.149       23.239       15.953        0.471      338.473       11.149      863.832
10/03/2013  13:06:00       82.575     -113.519       13.438       93.372       59.013       40.545     8718.321     3482.568     1643.871        1.686        0.692      140.375       36.102        0.066      338.185       10.663      863.817
10/03/2013  13:07:00       77.661      -81.256        0.916       60.080       46.408       34.982     3609.614     2153.738     1223.726        0.981        0.349      112.400       25.579        0.052      337.815       10.044      863.811
10/03/2013  13:08:00       46.681      -41.555       41.899       46.897       79.993       49.278     2199.343     6398.900     2428.312        0.834        0.551       62.497       56.161        0.808      338.459       11.125      863.807
10/03/2013  13:09:00       78.022      -75.879       17.600       74.335      123.555       60.957     5525.720    15265.745     3715.716        1.833        1.225      108.834       66.004        0.368      338.448       11.106      863.814
10/03/2013  13:10:00      127.224     -200.084      -16.946       69.757       92.334       62.683     4866.037     8525.519     3929.170        3.691        0.866      237.107       49.189        0.043      337.982       10.322      863.824
10/03/2013  13:11:00       63.986        8.698       83.606      107.428      112.369       69.239    11540.705    12626.689     4794.073        2.005        1.448       64.574       61.918        0.919      338.529       11.242      863.825
10/03/2013  13:12:00       94.804     -101.283       36.577       89.114      121.100       75.437     7941.236    14665.294     5690.801        2.444        1.415      138.730       81.166        0.342      338.450       11.109      863.841
10/03/2013  13:13:00      103.395     -181.670       23.664       92.111      140.541       86.632     8484.517    19751.675     7505.156        3.999        1.787      209.032       89.885        0.185      338.284       10.828      863.837
10/03/2013  13:14:00       65.599       52.365      117.089       94.778      126.988       85.341     8982.788    16126.020     7283.038        2.657        1.620       83.936       90.984        1.175      338.276       10.816      863.858
10/03/2013  13:15:00       94.937     -102.051       21.838       85.503      100.191       43.609     7310.823    10038.221     1901.743        1.957        0.963      139.383       37.939        0.074      338.335       10.915      863.849
10/03/2013  13:16:00      145.859       86.057       33.249      130.467       79.874       51.097    17021.704     6379.844     2610.913        2.789        1.301      169.354       50.924        0.090      338.361       10.958      863.846
10/03/2013  13:17:00      120.714       41.635       25.933       83.687       66.246       57.055     7003.467     4388.597     3255.229        1.581        0.732      127.692       47.147        0.136      338.246       10.766      863.859
10/03/2013  13:18:00       49.631       50.412       76.635       56.973       73.780       61.397     3245.937     5443.555     3769.531        1.167        0.623       70.743       58.031        0.673      338.336       10.918      863.878
10/03/2013  13:19:00       70.839       49.039       59.196       55.210       38.700       36.205     3048.127     1497.678     1310.802        0.839        0.293       86.156       24.138        0.078      338.099       10.521      863.861
10/03/2013  13:20:00       97.417       29.010       26.867       89.558       76.671       50.937     8020.653     5878.387     2594.571        1.377        0.825      101.645       19.619        0.037      338.433       11.080      863.844
10/03/2013  13:21:00      218.570      100.483       32.004      105.740       78.407       74.898    11180.885     6147.599     5609.688        4.091        1.147      240.561       62.097        0.067      338.351       10.941      863.837
10/03/2013  13:22:00       86.969       51.918      103.367      118.286       79.771       64.400    13991.461     6363.413     4147.401        2.272        1.225      101.287       70.816        0.489      338.587       11.340      863.816
10/03/2013  13:23:00      110.641       39.369       51.250       95.195       95.512       56.835     9062.010     9122.479     3230.195        1.891        1.071      117.436       53.488        0.207      338.193       10.677      863.810
10/03/2013  13:24:00      166.005     -151.129        5.147      129.487      156.464       75.585    16766.811    24481.041     5713.155        4.868        2.348      224.494       95.451        0.181      338.173       10.643      863.800
10/03/2013  13:25:00      109.383     -127.324        5.881       54.796      112.512       47.128     3002.549    12659.046     2221.047        2.304        0.894      167.857       56.716        0.114      337.843       10.090      863.801
10/03/2013  13:26:00       73.376       15.094       61.159       71.827       85.095       44.139     5159.055     7241.184     1948.216        1.185        0.717       74.912       48.148        0.413      338.306       10.869      863.774
10/03/2013  13:27:00      102.045     -100.363       21.103       54.885       77.285       53.229     3012.353     5972.929     2833.334        1.637        0.591      143.129       49.840        0.121      338.446       11.102      863.785
10/03/2013  13:28:00        8.885        0.363       59.913       51.074       95.647       55.706     2608.522     9148.354     3103.210        0.926        0.743        8.893       58.300       42.978      338.490       11.177      863.774
10/03/2013  13:29:00       40.636       41.127       66.871       42.792       49.169       37.612     1831.153     2417.550     1414.695        0.674        0.283       57.817       24.489        0.179      338.425       11.067      863.762
10/03/2013  13:30:00       86.102     -111.718        0.592       59.587       77.808       49.501     3550.580     6054.144     2450.333        1.597        0.603      141.048       44.885        0.101      338.345       10.932      863.753
10/03/2013  13:31:00       55.065      -57.393       21.134       65.091       78.997       55.202     4236.848     6240.559     3047.287        1.015        0.676       79.537       42.930        0.291      338.566       11.304      863.743
10/03/2013  13:32:00      139.712      104.333       25.848       88.215       52.790       48.696     7781.973     2786.813     2371.263        2.200        0.647      174.370       22.516        0.017      338.266       10.799      863.778
10/03/2013  13:33:00      180.494      103.363       22.331      104.869       94.112       67.396    10997.448     8857.109     4542.250        3.407        1.220      207.996       33.716        0.026      338.060       10.453      863.815
10/03/2013  13:34:00       26.990      103.683        5.115       54.352       60.983       46.700     2954.124     3718.894     2180.934        1.018        0.443      107.138       33.952        0.100      338.247       10.770      863.815
10/03/2013  13:35:00      150.027      100.031       15.257      107.825       87.803       50.637    11626.322     7709.294     2564.106        2.732        1.095      180.317       42.074        0.054      338.481       11.159      863.809
10/03/2013  13:36:00      178.320       76.721       45.992      100.281      113.077       62.799    10056.314    12786.298     3943.739        3.329        1.339      194.124       40.394        0.043      338.230       10.738      863.795
10/03/2013  13:37:00      -39.726        3.123       14.924       73.572       77.564       51.831     5412.805     6016.121     2686.431        0.796        0.706       39.849       28.076        0.496      338.731       11.581      863.765
10/03/2013  13:38:00      -61.976      272.773      -31.950       53.887       78.676       38.338     2903.849     6189.887     1469.796        4.491        0.528      279.725       27.686        0.010      338.206       10.696      863.804
10/03/2013  13:39:00      -38.799      244.807      -25.867       51.473       80.581       40.152     2649.509     6493.329     1612.149        3.643        0.538      247.862       37.922        0.023      338.228       10.734      863.800
10/03/2013  13:40:00       97.704      136.920        3.846       98.960       77.954       48.432     9793.165     6076.766     2345.633        2.326        0.911      168.206       41.139        0.060      338.495       11.183      863.787
10/03/2013  13:41:00      145.871      131.925       76.979      128.220      101.638       89.698    16440.450    10330.284     8045.667        3.971        1.741      196.678       62.493        0.101      338.739       11.594      863.763
10/03/2013  13:42:00       27.202       88.174      101.506       87.469       81.117       71.362     7650.755     6579.926     5092.593        1.907        0.966       92.275       41.890        0.206      338.690       11.512      863.768
10/03/2013  13:43:00      129.817      113.616       55.181       73.867       62.049       56.059     5456.384     3850.038     3142.584        2.262        0.622      172.514       39.750        0.053      338.270       10.806      863.809
10/03/2013  13:44:00       24.869      -26.783       48.699       72.695      116.202       65.746     5284.499    13502.941     4322.502        1.340        1.155       36.548       72.530        3.938      338.540       11.260      863.806
10/03/2013  13:45:00       29.614      -30.832       10.600      102.823      108.818       54.925    10572.619    11841.309     3016.761        1.368        1.272       42.751       43.853        1.052      338.746       11.607      863.744
10/03/2013  13:46:00      129.836      144.363       -1.444      114.247       88.344       66.175    13052.349     7804.591     4379.099        3.146        1.262      194.160       51.750        0.071      338.427       11.069      863.763
10/03/2013  13:47:00       53.940      245.417      -13.018       99.809      123.541       75.145     9961.739    15262.312     5646.735        4.708        1.544      251.274       73.362        0.085      338.418       11.054      863.727
10/03/2013  13:48:00      222.980      153.895        8.274      151.611      111.110       69.074    22985.868    12345.441     4771.257        5.678        2.005      270.931       44.538        0.027      338.316       10.881      863.717
10/03/2013  13:49:00      160.702      132.889       33.488      124.214       78.074       63.033    15429.151     6095.563     3973.188        3.505        1.275      208.529       36.895        0.031      338.216       10.716      863.732
10/03/2013  13:50:00      242.517      159.405       11.255       99.448       75.347       62.998     9889.952     5677.152     3968.705        5.194        0.977      290.214       43.951        0.023      338.092       10.506      863.735
10/03/2013  13:51:00       72.422       91.714       10.610       66.680       67.860       56.740     4446.188     4605.021     3219.474        1.302        0.614      116.860       51.240        0.192      338.210       10.705      863.752
10/03/2013  13:52:00       28.015      193.660      -18.963       49.258      116.342       52.216     2426.392    13535.564     2726.562        2.866        0.934      195.676       58.053        0.088      338.209       10.704      863.750
10/03/2013  13:53:00       43.627      192.668      -27.156       59.035       85.630       41.883     3485.186     7332.546     1754.208        2.616        0.629      197.546       43.237        0.048      338.165       10.629      863.750
10/03/2013  13:54:00       61.203       37.493       11.190       64.675       56.485       34.117     4182.846     3190.517     1163.958        0.691        0.427       71.775       21.442        0.089      338.673       11.484      863.735
10/03/2013  13:55:00       -4.808      -65.446        1.378       37.261       52.133       38.478     1388.390     2717.881     1480.584        0.495        0.279       65.622       24.690        0.142      338.747       11.610      863.685
10/03/2013  13:56:00      -13.456     -121.409      -11.050       60.535       84.795       34.772     3664.482     7190.274     1209.067        1.355        0.603      122.152       23.840        0.038      338.744       11.602      863.654
10/03/2013  13:57:00      -65.548        6.856        0.868       51.570       55.905       33.322     2659.439     3125.354     1110.363        0.562        0.345       65.906       21.877        0.110      338.852       11.785      863.652
10/03/2013  13:58:00      -50.126      131.780      -15.212       32.078       40.790       33.523     1029.024     1663.787     1123.817        1.196        0.191      140.991       15.719        0.012      338.139       10.588      863.639
10/03/2013  13:59:00        1.666       22.129       13.234       46.031       26.861       28.217     2118.872      721.516      796.173        0.215        0.182       22.192       28.446        1.643      338.733       11.585      863.631
10/03/2013  14:00:00        5.081        2.890        6.586       37.473       18.072       25.914     1404.222      326.588      671.521        0.124        0.120        5.846       22.172       14.386      338.680       11.496      863.617
10/03/2013  14:01:00      110.875       69.117       56.273       68.013       59.087       55.918     4625.746     3491.219     3126.816        1.574        0.562      130.654       38.105        0.085      338.253       10.779      863.634
10/03/2013  14:02:00       96.210      -27.632       27.261       55.719       81.634       49.036     3104.613     6664.049     2404.563        1.147        0.609      100.100       57.953        0.335      338.106       10.532      863.656
10/03/2013  14:03:00       62.051      -90.173       22.007       65.079      118.774       53.803     4235.239    14107.181     2894.755        1.685        1.062      109.460       62.893        0.330      338.505       11.201      863.634
10/03/2013  14:04:00       31.286      -62.932       14.136       43.869      106.144       44.344     1924.459    11266.589     1966.363        1.015        0.758       70.280       46.312        0.434      338.838       11.762      863.617
10/03/2013  14:05:00       36.846       20.928       25.914       64.707       49.008       49.091     4187.036     2401.799     2409.963        0.573        0.450       42.374       31.784        0.563      338.820       11.730      863.647
10/03/2013  14:06:00      158.478      100.804       12.166      115.564      100.443       47.168    13355.103    10088.697     2224.801        3.054        1.283      187.821       39.760        0.045      338.725       11.569      863.659
10/03/2013  14:07:00      109.373      123.586       22.814      115.689       82.990       67.097    13383.983     6887.290     4501.953        2.626        1.239      165.033       56.083        0.115      338.754       11.620      863.660
10/03/2013  14:08:00      289.938      153.733       27.525      143.975       89.217       93.872    20728.735     7959.601     8811.948        7.297        1.875      328.173       57.818        0.031      338.706       11.535      863.638
10/03/2013  14:09:00      124.944      142.329        3.700      123.386       97.563       64.040    15224.207     9518.560     4101.099        3.236        1.442      189.390       54.561        0.083      338.809       11.711      863.663
10/03/2013  14:10:00      -28.472      105.774      -24.443      115.329       81.262       34.520    13300.832     6603.488     1191.600        1.684        1.055      109.539       39.175        0.128      338.760       11.631      863.650
10/03/2013  14:11:00       -3.266      107.989        5.514       66.242       55.722       36.182     4388.033     3104.991     1309.108        1.025        0.440      108.038       41.935        0.151      338.590       11.344      863.643
10/03/2013  14:12:00      104.716       78.297        5.698       88.906       54.734       39.202     7904.285     2995.834     1536.829        1.478        0.622      130.751       32.337        0.061      338.704       11.536      863.661
10/03/2013  14:13:00       54.755       61.908        0.659       63.564      101.719       41.211     4040.322    10346.714     1698.312        1.145        0.804       82.648       37.513        0.206      338.851       11.783      863.635
10/03/2013  14:14:00       38.972      209.082      -21.320       73.686       71.431       43.579     5429.649     5102.351     1899.119        2.906        0.622      212.683       34.794        0.027      339.025       12.072      863.637
10/03/2013  14:15:00       43.109      149.209      -13.438       60.427      101.884       53.749     3651.477    10380.396     2888.990        2.061        0.846      155.311       55.519        0.128      338.734       11.586      863.658
10/03/2013  14:16:00       47.754       39.533       10.634       68.521       40.101       27.582     4695.128     1608.077      760.746        0.551        0.353       61.995       21.078        0.116      339.208       12.385      863.668
10/03/2013  14:17:00       75.310       69.981       -3.857       75.927       56.923       42.349     5764.884     3240.228     1793.457        1.069        0.540      102.805       20.252        0.039      339.155       12.295      863.672
10/03/2013  14:18:00      105.632       84.323       84.985      101.706       95.944       82.386    10344.106     9205.344     6787.450        2.591        1.317      135.161       62.670        0.215      339.190       12.352      863.654
10/03/2013  14:19:00       73.091       84.121        2.796       76.564       61.774       48.376     5861.993     3815.978     2340.197        1.222        0.601      111.439       36.296        0.106      339.007       12.046      863.668
10/03/2013  14:20:00       47.129       83.774       -3.541       60.824       75.053       36.476     3699.583     5632.959     1330.480        0.996        0.533       96.121       31.436        0.107      338.593       11.349      863.688
10/03/2013  14:21:00       22.628       94.308      -15.553       68.304       54.578       29.805     4665.420     2978.716      888.360        0.909        0.427       96.985       24.356        0.063      338.357       10.953      863.707
10/03/2013  14:22:00     -128.151      154.187      -30.060       64.829       58.842       46.452     4202.762     3462.396     2157.774        2.546        0.491      200.490       44.783        0.050      338.659       11.458      863.734
10/03/2013  14:23:00      -93.886      126.594      -20.033       70.996       61.435       36.083     5040.365     3774.220     1301.976        1.768        0.506      157.609       31.210        0.039      338.590       11.344      863.752
10/03/2013  14:24:00      -23.904      155.008       -7.410       47.639       74.045       42.887     2269.442     5482.596     1839.267        1.712        0.480      156.840       48.615        0.096      338.748       11.610      863.777
10/03/2013  14:25:00       85.608       94.017        9.008       81.358       72.937       45.324     6619.135     5319.788     2054.277        1.512        0.700      127.153       36.074        0.080      339.238       12.433      863.767
10/03/2013  14:26:00       92.213       67.699        4.251       52.140       45.653       29.382     2718.569     2084.208      863.317        0.938        0.283      114.396       22.317        0.038      339.073       12.157      863.762
10/03/2013  14:27:00        8.337      146.622      -12.818       53.991       72.064       47.520     2915.068     5193.234     2258.113        1.605        0.518      146.859       47.631        0.105      339.029       12.080      863.766
10/03/2013  14:28:00      -22.908      101.802       -8.259       53.876       96.234       37.579     2902.624     9260.999     1412.157        1.226        0.679      104.348       44.152        0.179      338.937       11.928      863.780
10/03/2013  14:29:00      -11.284      250.006      -16.626       48.333       54.783       38.521     2336.126     3001.166     1483.829        3.486        0.341      250.261       34.585        0.019      338.443       11.093      863.796
10/03/2013  14:30:00      -26.762       41.180       -1.978       47.176       58.061       29.565     2225.548     3371.038      874.100        0.444        0.324       49.112       33.644        0.469      338.805       11.706      863.809
10/03/2013  14:31:00       -6.360       92.013      -23.185       61.501       32.916       24.754     3782.432     1083.495      612.764        0.726        0.274       92.233       12.607        0.019      338.563       11.301      863.804
10/03/2013  14:32:00      -18.129      -66.618       -2.498       59.528       52.407       32.862     3543.607     2746.519     1079.942        0.607        0.369       69.041       12.829        0.035      338.963       11.971      863.796
10/03/2013  14:33:00       72.589     -142.715      -19.556       73.409      109.581       54.487     5388.848    12008.079     2968.800        2.319        1.018      160.115       39.892        0.062      338.869       11.812      863.784
10/03/2013  14:34:00       31.727      -78.876       26.997       66.320       88.335       48.326     4398.367     7803.147     2335.392        1.124        0.727       85.018       50.315        0.350      339.136       12.264      863.766
10/03/2013  14:35:00       15.519       30.242       66.382       60.435       65.626       44.081     3652.352     4306.730     1943.119        0.773        0.495       33.992       42.099        1.534      339.103       12.208      863.763
10/03/2013  14:36:00      -18.188      -68.840       10.540       45.860       60.159       37.032     2103.156     3619.107     1371.382        0.614        0.355       71.202       35.497        0.249      339.302       12.541      863.760
10/03/2013  14:37:00       26.234      -41.201       17.486       44.403       62.796       34.125     1971.608     3943.295     1164.521        0.488        0.354       48.844       39.587        0.657      338.875       11.823      863.741
10/03/2013  14:38:00        1.951       16.164       59.602       29.587       56.070       37.002      875.379     3143.800     1369.178        0.460        0.269       16.281       35.513        4.758      339.245       12.446      863.711
10/03/2013  14:39:00       -4.973      -17.155       33.322       22.066       38.458       28.325      486.922     1479.050      802.280        0.210        0.138       17.861       27.140        2.309      339.406       12.718      863.707
10/03/2013  14:40:00       44.382      -25.446       31.157       41.410       49.322       33.832     1714.806     2432.680     1144.599        0.444        0.265       51.159       34.991        0.468      339.293       12.527      863.693
10/03/2013  14:41:00       85.123     -188.803      -11.896       94.339      148.317       75.506     8899.855    21997.855     5701.191        3.981        1.830      207.105       94.065        0.206      338.663       11.466      863.688
10/03/2013  14:42:00      101.316     -148.885       -5.336       81.188      120.769       76.775     6591.423    14585.252     5894.444        2.976        1.354      180.088       83.413        0.215      338.643       11.431      863.693
10/03/2013  14:43:00       47.176     -112.254       21.376       50.020       67.821       58.852     2501.982     4599.707     3463.515        1.292        0.528      121.764       54.335        0.199      338.751       11.615      863.692
10/03/2013  14:44:00       82.823       23.699       19.000       32.305       62.648       38.226     1043.611     3924.739     1461.228        0.710        0.321       86.147       18.414        0.046      338.603       11.368      863.685
10/03/2013  14:45:00       67.645       25.563        8.773       39.891       68.587       36.053     1591.276     4704.212     1299.842        0.645        0.380       72.314       40.386        0.312      338.712       11.550      863.677
10/03/2013  14:46:00       52.968       31.623       34.538       63.203       45.852       32.268     3994.674     2102.450     1041.247        0.607        0.357       61.690       31.849        0.267      339.085       12.177      863.667
10/03/2013  14:47:00       91.931       61.329       21.409       43.973       30.756       29.323     1933.622      945.924      859.828        0.820        0.187      110.510       17.589        0.025      339.121       12.237      863.655
10/03/2013  14:48:00       39.500       65.342        8.917       69.285       72.936       37.955     4800.411     5319.619     1440.561        0.873        0.578       76.353       26.968        0.125      339.356       12.633      863.637
10/03/2013  14:49:00       42.817      165.010      -16.232       54.936       68.207       44.220     3017.947     4652.131     1955.416        1.947        0.481      170.475       37.025        0.047      338.856       11.791      863.647
10/03/2013  14:50:00       52.419       85.191       -9.711       45.397       86.089       43.858     2060.868     7411.322     1923.537        1.075        0.570      100.026       46.471        0.216      338.752       11.616      863.627
10/03/2013  14:51:00        8.975        2.880        2.268       67.296       78.437       33.299     4528.734     6152.357     1108.844        0.594        0.589        9.425       26.033        7.629      339.178       12.332      863.591
10/03/2013  14:52:00        4.367     -188.040       -7.331      142.014      151.932      101.234    20168.062    23083.244    10248.298        4.445        2.675      188.091      107.390        0.326      339.206       12.377      863.524
10/03/2013  14:53:00       50.163       62.059      127.500       99.969      136.813      104.243     9993.749    18717.774    10866.669        3.109        1.979       79.798      119.828        2.255      339.146       12.277      863.589
10/03/2013  14:54:00      194.064      108.393      101.187      105.365      104.188       80.905    11101.703    10855.117     6545.605        4.407        1.425      222.283       75.021        0.114      338.811       11.715      863.636
10/03/2013  14:55:00      159.306      116.930      109.075      108.912       89.743       84.737    11861.888     8053.761     7180.436        3.902        1.355      197.613       75.270        0.145      338.915       11.889      863.653
10/03/2013  14:56:00       92.950      108.057      107.680       71.099      118.678       75.374     5055.134    14084.397     5681.179        2.836        1.241      142.534       74.777        0.275      339.011       12.049      863.647
10/03/2013  14:57:00       77.719      111.119      133.282       91.086       81.983       63.696     8296.609     6721.245     4057.184        2.761        0.954      135.601       57.784        0.182      339.134       12.256      863.627
10/03/2013  14:58:00      273.025      129.752       58.984      138.661      126.524       81.742    19226.798    16008.424     6681.788        6.838        2.096      302.288       71.907        0.057      338.923       11.900      863.651
10/03/2013  14:59:00      124.674       90.440       69.019       88.998       82.411       67.701     7920.709     6791.628     4583.367        2.389        0.965      154.023       56.053        0.132      339.032       12.086      863.666
10/03/2013  15:00:00      147.438      103.660       99.638      127.065      106.384       78.477    16145.423    11317.555     6158.588        3.801        1.681      180.231       81.288        0.203      338.892       11.850      863.661
10/03/2013  15:01:00      139.886      111.155       25.647       90.964       67.865       65.557     8274.384     4605.599     4297.696        2.488        0.859      178.671       51.831        0.084      338.808       11.709      863.688
10/03/2013  15:02:00       64.932       81.776       -5.809       50.734       85.288       42.288     2573.898     7274.080     1788.263        1.128        0.582      104.420       34.131        0.107      338.597       11.356      863.679
10/03/2013  15:03:00       15.633       11.425       35.288       35.704       47.126       22.194     1274.747     2220.886      492.590        0.280        0.199       19.363       25.276        1.704      339.172       12.324      863.656
10/03/2013  15:04:00      -23.380      159.637      -14.805       66.025      101.629       32.735     4359.241    10328.395     1071.604        2.100        0.788      161.340       36.198        0.050      338.877       11.826      863.647
10/03/2013  15:05:00       44.102      129.340        4.119       72.076       48.756       40.545     5194.925     2377.187     1643.910        1.395        0.461      136.652       43.222        0.100      338.753       11.619      863.649
10/03/2013  15:06:00       38.627       27.158        4.464       66.286       54.632       33.457     4393.882     2984.638     1119.396        0.537        0.425       47.219       12.365        0.069      339.044       12.108      863.618
10/03/2013  15:07:00      -17.766       33.218        1.684       25.507       37.581       19.113      650.598     1412.323      365.325        0.192        0.121       37.671        9.126        0.059      339.439       12.774      863.589
10/03/2013  15:08:00       83.588       46.912        2.431       61.819       33.501       30.046     3821.582     1122.345      902.734        0.752        0.292       95.852       20.597        0.046      339.156       12.295      863.609
10/03/2013  15:09:00       83.829      162.157       -0.234       89.093      103.789       54.030     7937.497    10772.137     2919.208        2.747        1.081      182.544       52.700        0.083      339.316       12.565      863.646
10/03/2013  15:10:00      165.904      153.139       10.056      112.041      119.793       71.150    12553.169    14350.304     5062.364        4.151        1.598      225.778       63.397        0.079      339.185       12.342      863.665
10/03/2013  15:11:00      207.690      134.513       65.226      115.766       89.163       83.594    13401.852     7950.045     6988.024        4.691        1.417      247.445       52.351        0.045      339.150       12.282      863.658
10/03/2013  15:12:00      281.637      139.008       60.380      112.734       90.999       82.592    12708.904     8280.769     6821.373        6.504        1.391      314.074       40.701        0.017      338.966       11.975      863.656
10/03/2013  15:13:00      140.675      133.531       27.762      132.886       93.439       74.403    17658.566     8730.925     5535.841        3.515        1.596      193.959       35.123        0.033      339.235       12.428      863.683
10/03/2013  15:14:00      130.982       86.711       17.508       86.386       48.590       41.752     7462.517     2361.017     1743.238        1.827        0.578      157.083       19.903        0.016      338.953       11.954      863.673
10/03/2013  15:15:00      135.944       74.912       26.903       81.848       46.696       54.099     6699.143     2180.490     2926.673        1.831        0.590      155.218       27.409        0.031      339.372       12.660      863.656
10/03/2013  15:16:00       70.318      180.600      -12.462       89.079      117.561       54.077     7935.042    13820.656     2924.285        3.119        1.234      193.806       60.800        0.098      339.148       12.280      863.630
10/03/2013  15:17:00      276.884      213.026       34.962      168.878      111.016       71.153    28519.622    12324.498     5062.793        8.458        2.295      349.349       40.237        0.013      339.083       12.172      863.613
10/03/2013  15:18:00      287.346      167.103       46.943      140.835       89.550       61.353    19834.558     8019.290     3764.144        7.215        1.581      332.402       33.298        0.010      338.888       11.844      863.626
10/03/2013  15:19:00       93.354      198.249        0.803      108.467      159.145       81.302    11765.075    25327.106     6609.996        4.585        2.185      219.129       87.455        0.159      339.216       12.395      863.647
10/03/2013  15:20:00       82.711      198.990        1.090       99.282      145.238      104.512     9856.908    21094.117    10922.857        4.415        2.094      215.495      100.657        0.218      338.887       11.843      863.671
10/03/2013  15:21:00       79.420      185.696        1.903      104.243      150.978       89.658    10866.699    22794.287     8038.529        4.124        2.085      201.967       94.868        0.221      338.920       11.898      863.689
10/03/2013  15:22:00      237.544      217.678       -1.200      136.120      108.645       75.574    18528.759    11803.790     5711.368        6.992        1.802      322.197       54.975        0.029      338.932       11.917      863.703
10/03/2013  15:23:00      287.520      204.895       34.360      131.660       83.767       75.951    17334.324     7016.829     5768.616        7.797        1.506      353.058       56.727        0.026      338.922       11.901      863.703
10/03/2013  15:24:00      170.189      177.840      -11.729      112.971      102.902       96.176    12762.540    10588.876     9249.731        4.666        1.630      246.153       67.507        0.075      338.853       11.783      863.711
10/03/2013  15:25:00      165.076      112.945       34.173      131.460       98.829       63.550    17281.756     9767.209     4038.547        3.612        1.554      200.016       50.675        0.064      338.965       11.975      863.672
10/03/2013  15:26:00      307.604      200.827       43.971      122.416       92.498       92.473    14985.557     8555.870     8551.257        8.448        1.605      367.358       69.185        0.035      338.761       11.628      863.636
10/03/2013  15:27:00      150.387      125.818       36.846      132.111      133.405       78.571    17453.404    17796.771     6173.333        4.061        2.071      196.078       69.081        0.124      339.006       12.043      863.640
10/03/2013  15:28:00      150.651      156.435       -0.753      118.561       96.357       70.752    14056.682     9284.617     5005.863        3.775        1.417      217.181       60.453        0.077      339.394       12.694      863.632
10/03/2013  15:29:00      320.578      185.088       16.770      146.455       93.025       87.084    21449.191     8653.574     7583.641        8.749        1.884      370.172       46.964        0.016      338.940       11.930      863.638
10/03/2013  15:30:00      124.030      118.544       20.013       95.717       82.670       62.098     9161.818     6834.285     3856.154        2.484        0.993      171.569       49.184        0.082      338.909       11.879      863.660
10/03/2013  15:31:00      115.508       88.491        5.739       69.818       89.427       47.914     4874.508     7997.251     2295.749        1.818        0.758      145.509       32.840        0.051      338.745       11.604      863.657
10/03/2013  15:32:00      108.888      103.732       -1.419      117.201       61.076       45.824    13736.059     3730.293     2099.801        2.109        0.978      150.389       40.204        0.071      338.751       11.614      863.652
10/03/2013  15:33:00      125.850      111.391      -10.930       58.937       51.602       34.045     3473.614     2662.777     1159.055        1.783        0.365      168.066       16.739        0.010      338.661       11.463      863.650
10/03/2013  15:34:00       42.901       65.129        7.860       49.880       70.565       33.812     2488.063     4979.402     1143.246        0.738        0.431       77.989       42.447        0.296      339.015       12.058      863.618
10/03/2013  15:35:00        9.230       87.055       -5.189       32.438       74.131       37.701     1052.238     5495.459     1421.329        0.783        0.398       87.543       43.880        0.251      339.172       12.323      863.615
10/03/2013  15:36:00      -30.897       83.477       -4.841       39.547       58.627       31.567     1563.973     3437.098      996.497        0.697        0.300       89.012       33.837        0.145      339.202       12.373      863.614
10/03/2013  15:37:00      -26.936      126.542      -15.700       34.726       29.045       20.908     1205.919      843.596      437.155        0.974        0.124      129.377       10.377        0.006      338.828       11.746      863.602
10/03/2013  15:38:00      -11.432       70.027       -4.282       17.239       30.818       21.611      297.179      949.720      467.054        0.338        0.086       70.954       13.972        0.039      338.950       11.951      863.581
10/03/2013  15:39:00        0.755        5.681        6.414       25.356       25.665       21.816      642.929      658.709      475.957        0.093        0.089        5.731       17.685        9.522      339.246       12.447      863.575
10/03/2013  15:40:00       10.251       10.495       13.719       26.639       64.665       41.682      709.661     4181.591     1737.354        0.351        0.331       14.671       15.266        1.083      339.265       12.480      863.575
10/03/2013  15:41:00       72.833       75.456       62.462       70.652       60.940       48.972     4991.739     3713.737     2398.219        1.300        0.555      104.873       23.814        0.052      339.052       12.120      863.582
10/03/2013  15:42:00       75.280       69.574       40.572       67.456       36.952       41.150     4550.255     1365.420     1693.297        0.988        0.380      102.507       34.801        0.115      339.061       12.137      863.592
10/03/2013  15:43:00       -1.387       52.160      -16.070       34.677       32.206       13.356     1202.491     1037.217      178.380        0.270        0.121       52.179       13.453        0.066      338.693       11.518      863.596
10/03/2013  15:44:00      -21.545      120.820      -27.825       46.181       29.448       21.598     2132.671      867.168      466.486        0.965        0.173      122.726       16.400        0.018      338.789       11.679      863.614
10/03/2013  15:45:00        7.701      163.473      -12.031       67.630       68.207       40.319     4573.850     4652.220     1625.584        1.889        0.543      163.655       46.617        0.081      339.102       12.203      863.634
10/03/2013  15:46:00       65.603      209.621      -11.390       99.931      103.910       75.881     9986.176    10797.310     5757.908        3.745        1.327      219.647       62.980        0.082      339.053       12.120      863.616
10/03/2013  15:47:00       96.588      360.008      -65.727       78.691      118.074       61.447     6192.275    13941.547     3775.678        8.358        1.195      372.740       62.736        0.028      338.990       12.015      863.618
10/03/2013  15:48:00       53.382      248.898      -31.306       78.667       94.220       57.036     6188.432     8877.405     3253.104        4.205        0.916      254.558       52.923        0.043      339.259       12.465      863.623
10/03/2013  15:49:00       80.741      301.712      -40.106      101.547      126.835       65.672    10311.855    16086.998     4312.749        6.493        1.536      312.329       68.086        0.048      338.932       11.917      863.637
10/03/2013  15:50:00       87.394      239.025      -41.455       61.878      121.655       51.177     3828.907    14799.869     2619.058        4.386        1.062      254.501       61.726        0.059      338.894       11.853      863.655
10/03/2013  15:51:00      145.254      190.170       12.602      137.695      117.902       84.025    18959.794    13900.789     7060.272        4.866        1.996      239.298       62.026        0.067      339.226       12.411      863.654
10/03/2013  15:52:00      187.981      168.044        9.521      121.586      108.082       84.858    14783.041    11681.618     7200.910        4.866        1.683      252.142       60.985        0.058      339.095       12.191      863.664
10/03/2013  15:53:00      161.167      131.949       20.193       97.403       76.513       54.777     9487.346     5854.237     3000.549        3.106        0.917      208.292       39.599        0.036      339.080       12.166      863.661
10/03/2013  15:54:00      297.101      195.036       66.285      120.199       96.067       91.500    14447.821     9228.811     8372.229        8.137        1.602      355.399       50.701        0.020      339.124       12.239      863.668
10/03/2013  15:55:00      243.010      140.029       51.108      127.066       69.764       58.049    16145.725     4867.034     3369.734        5.282        1.219      280.468       38.393        0.019      339.032       12.085      863.649
10/03/2013  15:56:00      139.691      109.231       60.635      109.433       91.330       82.348    11975.474     8341.188     6781.200        3.110        1.355      177.328       64.025        0.130      339.255       12.460      863.644
10/03/2013  15:57:00      279.655      139.943       64.391      120.330       94.095       90.987    14479.353     8853.904     8278.664        6.677        1.581      312.716       12.617        0.002      339.098       12.195      863.659
10/03/2013  15:58:00      100.010       65.764       31.368       91.399       64.478       52.678     8353.744     4157.364     2774.930        1.530        0.764      119.695       42.539        0.126      338.903       11.870      863.694
10/03/2013  15:59:00       72.651       89.373       10.713      109.130       68.026       57.172    11909.312     4627.524     3268.605        1.659        0.990      115.176       40.421        0.123      338.983       12.004      863.682
10/03/2013  16:00:00       94.263      149.484       -4.385      110.109      119.609       48.269    12124.028    14306.197     2329.864        3.000        1.438      176.723       54.822        0.096      339.059       12.130      863.661
10/03/2013  16:01:00      180.480       91.830       16.473       92.447       80.443       61.023     8546.394     6471.115     3723.865        3.001        0.937      202.499       37.991        0.035      339.066       12.143      863.663
10/03/2013  16:02:00       71.669       42.324       50.130       67.969       49.767       45.654     4619.808     2476.740     2084.275        0.931        0.459       83.233       46.215        0.308      338.920       11.900      863.637
10/03/2013  16:03:00      100.259       52.722       26.580       54.297       46.689       50.715     2948.170     2179.836     2572.061        1.062        0.385      113.276       35.810        0.100      338.933       11.922      863.617
10/03/2013  16:04:00      120.950       73.875       29.237       63.215       37.459       31.487     3996.188     1403.183      991.427        1.366        0.320      141.726       14.877        0.011      338.933       11.920      863.605
10/03/2013  16:05:00      106.278      131.873       -3.925       95.830      105.300       79.148     9183.427    11088.085     6264.456        2.761        1.327      169.368       64.295        0.144      339.063       12.139      863.593
10/03/2013  16:06:00      176.556      149.235       29.417      103.489       88.270       65.927    10709.914     7791.616     4346.398        3.857        1.142      231.177       51.319        0.049      339.083       12.170      863.590
10/03/2013  16:07:00       71.176      201.916      -22.481       81.769      107.791       65.107     6686.157    11618.874     4238.970        3.444        1.127      214.093       61.617        0.083      339.184       12.341      863.600
10/03/2013  16:08:00      137.289       86.447       28.902       69.678       62.326       61.759     4854.956     3884.497     3814.170        1.985        0.628      162.239       40.259        0.062      339.183       12.342      863.591
10/03/2013  16:09:00      181.253      112.726        2.996       85.892       61.445       45.612     7377.517     3775.520     2080.470        2.940        0.662      213.447       28.078        0.017      339.201       12.369      863.582
10/03/2013  16:10:00      259.784      207.390       33.881      154.026      113.494      105.715    23723.864    12880.801    11175.717        7.970        2.389      332.413       76.279        0.053      339.073       12.155      863.577
10/03/2013  16:11:00      182.682      194.782        8.678      162.326      103.468       96.820    26349.653    10705.548     9374.207        5.890        2.321      267.044       70.384        0.069      339.005       12.040      863.590
10/03/2013  16:12:00      150.589      249.301       -2.223      106.964      198.518       96.603    11441.317    39409.454     9332.228        7.250        3.009      291.253      111.209        0.146      338.964       11.970      863.587
10/03/2013  16:13:00      105.378      193.684       -8.249      106.208      116.249       81.632    11280.090    13513.766     6663.834        4.007        1.573      220.495       74.571        0.114      338.930       11.914      863.602
10/03/2013  16:14:00       78.297      185.341       -4.875      101.473      112.653       84.135    10296.672    12690.679     7078.718        3.528        1.503      201.201       78.398        0.152      338.905       11.873      863.600
10/03/2013  16:15:00      -22.737      173.363      -20.697       80.392       94.825       40.524     6462.828     8991.850     1642.215        2.404        0.855      174.847       44.635        0.065      339.015       12.056      863.591
10/03/2013  16:16:00      -99.079      198.228      -42.642       34.626       94.870       31.342     1198.939     9000.251      982.317        3.105        0.559      221.610       35.214        0.025      339.004       12.038      863.592
10/03/2013  16:17:00      -49.460      102.410       -7.344       78.406       61.949       45.279     6147.450     3837.672     2050.164        1.251        0.602      113.729       49.580        0.190      339.211       12.389      863.569
10/03/2013  16:18:00      -25.258      110.432      -12.673       48.569       56.123       28.500     2358.948     3149.791      812.272        0.966        0.316      113.284       27.867        0.061      339.162       12.306      863.563
10/03/2013  16:19:00       59.051       63.570       24.475       80.345       52.891       32.576     6455.254     2797.438     1061.192        0.922        0.516       86.765       29.603        0.116      339.218       12.401      863.560
10/03/2013  16:20:00      167.730      115.921       67.101       99.188      106.113       87.356     9838.344    11259.946     7631.037        3.740        1.436      203.890       58.162        0.081      338.960       11.964      863.560
10/03/2013  16:21:00      147.707      103.939       32.096       75.035       53.074       61.922     5630.203     2816.835     3834.349        2.296        0.614      180.612       31.331        0.030      338.956       11.959      863.553
10/03/2013  16:22:00       89.536      155.560       -1.759      100.803      116.848       82.577    10161.255    13653.496     6818.947        3.142        1.532      179.487       76.926        0.184      339.134       12.255      863.546
10/03/2013  16:23:00      152.791      169.232       16.129      153.299      100.937       83.147    23500.669    10188.263     6913.360        4.642        2.030      228.001       63.458        0.077      339.018       12.061      863.593
10/03/2013  16:24:00      173.239      151.584       23.573      121.053       79.863       70.497    14653.915     6378.165     4969.875        3.977        1.300      230.194       46.568        0.041      338.954       11.955      863.591
10/03/2013  16:25:00      176.730      176.460       31.668      144.231       91.159       59.349    20802.621     8309.955     3522.258        4.800        1.632      249.743       51.991        0.043      339.078       12.163      863.598
10/03/2013  16:26:00      153.743      100.437       81.623      146.724       83.868       79.689    21527.863     7033.821     6350.357        3.764        1.746      183.642       62.897        0.117      339.117       12.228      863.568
10/03/2013  16:27:00      169.050      118.590       32.088      109.642       83.013       65.922    12021.301     6891.162     4345.761        3.346        1.163      206.498       19.742        0.009      339.215       12.394      863.583
10/03/2013  16:28:00       99.828       86.210       21.527       97.212       64.015       51.020     9450.266     4097.926     2603.008        1.700        0.808      131.901       33.471        0.064      339.112       12.220      863.593
10/03/2013  16:29:00       47.165      224.273      -28.460       90.628      119.913       49.739     8213.460    14379.207     2474.012        3.919        1.253      229.179       50.850        0.049      339.026       12.076      863.603
10/03/2013  16:30:00      162.680      176.889       22.641      154.817       89.423       82.170    23968.152     7996.522     6751.939        4.848        1.936      240.321       64.881        0.073      339.189       12.349      863.610
10/03/2013  16:31:00       -7.310      172.396      -23.713       59.615       89.118       41.714     3554.006     7942.006     1740.091        2.178        0.662      172.551       40.498        0.055      339.227       12.414      863.612
10/03/2013  16:32:00      -31.475      195.226      -25.272       40.548       57.561       24.384     1644.140     3313.213      594.597        2.265        0.278      197.747       21.489        0.012      339.004       12.038      863.602
10/03/2013  16:33:00       56.526      151.228       -4.559       62.544      111.739       57.587     3911.798    12485.614     3316.269        2.290        0.986      161.447       64.844        0.161      339.224       12.409      863.580
10/03/2013  16:34:00       97.747      245.004      -30.535       94.828      117.218       62.969     8992.310    13739.961     3965.081        4.860        1.335      263.783       58.922        0.050      339.073       12.154      863.587
10/03/2013  16:35:00       57.013       95.219        5.121       87.891       70.903       52.510     7724.798     5027.182     2757.281        1.392        0.775      110.983       47.382        0.182      339.309       12.552      863.538
10/03/2013  16:36:00       13.806      259.242      -25.425       66.955      161.964       56.378     4483.028    26232.404     3178.429        5.096        1.695      259.609       77.408        0.089      339.208       12.383      863.525
10/03/2013  16:37:00      156.947      170.029       19.720      133.025      124.135       83.253    17695.619    15409.548     6931.118        4.698        2.002      231.392       49.131        0.045      339.271       12.485      863.520
10/03/2013  16:38:00      195.145      149.634        7.317      109.983      101.115       87.358    12096.335    10224.281     7631.418        4.523        1.498      245.910       69.048        0.079      339.261       12.471      863.513
10/03/2013  16:39:00      182.265       97.328       24.459       92.135       62.361       56.046     8488.925     3888.898     3141.177        2.940        0.776      206.623       31.802        0.024      339.283       12.508      863.529
10/03/2013  16:40:00       90.100      133.648      -11.601       96.395       89.827       51.341     9291.955     8068.815     2635.946        2.305        1.000      161.182       49.322        0.094      339.322       12.574      863.591
10/03/2013  16:41:00      -10.157      132.283       -6.118       87.872       97.247       46.892     7721.522     9457.019     2198.861        1.850        0.969      132.672       49.127        0.137      339.215       12.393      863.578
10/03/2013  16:42:00      -14.732      183.033      -27.170       54.926       81.611       35.051     3016.829     6660.339     1228.587        2.268        0.545      183.625       33.221        0.033      339.173       12.323      863.574
10/03/2013  16:43:00       25.112      157.325      -10.194       73.698       71.097       55.906     5431.322     5054.799     3125.439        1.955        0.681      159.317       45.732        0.082      339.198       12.366      863.600
10/03/2013  16:44:00      123.903      122.296       10.193      114.726       74.781       63.838    13162.123     5592.192     4075.287        2.662        1.141      174.093       49.995        0.082      339.232       12.424      863.612
10/03/2013  16:45:00       11.599       52.390       28.108       98.259       78.758       67.305     9654.755     6202.817     4529.946        1.202        1.019       53.659       20.398        0.145      339.335       12.597      863.583
10/03/2013  16:46:00        1.554      133.785       -5.009       92.869       87.642       46.130     8624.728     7681.101     2128.002        1.818        0.922      133.794       47.383        0.125      339.554       12.964      863.603
10/03/2013  16:47:00      -55.841      178.487      -29.592       61.242       90.707       40.174     3750.605     8227.675     1613.958        2.472        0.680      187.018       41.769        0.050      339.316       12.563      863.629
10/03/2013  16:48:00       -6.849      306.020      -47.372       54.594       83.520       27.865     2980.452     6975.573      776.464        5.333        0.537      306.096       26.828        0.008      338.887       11.841      863.643
10/03/2013  16:49:00      -89.247      276.102      -33.145       52.485       89.578       43.208     2754.666     8024.146     1866.922        4.897        0.632      290.167       41.612        0.021      339.113       12.220      863.657
10/03/2013  16:50:00       52.500      175.182      -13.866       73.252      115.916       64.673     5365.831    13436.513     4182.574        2.831        1.149      182.880       63.356        0.120      339.235       12.428      863.668
10/03/2013  16:51:00      138.474      182.311       13.389      116.816      130.465       99.449    13646.072    17021.038     9890.091        4.657        2.028      228.937       88.141        0.148      339.249       12.450      863.714
10/03/2013  16:52:00       76.273      156.280      -14.105       86.085      108.370       60.742     7410.597    11744.051     3689.625        2.664        1.142      173.899       55.199        0.101      339.056       12.126      863.750
10/03/2013  16:53:00       16.841      214.084      -18.872      100.700      129.356       49.180    10140.589    16733.080     2418.688        3.788        1.465      214.745       54.977        0.066      339.203       12.373      863.735
10/03/2013  16:54:00       48.733      324.977      -45.264       82.382      202.925       71.365     6786.747    41178.499     5092.991        8.154        2.653      328.611       97.170        0.087      339.199       12.367      863.728
10/03/2013  16:55:00       80.612      204.789       -5.317      140.985      163.748       68.430    19876.795    26813.476     4682.613        4.991        2.569      220.084       72.284        0.108      339.362       12.642      863.733
10/03/2013  16:56:00       55.523      302.477      -34.451       85.542      139.187       70.920     7317.374    19373.065     5029.616        6.373        1.586      307.530       79.909        0.068      339.239       12.433      863.752
10/03/2013  16:57:00      -17.664      379.423      -44.005       90.912      106.930       65.872     8264.993    11434.081     4339.133        8.512        1.202      379.834       63.112        0.028      339.158       12.296      863.761
10/03/2013  16:58:00      -56.151      373.173      -43.985       87.322      124.787       49.921     7625.134    15571.773     2492.070        8.501        1.284      377.374       53.600        0.020      339.114       12.222      863.753
10/03/2013  16:59:00        8.641      250.301      -18.070       89.342       99.502       57.670     7982.010     9900.739     3325.809        4.213        1.060      250.450       62.691        0.063      339.075       12.157      863.771
10/03/2013  17:00:00       58.051      157.228       -3.522       79.179      104.841       58.100     6269.247    10991.596     3375.586        2.437        1.032      167.603       61.186        0.133      339.083       12.171      863.757
10/03/2013  17:01:00      -78.038      341.141      -53.229      105.408      137.367       58.075    11110.835    18869.670     3372.706        7.932        1.668      349.953       63.777        0.033      339.197       12.362      863.779
10/03/2013  17:02:00      -45.589      495.625      -69.582       97.252      158.926       51.585     9457.964    25257.382     2660.994       14.496        1.869      497.718       54.793        0.012      339.207       12.379      863.792
10/03/2013  17:03:00       13.049      477.273      -70.987      121.236      165.637       76.222    14698.261    27435.763     5809.857       14.046        2.397      477.451       82.661        0.030      339.168       12.313      863.785
10/03/2013  17:04:00      230.331      213.257       26.561      170.174      109.448       88.607    28959.099    11978.762     7851.172        7.400        2.439      313.896       67.047        0.046      339.234       12.426      863.799
10/03/2013  17:05:00      156.219      124.283        9.593      121.290       97.135       71.613    14711.325     9435.261     5128.371        3.460        1.464      199.626       60.440        0.092      339.253       12.457      863.795
10/03/2013  17:06:00      156.773       63.198       35.018      104.021       66.605       59.421    10820.415     4436.253     3530.858        2.429        0.939      169.032       35.769        0.045      339.322       12.575      863.771
10/03/2013  17:07:00      321.571      239.155       37.596      135.703       92.129       79.874    18415.315     8487.824     6379.813        9.764        1.664      400.753       34.024        0.007      339.144       12.272      863.762
10/03/2013  17:08:00      173.630       87.217       58.662      147.106       89.665       70.974    21640.239     8039.746     5037.345        3.795        1.736      194.305       67.317        0.120      339.237       12.431      863.773
10/03/2013  17:09:00       88.515      235.080      -13.160      165.035      116.377       85.033    27236.504    13543.564     7230.679        5.563        2.401      251.192       63.462        0.064      339.201       12.370      863.779
10/03/2013  17:10:00      188.356      253.528       31.362      164.014      173.135      111.381    26900.561    29975.897    12405.655        8.500        3.464      315.840       99.717        0.100      339.215       12.395      863.777
10/03/2013  17:11:00      149.973       89.000       18.974      100.819       65.765       53.261    10164.551     4325.069     2836.753        2.405        0.866      174.393       26.552        0.023      339.308       12.550      863.843
10/03/2013  17:12:00      125.479       81.201       13.938      104.443       51.917       49.233    10908.335     2695.325     2423.855        1.928        0.801      149.461       29.970        0.040      339.384       12.678      863.860
10/03/2013  17:13:00      156.284      152.087       -1.151       78.290      100.356       66.343     6129.323    10071.333     4401.402        3.408        1.030      218.072       64.444        0.087      339.359       12.636      863.881
10/03/2013  17:14:00      150.188      113.794       17.974       85.638       66.605       52.161     7333.872     4436.189     2720.805        2.516        0.725      188.429       36.572        0.038      339.068       12.146      863.845
10/03/2013  17:15:00      119.858      194.597        8.918      161.336       96.148       62.227    26029.462     9244.520     3872.240        4.572        1.957      228.547       59.147        0.067      339.187       12.346      863.859
10/03/2013  17:16:00      289.911      202.398       20.705      135.770      102.376       83.450    18433.374    10480.898     6963.945        8.065        1.794      353.572       61.332        0.030      339.000       12.031      863.873
10/03/2013  17:17:00       98.644      100.839       18.561      114.108       71.875       51.605    13020.606     5166.002     2663.072        2.054        1.042      141.064       25.379        0.032      339.241       12.438      863.877
10/03/2013  17:18:00      116.427      155.906      -10.752      123.959       86.334       70.115    15365.920     7453.644     4916.123        3.285        1.387      194.581       44.485        0.052      339.155       12.293      863.880
10/03/2013  17:19:00      140.099      189.481        3.450      146.400      111.756       84.494    21432.839    12489.461     7139.290        4.829        2.053      235.650       72.701        0.095      338.977       11.993      863.877
10/03/2013  17:20:00      277.604      208.793       29.771      172.263      117.897       95.888    29674.678    13899.720     9194.522        8.715        2.638      347.360       52.108        0.023      338.965       11.973      863.866
10/03/2013  17:21:00      344.173      237.868       51.662      157.402      126.853       97.107    24775.431    16091.744     9429.695       11.399        2.515      418.373       54.967        0.017      338.964       11.971      863.856
10/03/2013  17:22:00      225.149      179.483       44.992      130.902       91.473       77.991    17135.313     8367.264     6082.557        5.825        1.579      287.934       43.652        0.023      339.059       12.130      863.903
10/03/2013  17:23:00      220.139      223.119        1.473      162.192      172.562      102.502    26306.152    29777.665    10506.753        8.240        3.330      313.438       94.976        0.092      339.025       12.072      863.911
10/03/2013  17:24:00      158.361      211.007       17.432      145.669      149.960      117.255    21219.436    22488.007    13748.692        6.367        2.873      263.822       99.836        0.143      338.912       11.884      863.949
10/03/2013  17:25:00      194.675      163.853       41.063      139.111       86.088       75.813    19351.908     7411.164     5747.651        4.947        1.626      254.453       48.982        0.037      338.945       11.939      863.957
10/03/2013  17:26:00       94.411      208.429      -11.598       87.511      119.052       68.130     7658.157    14173.296     4641.723        3.948        1.324      228.814       60.568        0.070      338.979       11.997      863.965
10/03/2013  17:27:00      125.833      297.706      -15.421      176.959      181.174      110.983    31314.619    32824.089    12317.323        9.056        3.823      323.207      114.459        0.125      338.889       11.845      863.946
10/03/2013  17:28:00      309.354      318.659       10.023      241.494      173.231      117.003    58319.366    30008.897    13689.617       14.966        5.101      444.121       96.553        0.047      338.759       11.625      863.954
10/03/2013  17:29:00      214.334      228.097        7.412      165.081      128.174      104.195    27251.628    16428.669    10856.499        7.627        2.727      312.997       91.536        0.086      338.785       11.669      863.967
10/03/2013  17:30:00       98.388      160.109        4.097      123.791       99.047       78.766    15324.240     9810.310     6204.026        3.333        1.567      187.923       61.869        0.108      338.901       11.865      863.981
10/03/2013  17:31:00      125.159      157.036        0.401      103.127      106.700       64.665    10635.089    11384.879     4181.503        3.326        1.310      200.811       63.640        0.100      338.921       11.897      864.012
10/03/2013  17:32:00      114.521      176.300        9.972      112.607       96.411       71.277    12680.341     9295.084     5080.380        3.567        1.353      210.230       60.313        0.082      338.927       11.907      864.042
10/03/2013  17:33:00      257.916      223.729        7.251      172.933      104.057       90.634    29905.772    10827.808     8214.514        8.278        2.447      341.431       86.847        0.065      338.769       11.642      864.057
10/03/2013  17:34:00      195.747      191.480       12.100      163.595      132.231       87.836    26763.427    17484.962     7715.216        6.354        2.598      273.827       80.570        0.087      338.732       11.581      864.064
10/03/2013  17:35:00      108.965      269.538      -18.765      113.236      166.035       82.893    12822.497    27567.544     6871.252        6.606        2.363      290.730       87.200        0.090      338.755       11.619      864.089
10/03/2013  17:36:00       70.637      162.363       -6.166       84.057      124.835       60.461     7065.515    15583.825     3655.535        2.884        1.315      177.063       59.548        0.113      338.787       11.673      864.110
10/03/2013  17:37:00       89.065      226.159      -19.107      125.463      137.982       88.480    15740.839    19039.068     7828.644        5.102        2.130      243.065       73.091        0.090      338.726       11.572      864.133
10/03/2013  17:38:00        3.447      400.942      -49.577       86.835      161.620       56.748     7540.325    26120.972     3220.290       10.005        1.844      400.957       56.855        0.020      338.713       11.548      864.148
10/03/2013  17:39:00       20.560      361.480      -47.630      109.674      162.715       59.312    12028.374    26476.306     3517.963        8.768        2.101      362.065       70.827        0.038      338.734       11.585      864.138
10/03/2013  17:40:00        0.940      290.996      -39.685       76.747      146.442       57.849     5890.179    21445.361     3346.546        5.846        1.534      290.997       59.786        0.042      338.751       11.614      864.145
10/03/2013  17:41:00       54.734      203.167      -23.332      113.406      160.699       66.136    12860.971    25824.207     4374.015        4.393        2.153      210.410       77.279        0.135      338.786       11.671      864.127
10/03/2013  17:42:00       93.949      238.977      -36.034       59.612      109.237       56.425     3553.604    11932.799     3183.772        4.295        0.934      256.781       58.877        0.053      338.805       11.703      864.131
10/03/2013  17:43:00      123.310      176.662       17.131      169.179      129.971       75.717    28621.583    16892.489     5733.005        4.897        2.562      215.441       67.263        0.097      338.809       11.709      864.138
10/03/2013  17:44:00       70.071      184.130      -12.304      126.127       98.789       63.927    15908.005     9759.270     4086.719        3.435        1.488      197.012       53.714        0.074      338.824       11.737      864.144
10/03/2013  17:45:00      246.652      204.977       42.700      183.941      127.497       96.072    33834.290    16255.483     9229.790        8.199        2.966      320.706       76.211        0.056      338.737       11.590      864.124
10/03/2013  17:46:00      152.046      207.231      -32.137      120.751      108.435       72.589    14580.742    11758.131     5269.192        4.935        1.580      257.026       60.669        0.056      338.687       11.504      864.162
10/03/2013  17:47:00      161.953      168.018       19.378      108.222       79.909       74.821    11711.907     6385.391     5598.140        3.926        1.185      233.364       50.536        0.047      338.715       11.551      864.175
10/03/2013  17:48:00      157.490      144.947       13.375      157.143       98.373       75.917    24693.836     9677.193     5763.421        4.305        2.007      214.039       52.813        0.061      338.702       11.530      864.202
10/03/2013  17:49:00      124.490      310.871      -34.606      101.076      180.976       87.758    10216.397    32752.483     7701.500        8.199        2.534      334.871       97.862        0.085      338.589       11.341      864.196
10/03/2013  17:50:00      156.637      217.738        7.578      164.123      154.971      101.022    26936.495    24016.118    10205.466        6.657        3.058      268.225       78.135        0.085      338.602       11.362      864.210
10/03/2013  17:51:00       48.967      296.931      -24.284      107.237      177.129       83.146    11499.723    31374.648     6913.314        7.046        2.489      300.941       93.840        0.097      338.639       11.424      864.218
10/03/2013  17:52:00       47.621      236.334      -36.889       94.626      141.155       55.580     8954.055    19924.624     3089.169        4.572        1.598      241.084       60.804        0.064      338.659       11.459      864.225
10/03/2013  17:53:00       64.617      344.991      -58.589       77.392      144.042       60.020     5989.462    20748.225     3602.360        7.848        1.517      350.990       70.430        0.040      338.674       11.483      864.225
10/03/2013  17:54:00       72.978      236.346      -18.582       95.686      152.913       72.895     9155.857    23382.474     5313.652        4.968        1.893      247.357       83.090        0.113      338.637       11.422      864.220
10/03/2013  17:55:00       76.886      139.933      -16.936       77.632       83.970       60.847     6026.762     7051.029     3702.392        2.128        0.839      159.664       54.391        0.116      338.694       11.518      864.220
10/03/2013  17:56:00       98.218      305.141      -22.113      128.695      166.361       97.237    16562.397    27675.826     9455.092        7.846        2.685      320.559      101.792        0.101      338.599       11.358      864.216
10/03/2013  17:57:00      103.446      249.297       -5.541      143.876      150.999       86.625    20700.289    22800.673     7503.851        6.193        2.550      269.907       85.921        0.101      338.560       11.291      864.235
10/03/2013  17:58:00      180.351      158.886       17.968      164.424       81.516       71.528    27035.144     6644.786     5116.193        4.844        1.940      240.357       41.373        0.030      338.539       11.257      864.239
10/03/2013  17:59:00       29.204      273.276      -36.551      110.521      108.923       62.864    12214.831    11864.318     3951.943        5.244        1.402      274.832       58.846        0.046      338.547       11.270      864.249
10/03/2013  18:00:00       57.496      205.847      -23.802       90.695      135.249       61.842     8225.519    18292.220     3824.450        3.829        1.517      213.726       78.605        0.135      338.554       11.280      864.251
10/03/2013  18:01:00      126.740       86.352       39.621      106.795       84.236       68.926    11405.183     7095.713     4750.775        2.417        1.163      153.361       46.158        0.091      338.558       11.289      864.239
10/03/2013  18:02:00      179.584      188.209       -4.474      132.268      105.390       78.537    17494.727    11107.003     6168.028        5.122        1.738      260.141       58.910        0.051      338.490       11.173      864.242
10/03/2013  18:03:00      100.291      268.732      -20.768      108.561      161.148       86.843    11785.478    25968.580     7541.682        6.399        2.265      286.837       89.819        0.098      338.497       11.186      864.255
10/03/2013  18:04:00      104.433      292.756      -14.534      106.173      178.022      100.409    11272.617    31691.750    10082.035        7.492        2.652      310.825      102.433        0.109      338.485       11.166      864.254
10/03/2013  18:05:00      103.634      254.943      -11.221      129.438      138.251       92.616    16754.201    19113.463     8577.809        6.014        2.222      275.202       86.856        0.100      338.474       11.146      864.260
10/03/2013  18:06:00      176.535      182.806       20.831      162.321      117.277      101.836    26348.231    13753.853    10370.514        5.773        2.524      254.131       70.022        0.076      338.428       11.069      864.249
10/03/2013  18:07:00      141.846      202.417      -10.065      131.919       89.714       60.385    17402.542     8048.682     3646.343        4.514        1.455      247.170       47.035        0.036      338.415       11.046      864.261
10/03/2013  18:08:00      153.101      155.440        7.412      129.955      110.980       73.726    16888.413    12316.633     5435.591        4.114        1.732      218.177       63.377        0.084      338.424       11.064      864.267
10/03/2013  18:09:00       47.448      208.827      -27.453       73.642       85.417       59.929     5423.200     7296.147     3591.503        3.146        0.816      214.150       57.630        0.072      338.429       11.071      864.291
10/03/2013  18:10:00      109.761      235.591       -3.714      138.105      156.687       94.605    19072.937    24550.886     8950.184        6.006        2.629      259.905       90.958        0.122      338.376       10.982      864.309
10/03/2013  18:11:00       55.064      310.403      -25.516      109.376      164.258       95.781    11963.057    26980.635     9173.987        7.407        2.406      315.249      104.075        0.109      338.343       10.925      864.314
10/03/2013  18:12:00       53.643      214.876       -3.943       89.043      152.849       74.511     7928.599    23362.902     5551.873        4.295        1.842      221.470       85.456        0.149      338.354       10.946      864.331
10/03/2013  18:13:00       63.159      236.093      -33.693       75.099      144.647       62.527     5639.931    20922.845     3909.676        4.566        1.524      244.395       78.961        0.104      338.358       10.951      864.345
10/03/2013  18:14:00       58.767      166.573        1.725       91.583      118.489       64.367     8387.485    14039.707     4143.145        2.888        1.329      176.635       60.611        0.118      338.354       10.947      864.357
10/03/2013  18:15:00      115.513      158.462        1.629      104.953      104.588       66.298    11015.204    10938.630     4395.480        3.240        1.317      196.096       51.858        0.070      338.344       10.930      864.366
10/03/2013  18:16:00       83.632      194.901      -13.992       89.107      174.661       73.972     7940.012    30506.456     5471.907        4.454        2.196      212.087       91.716        0.187      338.328       10.903      864.390
10/03/2013  18:17:00      155.814      224.729       22.215      133.864      149.801      106.621    17919.644    22440.466    11367.975        6.349        2.586      273.461       95.469        0.122      338.297       10.849      864.396
10/03/2013  18:18:00       40.283      182.592       -3.511       90.194      137.345       67.311     8134.992    18863.634     4530.808        3.325        1.576      186.983       50.710        0.074      338.281       10.826      864.402
10/03/2013  18:19:00      115.650      206.311      -10.774       98.253      128.506       84.098     9653.621    16513.794     7072.405        4.464        1.662      236.515       79.475        0.113      338.283       10.827      864.415
10/03/2013  18:20:00       44.833      171.577       -3.198       92.038      106.018       64.768     8470.918    11239.720     4194.875        2.768        1.195      177.337       66.309        0.140      338.277       10.817      864.425
10/03/2013  18:21:00      122.875      225.508       -1.321      120.441      125.727       80.946    14505.970    15807.279     6552.238        5.140        1.843      256.812       83.563        0.106      338.265       10.797      864.423
10/03/2013  18:22:00       95.622      271.024       -9.867      115.221      152.480       87.501    13275.883    23250.089     7656.441        6.343        2.209      287.398       92.176        0.103      338.231       10.739      864.441
10/03/2013  18:23:00       73.358      234.735      -20.432      109.889      138.599       81.154    12075.530    19209.693     6585.912        4.938        1.894      245.931       86.130        0.123      338.196       10.680      864.455
10/03/2013  18:24:00       76.334      348.996      -50.648       89.463      146.760       77.008     8003.690    21538.415     5930.305        8.282        1.774      357.247       85.717        0.058      338.209       10.703      864.479
10/03/2013  18:25:00       81.008      138.700        8.132       95.446      114.636       69.563     9109.880    13141.525     4838.967        2.647        1.355      160.624       67.135        0.175      338.199       10.686      864.498
10/03/2013  18:26:00       77.114      131.630       -1.671       71.859       87.561       56.894     5163.755     7666.903     3236.870        1.967        0.803      152.556       39.157        0.066      338.173       10.644      864.529
10/03/2013  18:27:00       89.272      139.437      -18.923       68.072       76.312       59.675     4633.820     5823.543     3561.100        2.089        0.701      165.566       47.519        0.082      338.157       10.615      864.535
10/03/2013  18:28:00      193.698      132.644       23.412       85.428       93.569       69.728     7297.948     8755.180     4862.007        3.828        1.046      234.762       53.867        0.053      338.137       10.581      864.550
10/03/2013  18:29:00       98.015      240.917      -22.472       93.149      124.694       83.034     8676.727    15548.575     6894.726        4.963        1.556      260.092       81.950        0.099      338.131       10.571      864.553
10/03/2013  18:30:00       92.514      232.677      -17.582      106.645      100.019       69.835    11373.186    10003.872     4876.977        4.462        1.313      250.395       59.575        0.057      338.146       10.595      864.552
10/03/2013  18:31:00      169.907      135.085       14.506      101.588       70.449       66.299    10320.066     4963.006     4395.501        3.350        0.984      217.063       44.872        0.043      338.137       10.580      864.549
10/03/2013  18:32:00       46.000      173.197      -17.489       87.384      126.009       62.507     7635.917    15878.318     3907.122        2.991        1.371      179.202       69.664        0.151      338.103       10.527      864.564
10/03/2013  18:33:00      112.200      228.107        5.428      123.856      181.069       96.787    15340.270    32785.849     9367.808        6.106        2.875      254.208      107.118        0.178      338.111       10.538      864.567
10/03/2013  18:34:00       69.631      229.682      -31.184       72.860      141.896       77.358     5308.522    20134.504     5984.308        4.499        1.571      240.004       90.096        0.141      338.109       10.534      864.570
10/03/2013  18:35:00      102.851      233.628      -31.176      118.203      159.110       65.030    13971.944    25315.861     4228.931        5.482        2.176      255.266       68.927        0.073      338.097       10.515      864.575
10/03/2013  18:36:00       43.028      292.359      -36.536       95.873      120.731       54.956     9191.589    14575.964     3020.217        5.772        1.339      295.508       62.796        0.045      338.094       10.508      864.570
10/03/2013  18:37:00      107.059      139.362       31.942       99.715       98.124       81.053     9943.148     9628.285     6569.660        2.902        1.307      175.737       59.947        0.116      338.046       10.429      864.586
10/03/2013  18:38:00      104.074      243.419      -15.904      125.952      148.848       89.523    15863.927    22155.801     8014.433        5.818        2.302      264.734       84.682        0.102      338.063       10.457      864.596
10/03/2013  18:39:00       59.013      201.296      -20.057       88.071      112.728       67.202     7756.511    12707.531     4516.089        3.469        1.249      209.768       66.537        0.101      338.052       10.438      864.631
10/03/2013  18:40:00      118.068      211.029      -13.211      100.282      134.781       61.437    10056.483    18166.036     3774.557        4.532        1.600      241.812       64.785        0.072      338.061       10.454      864.653
10/03/2013  18:41:00      122.030      138.952       18.809       91.713       86.070       80.648     8411.211     7408.074     6504.175        2.843        1.116      184.929       65.427        0.125      338.057       10.445      864.666
10/03/2013  18:42:00       55.350      115.742       14.197       80.584       93.935       66.875     6493.810     8823.786     4472.316        1.822        0.989      128.296       59.533        0.215      338.004       10.361      864.676
10/03/2013  18:43:00       71.331      279.494      -27.501       85.384      121.373       79.006     7290.367    14731.335     6241.986        5.611        1.413      288.453       71.452        0.061      338.037       10.413      864.687
10/03/2013  18:44:00       29.426      267.813      -19.088       76.778      137.420       68.882     5894.873    18884.246     4744.688        5.123        1.476      269.424       85.393        0.100      338.050       10.435      864.679
10/03/2013  18:45:00        5.833      216.292      -15.250       83.336      110.907       65.147     6944.885    12300.382     4244.083        3.526        1.174      216.371       52.877        0.060      338.033       10.409      864.697
10/03/2013  18:46:00       26.791      249.896      -28.189       80.880      156.147       61.862     6541.576    24381.968     3826.856        4.935        1.738      251.328       78.119        0.097      338.026       10.397      864.696
10/03/2013  18:47:00       85.599      115.920       -9.037       87.401      112.507       44.702     7638.993    12657.820     1998.265        2.157        1.115      144.099       44.011        0.093      337.985       10.328      864.702
10/03/2013  18:48:00       70.760      155.747       -0.429       81.039       95.231       54.886     6567.393     9069.023     3012.508        2.395        0.932      171.067       57.933        0.115      337.983       10.325      864.706
10/03/2013  18:49:00       56.454       58.489        9.355       52.232       47.284       42.148     2728.221     2235.743     1776.426        0.672        0.337       81.289       31.249        0.148      337.940       10.254      864.715
10/03/2013  18:50:00       31.707      180.920      -21.481       67.290      106.084       51.584     4527.962    11253.722     2660.935        2.632        0.922      183.677       52.885        0.083      337.959       10.282      864.715
10/03/2013  18:51:00        3.916      306.708      -33.621      102.787      146.949       62.863    10565.097    21593.952     3951.776        6.566        1.806      306.733       75.704        0.061      337.967       10.296      864.715
10/03/2013  18:52:00       77.912      163.725       -8.553       76.827      109.429       73.385     5902.328    11974.631     5385.411        2.810        1.163      181.318       70.237        0.150      337.952       10.270      864.730
10/03/2013  18:53:00       90.314      199.902       -1.308      103.576      144.916       83.658    10727.956    21000.786     6998.583        4.342        1.936      219.357       90.240        0.169      337.943       10.257      864.744
10/03/2013  18:54:00       52.958      164.334      -11.499       96.118      129.439       70.536     9238.586    16754.468     4975.370        3.045        1.548      172.656       72.046        0.174      337.907       10.197      864.772
10/03/2013  18:55:00       22.760      166.738        3.661       63.949      132.402       57.815     4089.472    17530.159     3342.542        2.664        1.248      168.284       63.904        0.144      337.887       10.162      864.803
10/03/2013  18:56:00       47.208      160.876      -14.631       56.745       94.844       53.991     3220.019     8995.345     2915.042        2.172        0.757      167.659       54.069        0.104      337.870       10.134      864.812
10/03/2013  18:57:00       73.353      145.663        2.983       74.376       83.785       55.543     5531.826     7019.919     3085.077        2.112        0.782      163.090       48.026        0.087      337.880       10.151      864.825
10/03/2013  18:58:00       25.368      140.655       -0.175       49.566       97.534       50.816     2456.759     9512.846     2582.267        1.749        0.728      142.925       50.153        0.123      337.861       10.120      864.837
10/03/2013  18:59:00       75.772       94.994        1.938       41.109       58.581       49.542     1689.930     3431.747     2454.399        1.117        0.379      121.512       37.219        0.094      337.854       10.109      864.843
10/03/2013  19:00:00       99.848      127.350        9.817       82.913       83.644       66.441     6874.508     6996.352     4414.419        2.228        0.914      161.826       55.628        0.118      337.859       10.116      864.858
10/03/2013  19:01:00       58.317      139.294       -3.529       91.133      120.917       66.454     8305.149    14620.815     4416.081        2.507        1.367      151.009       63.159        0.175      337.831       10.069      864.879
10/03/2013  19:02:00       51.502      237.753      -29.480       63.297      127.066       60.471     4006.518    16145.705     3656.762        4.192        1.190      243.267       65.600        0.073      337.867       10.127      864.905
10/03/2013  19:03:00       66.900      162.448       -7.308       61.747       93.826       61.228     3812.697     8803.398     3748.812        2.364        0.818      175.685       55.130        0.098      337.843       10.089      864.927
10/03/2013  19:04:00       31.048      209.492      -35.193       59.032      106.122       42.415     3484.774    11261.958     1799.022        3.131        0.827      211.780       46.037        0.047      337.858       10.111      864.950
10/03/2013  19:05:00       36.521      152.853        9.807       72.725      121.274       66.375     5288.981    14707.322     4405.683        2.459        1.220      157.155       71.873        0.209      337.811       10.037      864.958
10/03/2013  19:06:00       75.464      146.446       18.946       84.381      123.606       75.695     7120.106    15278.353     5729.752        2.781        1.406      164.746       78.258        0.226      337.830       10.068      864.970
10/03/2013  19:07:00      107.225      188.339        4.856      108.178      115.725       93.135    11702.531    13392.191     8674.167        4.037        1.688      216.723       79.864        0.136      337.863       10.120      864.966
10/03/2013  19:08:00       68.372      254.295      -22.686       88.779      111.831       58.894     7881.716    12506.156     3468.509        4.685        1.193      263.326       61.532        0.055      337.853       10.104      864.978
10/03/2013  19:09:00       57.579      250.277      -16.655      112.536      164.795       68.459    12664.411    27157.420     4686.569        5.536        2.225      256.815       84.663        0.109      337.857       10.111      864.979
10/03/2013  19:10:00       19.140      272.916      -21.456       61.054      129.624       61.450     3727.556    16802.412     3776.111        4.980        1.215      273.587       69.145        0.064      337.859       10.115      864.992
10/03/2013  19:11:00       46.585      145.634       -1.808       81.665       91.125       56.401     6669.119     8303.843     3181.127        2.076        0.908      152.903       55.100        0.130      337.813       10.039      865.000
10/03/2013  19:12:00       43.438      159.193      -17.147       61.980       90.966       55.037     3841.486     8274.832     3029.120        2.133        0.757      165.013       60.998        0.137      337.839       10.083      865.006
10/03/2013  19:13:00       66.048      107.025       12.680       65.705       82.162       59.022     4317.174     6750.646     3483.596        1.526        0.728      125.765       52.846        0.177      337.803       10.024      865.012
10/03/2013  19:14:00       71.444      157.461       -2.532       90.787      111.026       81.724     8242.231    12326.853     6678.774        2.857        1.362      172.911       68.944        0.159      337.806       10.026      865.015
10/03/2013  19:15:00       62.556      216.242       -8.659       81.255      122.218       78.015     6602.422    14937.118     6086.269        3.918        1.381      225.108       76.936        0.117      337.804       10.022      865.022
10/03/2013  19:16:00       59.776      109.021        9.143       63.649       98.656       63.526     4051.168     9733.076     4035.589        1.668        0.891      124.333       53.653        0.186      337.778        9.980      865.036
10/03/2013  19:17:00       81.416      137.546       14.780       78.618       96.445       76.078     6180.829     9301.598     5787.931        2.351        1.064      159.836       66.377        0.172      337.776        9.976      865.043
10/03/2013  19:18:00       62.107      140.122       -2.162       60.755      113.091       61.434     3691.193    12789.490     3774.181        2.187        1.013      153.269       63.091        0.169      337.769        9.965      865.059
10/03/2013  19:19:00       36.059      121.838        7.552       62.905      110.405       62.081     3957.075    12189.228     3854.022        1.810        1.000      127.062       68.886        0.294      337.737        9.912      865.084
10/03/2013  19:20:00       50.629      182.207      -19.373       73.943      138.915       67.820     5467.641    19297.249     4599.527        3.275        1.468      189.110       73.121        0.150      337.752        9.937      865.101
10/03/2013  19:21:00       61.257      195.941       -1.713       84.316      134.685       73.076     7109.222    18140.029     5340.096        3.636        1.529      205.293       75.116        0.134      337.801       10.019      865.122
10/03/2013  19:22:00       58.902      198.473      -20.152       67.735       97.225       50.313     4588.020     9452.611     2531.406        2.992        0.829      207.029       54.276        0.069      337.783        9.987      865.140
10/03/2013  19:23:00       58.819      164.402      -14.381       63.526      103.704       57.971     4035.600    10754.573     3360.692        2.442        0.908      174.607       57.245        0.107      337.789        9.997      865.141
10/03/2013  19:24:00       47.862      128.371       -5.795       60.726       77.635       50.046     3687.606     6027.157     2504.647        1.551        0.611      137.003       50.971        0.138      337.725        9.891      865.158
10/03/2013  19:25:00       90.851      175.905       -4.464       96.449      155.868       73.374     9302.392    24294.748     5383.718        3.909        1.949      197.981       84.289        0.181      337.767        9.962      865.159
10/03/2013  19:26:00      105.021      146.646       11.354      123.550       96.334       60.020    15264.627     9280.222     3602.458        3.040        1.407      180.373       56.483        0.098      337.778        9.980      865.170
10/03/2013  19:27:00       27.805      275.104      -29.923       59.441       78.659       47.452     3533.180     6187.173     2251.650        4.466        0.599      276.505       32.769        0.014      337.762        9.952      865.168
10/03/2013  19:28:00       89.335      152.312      -17.233       72.889       81.179       47.973     5312.798     6590.037     2301.391        2.284        0.710      176.578       48.706        0.076      337.754        9.939      865.170
10/03/2013  19:29:00       53.384      125.563       -4.661       47.980       68.101       39.618     2302.066     4637.749     1569.563        1.357        0.425      136.440       38.337        0.079      337.743        9.923      865.169
10/03/2013  19:30:00       47.209      159.642       -6.862       63.770      103.109       56.891     4066.604    10631.463     3236.617        2.284        0.897      166.476       59.881        0.129      337.724        9.889      865.170
10/03/2013  19:31:00       56.225      159.670       -4.332       61.394       95.167       50.884     3769.205     9056.770     2589.200        2.204        0.771      169.281       46.804        0.076      337.706        9.859      865.191
10/03/2013  19:32:00       71.685      157.591        4.615       69.056      112.241       74.699     4768.710    12597.972     5579.915        2.647        1.147      173.129       71.703        0.172      337.711        9.869      865.210
10/03/2013  19:33:00       63.612      214.914      -19.755       78.176      134.239       66.545     6111.562    18020.193     4428.174        3.959        1.428      224.130       67.315        0.090      337.721        9.885      865.235
10/03/2013  19:34:00       58.951      161.252       -1.388       71.012      116.355       69.429     5042.692    13538.599     4820.369        2.644        1.170      171.690       75.684        0.194      337.699        9.849      865.245
10/03/2013  19:35:00       84.129      187.333      -11.126       77.042      134.948       68.257     5935.427    18210.956     4659.068        3.554        1.440      205.357       72.079        0.123      337.733        9.904      865.256
10/03/2013  19:36:00       59.225      155.208       -7.610       70.729       90.761       55.973     5002.633     8237.491     3132.929        2.201        0.819      166.124       54.257        0.107      337.708        9.862      865.250
10/03/2013  19:37:00      103.820      184.674      -10.893       84.468       93.821       63.427     7134.842     8802.446     4022.992        3.248        0.998      211.857       61.164        0.083      337.695        9.840      865.256
10/03/2013  19:38:00       90.374      180.434        2.880      103.929      100.020       75.783    10801.326    10003.980     5743.107        3.363        1.327      201.802       74.412        0.136      337.722        9.885      865.260
10/03/2013  19:39:00       67.278      114.346       -5.483       67.636       98.366       53.964     4574.646     9675.899     2912.081        1.739        0.858      132.670       61.095        0.212      337.677        9.812      865.270
10/03/2013  19:40:00       61.226      115.244        7.379       71.894       81.158       59.135     5168.734     6586.562     3496.998        1.617        0.763      130.498       54.082        0.172      337.679        9.816      865.289
10/03/2013  19:41:00       90.460      122.626       -6.930       86.220       81.431       58.142     7433.853     6630.959     3380.502        2.035        0.872      152.382       52.860        0.120      337.654        9.773      865.294
10/03/2013  19:42:00       85.275      116.881        5.722       73.351       71.969       53.943     5380.332     5179.526     2909.877        1.722        0.673      144.683       46.017        0.101      337.644        9.757      865.301
10/03/2013  19:43:00      107.330      129.017       10.056       82.779       99.174       75.306     6852.290     9835.513     5670.972        2.531        1.118      167.825       63.134        0.142      337.637        9.744      865.288
10/03/2013  19:44:00       68.451      108.933      -12.319       56.883       60.830       45.850     3235.636     3700.285     2102.249        1.287        0.452      128.654       33.259        0.067      337.590        9.666      865.309
10/03/2013  19:45:00       49.998       76.596       12.905       68.590       65.386       53.305     4704.561     4275.390     2841.394        1.017        0.591       91.470       38.099        0.173      337.544        9.589      865.314
10/03/2013  19:46:00       93.513      108.991       -2.976       54.260       78.985       59.544     2944.187     6238.598     3545.444        1.668        0.636      143.610       55.155        0.148      337.575        9.642      865.310
10/03/2013  19:47:00       92.165      130.180        0.287       81.886       82.427       62.235     6705.362     6794.252     3873.234        2.140        0.869      159.503       54.040        0.115      337.595        9.673      865.310
10/03/2013  19:48:00      104.614      150.997       -1.562       90.383       61.787       48.439     8169.097     3817.686     2346.363        2.404        0.717      183.696       39.833        0.047      337.584        9.655      865.319
10/03/2013  19:49:00       44.985      122.336        1.364       56.990       84.668       52.271     3247.841     7168.618     2732.232        1.507        0.657      130.344       54.319        0.174      337.535        9.574      865.343
10/03/2013  19:50:00       53.997      168.296       -7.268       62.664       90.457       61.477     3926.787     8182.474     3779.463        2.359        0.794      176.746       59.407        0.113      337.530        9.564      865.335
10/03/2013  19:51:00       69.415      144.670        8.227       84.260       99.676       70.846     7099.697     9935.231     5019.086        2.393        1.103      160.461       60.631        0.143      337.543        9.586      865.323
10/03/2013  19:52:00       99.836      104.942        8.902       94.620       81.987       63.948     8952.979     6721.863     4089.373        2.041        0.988      144.845       52.148        0.130      337.544        9.588      865.326
10/03/2013  19:53:00       51.019      110.650        4.638       66.862       76.787       54.563     4470.575     5896.254     2977.079        1.410        0.667      121.846       47.822        0.154      337.508        9.529      865.310
10/03/2013  19:54:00       49.242       94.696        9.649       62.924       71.605       44.478     3959.375     5127.224     1978.275        1.127        0.553      106.734       41.289        0.150      337.476        9.475      865.301
10/03/2013  19:55:00       75.245      114.085        1.484       64.274       82.706       52.079     4131.171     6840.236     2712.222        1.618        0.684      136.665       53.456        0.153      337.471        9.465      865.298
10/03/2013  19:56:00       41.773      162.513      -10.615       58.004       73.458       48.320     3364.488     5396.064     2334.815        1.968        0.555      167.796       41.812        0.062      337.472        9.467      865.293
10/03/2013  19:57:00       52.059      137.850       -8.861       68.498      124.228       54.328     4692.003    15432.578     2951.536        2.243        1.154      147.352       63.561        0.186      337.441        9.416      865.305
10/03/2013  19:58:00       50.456      138.774      -10.940       47.846      108.160       49.159     2289.202    11698.652     2416.646        1.916        0.820      147.661       55.637        0.142      337.455        9.438      865.321
10/03/2013  19:59:00       75.149      158.368        6.899       91.794       80.637       58.262     8426.208     6502.358     3394.494        2.455        0.916      175.294       53.661        0.094      337.477        9.475      865.337
10/03/2013  20:00:00       41.074      143.797      -17.044       64.144       97.715       51.524     4114.489     9548.176     2654.750        1.948        0.816      149.548       49.412        0.109      337.473        9.470      865.361
10/03/2013  20:01:00       61.641      109.433        2.441       65.904       62.943       50.176     4343.378     3961.760     2517.593        1.330        0.541      125.599       41.978        0.112      337.392        9.334      865.374
10/03/2013  20:02:00       52.610       95.464       -0.755       53.792       67.098       48.704     2893.628     4502.077     2372.039        1.082        0.488      109.001       44.130        0.164      337.342        9.249      865.377
10/03/2013  20:03:00       78.078       84.478        9.068       93.835       64.315       64.270     8805.100     4136.427     4130.691        1.519        0.854      115.033       44.282        0.148      337.404        9.354      865.403
10/03/2013  20:04:00       67.093      128.775      -22.994       65.185       77.800       41.865     4249.114     6052.869     1752.690        1.683        0.603      145.205       41.646        0.082      337.397        9.344      865.420
10/03/2013  20:05:00       63.778       82.906        5.230       72.445       47.858       43.924     5248.239     2290.392     1929.341        1.022        0.473      104.600       34.105        0.106      337.378        9.311      865.435
10/03/2013  20:06:00       77.353      132.711        3.883      119.361       76.411       62.910    14247.135     5838.588     3957.650        2.382        1.202      153.609       36.193        0.056      337.460        9.448      865.446
10/03/2013  20:07:00       72.860      105.991       -0.142       77.875       71.555       56.676     6064.478     5120.058     3212.181        1.547        0.720      128.618       49.074        0.146      337.450        9.430      865.460
10/03/2013  20:08:00       53.721      104.462       -4.833       60.611       55.722       40.244     3673.722     3104.895     1619.579        1.111        0.420      117.466       35.276        0.090      337.359        9.279      865.476
10/03/2013  20:09:00       60.197      111.333      -13.420       49.506       67.757       46.494     2450.856     4591.015     2161.717        1.270        0.460      126.565       37.655        0.089      337.390        9.330      865.480
10/03/2013  20:10:00      100.556       92.596       25.543      100.400       65.870       57.930    10080.089     4338.818     3355.868        1.855        0.889      136.695       48.745        0.127      337.378        9.312      865.498
10/03/2013  20:11:00       65.808       98.903       17.447       81.402       76.500       64.559     6626.366     5852.218     4167.912        1.553        0.832      118.796       44.340        0.139      337.524        9.555      865.506
10/03/2013  20:12:00       48.416       93.309       -2.510       49.224       60.529       43.249     2423.037     3663.755     1870.506        0.951        0.398      105.122       38.374        0.133      337.418        9.380      865.522
10/03/2013  20:13:00      103.974       93.671       16.129       83.367       73.039       54.425     6949.982     5334.766     2962.063        1.754        0.762      139.946       47.536        0.115      337.429        9.396      865.539
10/03/2013  20:14:00      161.456      128.446       26.384      104.691       63.753       63.050    10960.208     4064.386     3975.261        3.113        0.950      206.316       31.755        0.024      337.548        9.594      865.544
10/03/2013  20:15:00      133.994      101.509       18.730       94.667       65.100       69.937     8961.899     4237.983     4891.185        2.335        0.905      168.102       48.672        0.084      337.573        9.636      865.559
10/03/2013  20:16:00      141.449       99.752       15.276       80.259       65.883       53.778     6441.538     4340.547     2892.126        2.193        0.684      173.085       48.314        0.078      337.519        9.544      865.572
10/03/2013  20:17:00       85.034      106.930       44.161      103.852       67.787       72.193    10785.135     4595.095     5211.806        2.060        1.030      136.619       54.788        0.161      337.522        9.551      865.553
10/03/2013  20:18:00      185.433      129.932       30.548       95.467       67.985       57.152     9114.030     4622.008     3266.406        3.460        0.850      226.424       30.656        0.018      337.529        9.563      865.591
10/03/2013  20:19:00      123.053      133.266        8.044       92.066       85.627       58.098     8476.087     7331.932     3375.392        2.607        0.959      181.389       48.560        0.072      337.562        9.618      865.600
10/03/2013  20:20:00      201.672      140.703       11.354      116.276       74.769       53.342    13520.141     5590.407     2845.357        4.127        1.098      245.904       27.980        0.013      337.568        9.627      865.603
10/03/2013  20:21:00      131.959       87.828       22.874       67.400       46.168       50.804     4542.796     2131.476     2581.067        1.745        0.463      158.515       29.931        0.036      337.558        9.611      865.614
10/03/2013  20:22:00      122.330      109.707       -7.377       46.131       43.482       45.874     2128.050     1890.649     2104.421        1.659        0.306      164.318       33.061        0.040      337.517        9.544      865.623
10/03/2013  20:23:00      154.562      103.996       25.667       88.128       59.194       66.393     7766.613     3503.938     4408.083        2.552        0.784      186.292       43.388        0.054      337.626        9.725      865.637
10/03/2013  20:24:00      166.149      115.095       18.648       69.817       49.939       49.980     4874.434     2493.937     2497.995        2.553        0.493      202.120       34.875        0.030      337.589        9.663      865.645
10/03/2013  20:25:00      147.027      103.611       25.437       65.171       56.286       43.820     4247.288     3168.142     1920.164        2.117        0.467      179.867       24.887        0.019      337.594        9.672      865.662
10/03/2013  20:26:00      174.717      127.574       13.178      128.225       81.138       53.176    16441.697     6583.329     2827.740        3.641        1.293      216.336       30.007        0.019      337.603        9.685      865.665
10/03/2013  20:27:00      107.560       77.613        9.190       83.382       50.447       53.754     6952.607     2544.907     2889.506        1.503        0.619      132.638       36.003        0.074      337.545        9.590      865.692
10/03/2013  20:28:00       75.933       87.956       11.215       85.582       70.281       57.982     7324.311     4939.441     3361.921        1.462        0.781      116.198       46.516        0.160      337.515        9.540      865.701
10/03/2013  20:29:00      118.412       93.983       13.155       69.360       58.628       59.603     4810.875     3437.286     3552.507        1.741        0.590      151.177       35.859        0.056      337.565        9.623      865.705
10/03/2013  20:30:00       96.116       83.555        9.281       53.157       49.394       42.781     2825.621     2439.719     1830.253        1.170        0.355      127.357       31.034        0.059      337.532        9.569      865.723
10/03/2013  20:31:00       82.940       61.371       19.414       59.415       36.747       28.122     3530.200     1350.341      790.852        0.835        0.284      103.177       19.373        0.035      337.495        9.507      865.725
10/03/2013  20:32:00      173.135      149.576       20.674      130.467       89.270       65.659    17021.524     7969.181     4311.058        4.103        1.465      228.798       48.305        0.045      337.524        9.553      865.734
10/03/2013  20:33:00      176.861      156.963       13.853      132.373       80.196       71.461    17522.709     6431.401     5106.738        4.258        1.453      236.468       54.932        0.054      337.540        9.581      865.719
10/03/2013  20:34:00      132.739      144.681       -0.661      115.534       76.660       55.872    13348.207     5876.793     3121.627        3.045        1.117      196.347       42.925        0.048      337.503        9.518      865.728
10/03/2013  20:35:00      179.730      123.702       26.773       91.491       60.376       46.972     8370.639     3645.294     2206.323        3.127        0.711      218.186       37.983        0.030      337.491        9.498      865.716
10/03/2013  20:36:00      164.562      135.353       24.974       93.165       68.172       47.215     8679.807     4647.442     2229.216        3.079        0.778      213.075       36.909        0.030      337.467        9.458      865.726
10/03/2013  20:37:00      151.937      106.582       11.177       81.584       53.771       39.885     6655.889     2891.276     1590.780        2.285        0.557      185.593       18.271        0.010      337.412        9.367      865.728
10/03/2013  20:38:00      132.005      102.909       22.558       94.228       72.514       44.949     8878.955     5258.243     2020.432        2.234        0.808      167.379       28.391        0.029      337.403        9.353      865.732
10/03/2013  20:39:00      201.245      150.620       32.012      127.113       90.649       70.496    16157.801     8217.210     4969.737        4.677        1.467      251.368       40.622        0.026      337.480        9.479      865.740
10/03/2013  20:40:00      203.949      135.455       21.920       79.766       68.326       47.991     6362.600     4668.467     2303.179        3.688        0.667      244.833       22.482        0.008      337.434        9.402      865.757
10/03/2013  20:41:00      255.033      255.586       22.586      165.506      120.300      101.379    27392.321    14472.078    10277.754        9.150        2.607      361.063       76.343        0.045      337.574        9.636      865.731
10/03/2013  20:42:00      258.010      172.481       34.754      131.189      103.658       84.037    17210.598    10744.881     7062.157        6.626        1.751      310.352       61.924        0.040      337.567        9.624      865.751
10/03/2013  20:43:00      151.166      148.923       31.343      138.946      112.110       72.381    19306.087    12568.640     5238.959        4.156        1.856      212.201       63.889        0.091      337.569        9.630      865.746
10/03/2013  20:44:00      197.837      176.579        9.373      156.556      119.577       79.618    24509.819    14298.772     6338.983        5.777        2.257      265.178       57.295        0.047      337.608        9.693      865.767
10/03/2013  20:45:00      161.848      161.632       14.956      129.921       80.877       88.743    16879.337     6541.125     7875.249        4.191        1.565      228.735       69.308        0.092      337.596        9.676      865.764
10/03/2013  20:46:00      195.665      165.717       14.100       99.212       89.307       74.006     9843.001     7975.732     5476.842        4.462        1.165      256.411       54.401        0.045      337.581        9.648      865.786
10/03/2013  20:47:00      279.985      183.464       38.640      105.756       76.457       66.431    11184.358     5845.704     4413.111        6.749        1.072      334.740       29.253        0.008      337.625        9.723      865.795
10/03/2013  20:48:00      222.260      143.544       33.324      127.921       85.902       65.571    16363.802     7379.179     4299.565        4.957        1.402      264.584       31.089        0.014      337.614        9.703      865.796
10/03/2013  20:49:00       99.259      122.814        6.563       98.113       65.480       63.956     9626.178     4287.612     4090.347        2.149        0.900      157.910       44.902        0.081      337.561        9.616      865.825
10/03/2013  20:50:00      184.502      173.427       -5.267      101.192       90.123       65.262    10239.785     8122.164     4259.079        4.338        1.131      253.215       52.337        0.043      337.555        9.603      865.858
10/03/2013  20:51:00      138.322      126.786       34.255       90.550       87.503       82.977     8199.380     7656.763     6885.149        2.956        1.137      187.637       56.450        0.091      337.570        9.632      865.877
10/03/2013  20:52:00      206.110      136.846       25.684       98.963       66.547       60.092     9793.744     4428.503     3611.075        3.985        0.892      247.403       36.057        0.021      337.550        9.595      865.908
10/03/2013  20:53:00      114.654      104.580        8.756       80.984       53.806       39.429     6558.446     2895.082     1554.644        1.758        0.550      155.185       22.817        0.022      337.497        9.511      865.918
10/03/2013  20:54:00       59.602      102.268       -3.592       73.166       74.697       46.147     5353.306     5579.663     2129.516        1.354        0.653      118.369       41.807        0.125      337.443        9.420      865.914
10/03/2013  20:55:00       31.474      112.015      -13.903       51.729       80.997       39.468     2675.892     6560.572     1557.702        1.226        0.540      116.353       45.342        0.152      337.361        9.283      865.930
10/03/2013  20:56:00       15.929       68.407        7.712       41.607       76.951       40.867     1731.130     5921.466     1670.115        0.716        0.466       70.237       46.445        0.437      337.236        9.074      865.915
10/03/2013  20:57:00       16.666      119.955       -2.769       38.067       71.563       41.100     1449.132     5121.290     1689.187        1.147        0.413      121.107       42.087        0.121      337.173        8.969      865.915
10/03/2013  20:58:00       46.594      135.560        5.788       50.874       86.300       55.443     2588.125     7447.758     3073.918        1.684        0.655      143.344       58.183        0.165      337.156        8.940      865.922
10/03/2013  20:59:00       18.695      176.845      -12.031       46.118       79.447       41.560     2126.906     6311.827     1727.201        2.097        0.508      177.831       43.813        0.061      337.126        8.887      865.918
10/03/2013  21:00:00       26.140      226.049      -23.182       55.877       68.630       48.227     3122.290     4710.044     2325.847        3.124        0.508      227.556       45.134        0.039      337.093        8.831      865.923
10/03/2013  21:01:00       36.014      150.644       -1.976       54.102       81.774       55.886     2926.976     6686.994     3123.240        1.836        0.637      154.889       50.829        0.108      337.048        8.757      865.937
10/03/2013  21:02:00       20.575      220.791      -24.542       62.325       74.954       42.953     3884.413     5618.157     1844.919        3.056        0.567      221.748       47.012        0.045      337.060        8.775      865.945
10/03/2013  21:03:00       30.288      211.023      -18.676       53.345       81.377       49.425     2845.700     6622.244     2442.876        2.885        0.596      213.186       47.337        0.049      337.030        8.725      865.949
10/03/2013  21:04:00       39.539      167.732        0.596       59.943       99.675       61.624     3593.139     9935.061     3797.488        2.351        0.866      172.329       69.214        0.161      336.983        8.648      865.957
10/03/2013  21:05:00       35.960      137.481       -4.313       52.785       90.412       53.440     2786.218     8174.277     2855.835        1.701        0.691      142.106       58.909        0.172      336.930        8.560      865.965
10/03/2013  21:06:00       43.451      146.450       -2.240       68.132       94.393       58.064     4641.942     8910.080     3371.422        2.013        0.846      152.760       56.277        0.136      336.925        8.551      865.987
10/03/2013  21:07:00       38.249      129.505       -8.734       68.233       99.399       54.999     4655.738     9880.091     3024.906        1.793        0.878      135.036       59.335        0.193      336.911        8.529      865.999
10/03/2013  21:08:00       24.066      122.022       -5.616       47.560       72.491       44.624     2261.997     5255.008     1991.281        1.250        0.475      124.372       41.990        0.114      336.868        8.459      866.006
10/03/2013  21:09:00       25.253      169.592       -9.831       39.282       69.873       35.518     1543.047     4882.184     1261.543        1.859        0.384      171.461       32.659        0.036      336.848        8.424      866.020
10/03/2013  21:10:00       37.568      127.583      -12.148       37.178       46.345       36.729     1382.239     2147.850     1348.985        1.136        0.244      133.000       33.637        0.064      336.818        8.376      866.042
10/03/2013  21:11:00       33.320       92.936       -3.994       46.431       58.695       40.632     2155.799     3445.153     1650.920        0.851        0.363       98.729       37.879        0.147      336.819        8.377      866.058
10/03/2013  21:12:00       39.578       64.682       16.630       51.893       56.495       47.892     2692.853     3191.657     2293.672        0.710        0.409       75.830       35.641        0.221      336.786        8.321      866.074
10/03/2013  21:13:00       42.036      105.851        7.462       45.781       65.585       46.173     2095.930     4301.344     2131.980        1.078        0.426      113.892       45.260        0.158      336.785        8.321      866.085
10/03/2013  21:14:00       58.207       95.091        1.034       57.855       77.115       60.141     3347.208     5946.646     3616.923        1.267        0.646      111.492       55.258        0.246      336.837        8.406      866.096
10/03/2013  21:15:00       29.794      138.466       -0.011       48.391       86.525       48.821     2341.666     7486.551     2383.456        1.613        0.611      141.636       43.832        0.096      336.819        8.375      866.115
10/03/2013  21:16:00       53.605      124.733        4.039       68.065       79.594       52.560     4632.840     6335.145     2762.594        1.609        0.687      135.764       48.547        0.128      336.798        8.341      866.116
10/03/2013  21:17:00       29.779      168.415      -14.446       54.014       91.403       49.787     2917.477     8354.488     2478.731        2.160        0.688      171.027       52.933        0.096      336.827        8.387      866.119
10/03/2013  21:18:00       16.668      151.156       -7.339       50.652       79.059       52.296     2565.654     6250.389     2734.916        1.736        0.578      152.072       50.234        0.109      336.836        8.405      866.120
10/03/2013  21:19:00       23.645      205.684      -15.575       52.597      111.766       49.979     2766.495    12491.671     2497.900        3.043        0.888      207.039       50.950        0.061      336.823        8.381      866.117
10/03/2013  21:20:00       28.792      221.932      -14.088       56.692      104.850       59.765     3214.002    10993.439     3571.798        3.403        0.889      223.792       63.743        0.081      336.863        8.448      866.106
10/03/2013  21:21:00       22.795      146.719       -7.955       57.287       74.694       52.685     3281.783     5579.242     2775.719        1.687        0.582      148.480       43.232        0.085      336.830        8.394      866.116
10/03/2013  21:22:00       39.299      243.152      -32.079       52.379      113.209       52.121     2743.549    12816.219     2716.577        3.998        0.914      246.307       57.430        0.054      336.887        8.487      866.113
10/03/2013  21:23:00       32.803      197.061      -12.214       64.119      111.527       60.608     4111.265    12438.215     3673.386        3.014        1.011      199.772       68.516        0.118      336.874        8.466      866.113
10/03/2013  21:24:00       38.732      140.332       -2.577       54.868      102.891       58.222     3010.465    10586.652     3389.769        1.909        0.849      145.579       61.994        0.181      336.799        8.342      866.118
10/03/2013  21:25:00       17.531      236.919       -7.379       62.923       93.386       58.888     3959.331     8720.982     3467.745        3.632        0.807      237.567       55.998        0.056      336.841        8.409      866.116
10/03/2013  21:26:00        8.850      145.204       -1.027       54.855      101.370       55.460     3009.040    10275.819     3075.782        1.876        0.818      145.473       56.632        0.152      336.775        8.303      866.114
10/03/2013  21:27:00       39.812      194.080       -8.059       98.646      125.182       58.650     9730.935    15670.625     3439.873        3.407        1.442      198.121       66.537        0.113      336.863        8.447      866.126
10/03/2013  21:28:00       58.903      130.827        9.061       62.557       95.799       61.391     3913.340     9177.480     3768.895        1.876        0.843      143.476       53.197        0.137      336.826        8.387      866.139
10/03/2013  21:29:00       35.181       93.916        5.195       48.632       55.286       45.017     2365.041     3056.592     2026.563        0.877        0.372      100.289       36.109        0.130      336.775        8.303      866.147
10/03/2013  21:30:00       60.330      146.120      -11.882       62.220       65.315       45.302     3871.382     4266.024     2052.297        1.766        0.509      158.084       32.760        0.043      336.793        8.332      866.170
10/03/2013  21:31:00       69.685      137.881       -3.651       75.332       82.572       52.539     5674.885     6818.068     2760.361        1.956        0.763      154.490       51.861        0.113      336.845        8.418      866.181
10/03/2013  21:32:00      118.038      106.254        9.427       86.236       53.190       42.756     7436.607     2829.222     1828.063        1.870        0.605      158.817       33.422        0.044      336.806        8.354      866.193
10/03/2013  21:33:00       33.018      137.079      -16.857       48.739       83.103       38.797     2375.475     6906.186     1505.220        1.547        0.539      140.999       39.824        0.080      336.781        8.313      866.216
10/03/2013  21:34:00       45.898      168.755       -6.199       62.730       90.080       49.517     3935.111     8114.421     2451.980        2.256        0.725      174.885       47.609        0.074      336.754        8.267      866.217
10/03/2013  21:35:00       66.343      123.628       -2.991       64.933       76.881       50.391     4216.271     5910.614     2539.244        1.618        0.633      140.304       43.629        0.097      336.735        8.236      866.211
10/03/2013  21:36:00       30.926       88.657        0.886       43.780       71.774       45.585     1916.688     5151.509     2077.958        0.898        0.457       93.896       38.859        0.171      336.709        8.194      866.221
10/03/2013  21:37:00       60.888       80.795        0.057       52.178       42.794       34.575     2722.544     1831.294     1195.423        0.799        0.287      101.169       26.049        0.066      336.714        8.202      866.237
10/03/2013  21:38:00       37.428       63.023        3.583       45.787       56.600       38.645     2096.457     3203.508     1493.457        0.609        0.340       73.299       35.274        0.232      336.662        8.114      866.236
10/03/2013  21:39:00       62.354      148.733       -9.925       48.749       96.060       49.121     2376.476     9227.561     2412.920        2.006        0.701      161.274       56.701        0.124      336.726        8.221      866.230
10/03/2013  21:40:00       45.757       89.166        8.156       38.836       69.895       44.262     1508.266     4885.254     1959.139        0.923        0.418      100.221       44.397        0.196      336.651        8.095      866.247
10/03/2013  21:41:00       64.020      119.545       -6.288       51.067       74.883       43.457     2607.836     5607.451     1888.531        1.426        0.505      135.608       41.991        0.096      336.654        8.102      866.243
10/03/2013  21:42:00       35.037      225.770      -26.982       41.747       78.119       36.287     1742.781     6102.527     1316.778        3.104        0.458      228.473       39.220        0.029      336.686        8.151      866.234
10/03/2013  21:43:00       37.208      168.318       -8.879       59.914      104.112       48.663     3589.733    10839.214     2368.074        2.329        0.840      172.382       50.691        0.086      336.656        8.102      866.260
10/03/2013  21:44:00       24.470      117.972       -4.833       50.959       72.188       44.909     2596.843     5211.042     2016.783        1.218        0.491      120.483       40.081        0.111      336.616        8.037      866.293
10/03/2013  21:45:00       35.655      120.520        4.397       48.987      108.732       45.856     2399.773    11822.621     2102.750        1.607        0.816      125.683       61.023        0.236      336.691        8.163      866.308
10/03/2013  21:46:00       31.104       99.047        3.409       48.842       60.421       49.856     2385.590     3650.723     2485.666        0.965        0.426      103.816       37.860        0.133      336.681        8.146      866.327
10/03/2013  21:47:00       65.911       66.315       24.303       66.162       54.428       45.553     4377.357     2962.416     2075.060        0.937        0.471       93.499       27.890        0.089      336.640        8.077      866.347
10/03/2013  21:48:00       51.245       83.823       -0.918       51.710       66.866       33.544     2673.944     4471.124     1125.230        0.896        0.414       98.246       32.285        0.108      336.587        7.990      866.358
10/03/2013  21:49:00       91.777       72.818       14.394       66.126       43.498       43.002     4372.704     1892.034     1849.143        1.102        0.406      117.156       28.142        0.058      336.611        8.030      866.365
10/03/2013  21:50:00       32.109       92.173       -1.510       40.137       55.826       32.545     1611.016     3116.526     1059.154        0.766        0.289       97.606       30.878        0.100      336.561        7.947      866.382
10/03/2013  21:51:00       72.768       73.882        8.527       42.047       36.137       32.386     1767.925     1305.868     1048.831        0.747        0.206      103.700       28.225        0.074      336.579        7.976      866.391
10/03/2013  21:52:00       86.490       72.794       11.523       39.197       27.386       21.704     1536.397      750.004      471.047        0.783        0.138      113.047       14.031        0.015      336.544        7.918      866.387
10/03/2013  21:53:00       87.894      113.058       -2.400       69.197       61.796       41.674     4788.175     3818.783     1736.737        1.543        0.517      143.204       32.928        0.053      336.551        7.928      866.392
10/03/2013  21:54:00       71.734      140.177      -15.105       65.971       92.292       44.461     4352.142     8517.791     1976.801        1.993        0.742      157.466       41.718        0.070      336.543        7.916      866.395
10/03/2013  21:55:00       57.429      108.147        4.489       57.745       68.730       54.732     3334.526     4723.749     2995.558        1.303        0.553      122.450       44.144        0.130      336.517        7.874      866.395
10/03/2013  21:56:00       61.572      141.723      -14.241       45.584       62.342       40.804     2077.898     3886.559     1664.972        1.585        0.381      154.520       37.016        0.057      336.479        7.806      866.398
10/03/2013  21:57:00       70.598       58.740       18.917       62.226       30.669       27.082     3872.023      940.563      733.426        0.717        0.277       91.840       21.272        0.054      336.487        7.821      866.410
10/03/2013  21:58:00       83.532      120.057      -11.274       36.654       48.928       35.614     1343.527     2393.934     1268.359        1.326        0.250      146.258       29.586        0.041      336.483        7.814      866.415
10/03/2013  21:59:00       87.735       70.338       15.214       49.630       49.016       31.953     2463.165     2402.567     1021.022        0.938        0.294      112.450       31.146        0.077      336.499        7.843      866.428
10/03/2013  22:00:00       92.699       60.845       13.460       55.524       41.867       34.795     3082.937     1752.829     1210.719        0.926        0.302      110.884       28.530        0.066      336.454        7.766      866.453
10/03/2013  22:01:00       80.064       39.843       17.701       37.450       32.593       22.312     1402.535     1062.334      497.819        0.564        0.148       89.430       19.265        0.046      336.374        7.634      866.467
10/03/2013  22:02:00       59.716       41.576       28.426       41.330       29.970       27.840     1708.186      898.182      775.061        0.474        0.169       72.764       18.429        0.064      336.463        7.783      866.472
10/03/2013  22:03:00       70.494       53.305        1.820       42.794       35.195       27.512     1831.326     1238.720      756.932        0.582        0.191       88.379       24.688        0.078      336.479        7.808      866.481
10/03/2013  22:04:00       78.373       40.781       14.988       24.764       30.049       18.910      613.268      902.928      357.600        0.495        0.094       88.349        7.267        0.007      336.488        7.824      866.501
10/03/2013  22:05:00       36.927        4.646       -1.350       25.279       44.755       13.699      639.051     2003.014      187.666        0.211        0.141       37.218       17.617        0.224      336.453        7.765      866.517
10/03/2013  22:06:00       -1.149      -26.574        3.932       11.024       15.561       18.531      121.531      242.135      343.391        0.071        0.035       26.599        8.997        0.114      336.460        7.775      866.525
10/03/2013  22:07:00       11.166      -37.053       -3.599       15.123       11.882       14.920      228.712      141.175      222.603        0.105        0.030       38.699        7.510        0.038      336.552        7.932      866.540
10/03/2013  22:08:00        2.100      -71.376        3.715       12.610       20.114       19.023      159.015      404.582      361.862        0.302        0.046       71.406       12.596        0.031      336.576        7.972      866.548
10/03/2013  22:09:00        8.591      -12.259       20.850       17.278       21.576       16.765      298.545      465.510      281.060        0.085        0.052       14.970       16.195        1.170      336.446        7.752      866.552
10/03/2013  22:10:00       39.107        5.089        9.208       15.962       15.946       12.990      254.782      254.284      168.743        0.116        0.034       39.437       11.343        0.083      336.517        7.872      866.561
10/03/2013  22:11:00       21.790       -5.364        0.241       11.283       12.228        7.073      127.303      149.534       50.025        0.042        0.016       22.441        4.553        0.041      336.550        7.928      866.574
10/03/2013  22:12:00       14.487        9.823        7.926       22.272       21.380       14.661      496.032      457.084      214.945        0.077        0.058       17.503       11.553        0.436      336.508        7.857      866.577
10/03/2013  22:13:00        0.505       37.490       -6.121       16.357       16.410        8.400      267.557      269.289       70.554        0.103        0.030       37.493        6.777        0.033      336.590        7.993      866.576
10/03/2013  22:14:00        0.314       17.374       -0.636        8.009        7.736        5.886       64.140       59.853       34.642        0.023        0.008       17.377        3.486        0.040      336.552        7.932      866.585
10/03/2013  22:15:00      -10.755       24.566       -3.985       14.404       12.310        8.291      207.486      151.546       68.741        0.058        0.021       26.817        7.596        0.080      336.580        7.978      866.592
10/03/2013  22:16:00      -44.784        1.450       -4.301       10.541       12.980        7.698      111.112      168.472       59.253        0.118        0.017       44.808        6.489        0.021      336.580        7.978      866.602
10/03/2013  22:17:00      -38.300       -6.076       -3.996       15.612       13.516        6.658      243.724      182.672       44.325        0.100        0.024       38.779        4.946        0.016      336.546        7.920      866.615
10/03/2013  22:18:00      -22.871       -5.539        4.348       15.529        8.496        9.639      241.150       72.190       92.908        0.049        0.020       23.532        4.142        0.031      336.491        7.829      866.616
10/03/2013  22:19:00      -56.601       -3.047       -7.887        8.848        8.913        8.507       78.286       79.443       72.364        0.175        0.012       56.683        5.609        0.010      336.555        7.936      866.620
10/03/2013  22:20:00      -59.035       -6.710       -6.685       12.385       12.410        8.100      153.390      154.006       65.618        0.197        0.019       59.415        3.856        0.004      336.558        7.941      866.633
10/03/2013  22:21:00      -25.401      -17.072        2.560       20.102       12.716        8.857      404.107      161.704       78.452        0.079        0.032       30.605        6.169        0.041      336.532        7.898      866.656
10/03/2013  22:22:00       -4.416       -1.761       -0.709        5.984        7.251        5.890       35.802       52.574       34.690        0.007        0.006        4.755        4.280        0.810      336.443        7.749      866.670
10/03/2013  22:23:00      -19.921       -6.410       -0.034        8.423       13.358        6.613       70.944      178.443       43.736        0.037        0.015       20.927        4.841        0.054      336.562        7.949      866.675
10/03/2013  22:24:00      -20.103      -37.510       -6.114       16.389       12.115        9.170      268.590      146.783       84.083        0.117        0.025       42.558        5.612        0.017      336.661        8.113      866.692
10/03/2013  22:25:00      -74.763      -32.335       -8.862       20.723       15.350        9.126      429.438      235.621       83.288        0.373        0.037       81.456        6.648        0.007      336.606        8.021      866.695
10/03/2013  22:26:00      -39.617       -4.985      -12.219       38.329       18.110        7.561     1469.100      327.984       57.163        0.180        0.093       39.930       13.160        0.109      336.550        7.929      866.710
10/03/2013  22:27:00       24.982       35.689        3.947       24.899       49.069       20.015      619.940     2407.812      400.615        0.267        0.171       43.564       18.586        0.182      336.805        8.356      866.728
10/03/2013  22:28:00        0.552       -9.535       -9.681       26.751       25.380       11.494      715.629      644.128      132.101        0.084        0.075        9.551       13.256        1.926      336.588        7.993      866.742
10/03/2013  22:29:00       -2.501      -10.053       -1.496       14.690       17.903       17.156      215.782      320.503      294.342        0.047        0.042       10.359       14.288        1.902      336.684        8.152      866.753
10/03/2013  22:30:00        9.186       19.086       10.360       25.360       23.510       10.130      643.133      552.716      102.622        0.093        0.065       21.181        2.706        0.016      336.731        8.231      866.767
10/03/2013  22:31:00       62.824       43.355        3.650       17.271       16.678       14.740      298.297      278.162      217.254        0.332        0.040       76.331        8.765        0.013      336.820        8.380      866.778
10/03/2013  22:32:00       -1.436       23.979       -1.706       39.972       24.741       16.501     1597.723      612.125      272.282        0.153        0.124       24.022       16.471        0.470      336.648        8.092      866.793
10/03/2013  22:33:00      -48.716      -13.758       -9.804       16.230       13.654       10.348      263.420      186.430      107.089        0.161        0.028       50.621        7.070        0.020      336.717        8.205      866.799
10/03/2013  22:34:00      -47.145        3.971       -6.229       28.779       32.105        9.934      828.218     1030.749       98.685        0.212        0.098       47.312       14.907        0.099      336.709        8.194      866.807
10/03/2013  22:35:00        7.647       48.712      -10.847       15.463       16.167        9.836      239.116      261.379       96.754        0.157        0.030       49.309        9.119        0.034      336.772        8.300      866.817
10/03/2013  22:36:00      -19.475       26.863       -9.040       26.660       14.548        8.956      710.769      211.654       80.202        0.109        0.050       33.179       11.933        0.129      336.711        8.198      866.835
10/03/2013  22:37:00      -80.105        6.463      -10.558       39.421       23.564       14.768     1553.989      555.250      218.087        0.445        0.116       80.365        9.404        0.014      336.570        7.960      866.837
10/03/2013  22:38:00      -69.966       14.035       -9.912       24.396       25.505       15.082      595.158      650.480      227.478        0.333        0.074       71.360        9.919        0.019      336.406        7.685      866.847
10/03/2013  22:39:00      -99.137       10.073      -21.028       32.129       32.391       18.683     1032.275     1049.172      349.067        0.640        0.122       99.648       19.412        0.038      336.463        7.781      866.865
10/03/2013  22:40:00      -79.355       11.912      -10.818       18.262       35.689       13.954      333.502     1273.675      194.702        0.418        0.090       80.244        7.936        0.010      336.387        7.655      866.877
10/03/2013  22:41:00      -80.931      -18.019       -9.666       19.226       27.745       13.208      369.646      769.777      174.463        0.414        0.066       82.912       11.555        0.019      336.317        7.537      866.886
10/03/2013  22:42:00      -53.362        3.796       -9.033       24.498       27.821       16.687      600.162      774.036      278.458        0.230        0.083       53.497       10.903        0.042      336.332        7.561      866.891
10/03/2013  22:43:00      -80.620      -39.814       -9.243       19.194       17.374       11.088      368.408      301.857      122.946        0.448        0.040       89.916        5.196        0.003      336.387        7.654      866.897
10/03/2013  22:44:00      -72.197      -39.151        1.159       29.229       14.240       16.119      854.321      202.791      259.833        0.403        0.066       82.130       12.199        0.022      336.304        7.515      866.906
10/03/2013  22:45:00      -24.562      -26.971        3.628       23.697       13.773       16.271      561.568      189.683      264.736        0.118        0.051       36.479       12.138        0.111      336.272        7.463      866.916
10/03/2013  22:46:00      -27.366       -2.947       -0.261       13.952        8.671        8.449      194.667       75.192       71.378        0.055        0.017       27.524        7.648        0.077      336.341        7.578      866.938
10/03/2013  22:47:00      -29.176      -19.133       -6.600        6.660        9.013        7.537       44.356       81.241       56.804        0.072        0.009       34.890        3.172        0.008      336.406        7.685      866.952
10/03/2013  22:48:00      -84.610      -42.729       -8.962       17.818       11.436       10.266      317.468      130.781      105.381        0.481        0.028       94.787        4.157        0.002      336.420        7.711      866.945
10/03/2013  22:49:00      -14.052        5.863        6.381       20.947       11.193       14.754      438.775      125.287      217.694        0.053        0.039       15.226       10.294        0.457      336.235        7.401      866.958
10/03/2013  22:50:00        0.813      -17.798       -3.586        3.288       12.125        7.202       10.813      147.011       51.868        0.027        0.010       17.816        7.279        0.167      336.256        7.434      866.982
10/03/2013  22:51:00      -19.120      -21.121      -13.680       11.757        8.383        4.787      138.225       70.269       22.920        0.062        0.012       28.490        3.483        0.015      336.556        7.937      866.982
10/03/2013  22:52:00      -36.863       14.809        3.668        8.877       15.891       11.105       78.797      252.539      123.314        0.102        0.023       39.726        7.750        0.038      336.507        7.855      866.968
10/03/2013  22:53:00      -59.276       19.724       -7.272       22.040       11.829        8.896      485.783      139.930       79.140        0.233        0.035       62.471        3.093        0.002      336.434        7.731      866.965
10/03/2013  22:54:00      -72.772       28.295       -9.319       23.753       19.996       13.429      564.184      399.852      180.339        0.366        0.057       78.079        7.703        0.010      336.307        7.521      866.945
10/03/2013  22:55:00      -56.129       25.874      -11.987       17.105       29.815        9.535      292.577      888.911       90.925        0.262        0.064       61.806        7.489        0.015      336.322        7.545      866.934
10/03/2013  22:56:00      -30.753       60.146      -10.643       24.010       30.435       12.280      576.482      926.301      150.801        0.316        0.083       67.552       10.789        0.026      336.566        7.954      866.919
10/03/2013  22:57:00      -24.790        5.439       -3.274       11.330       13.464        9.654      128.373      181.267       93.199        0.053        0.020       25.379        3.785        0.022      336.496        7.839      866.916
10/03/2013  22:58:00       -3.657       53.944       -6.691       21.641       31.096       13.006      468.331      966.988      169.158        0.229        0.080       54.068       13.266        0.060      336.465        7.785      866.908
10/03/2013  22:59:00      -17.527      116.296      -14.377       24.874       31.403       17.872      618.741      986.163      319.420        0.798        0.096      117.609       12.247        0.011      336.469        7.791      866.923
10/03/2013  23:00:00       -6.773      133.041      -17.550       21.309       22.717       14.867      454.063      516.080      221.025        0.962        0.060      133.214        7.184        0.003      336.370        7.626      866.935
10/03/2013  23:01:00       -4.845      135.017      -19.001       20.555       18.560       12.878      422.488      344.481      165.837        0.977        0.047      135.104       10.533        0.006      336.408        7.690      866.951
10/03/2013  23:02:00      -14.872      128.527      -25.472       14.935       19.080        8.686      223.066      364.059       75.452        0.903        0.033      129.385        8.389        0.004      336.341        7.577      866.966
10/03/2013  23:03:00       -2.730       76.452      -15.973       22.947       24.602       10.743      526.547      605.262      115.402        0.368        0.062       76.500        7.938        0.011      336.491        7.829      866.977
10/03/2013  23:04:00      -43.391       60.598       -3.277       37.394       25.555       16.828     1398.322      653.079      283.191        0.395        0.117       74.531        7.908        0.011      336.331        7.560      866.978
10/03/2013  23:05:00      -61.876       50.713      -15.579       18.509       26.733       12.172      342.573      714.668      148.153        0.392        0.060       80.003        9.889        0.015      336.397        7.672      866.975
10/03/2013  23:06:00      -46.971      -15.442      -10.137       16.090       12.398       12.177      258.893      153.715      148.280        0.155        0.028       49.444       10.272        0.043      336.325        7.552      866.971
10/03/2013  23:07:00      -60.413       -1.331      -19.380       18.210       19.082       12.204      331.618      364.129      148.949        0.244        0.042       60.428        5.316        0.008      336.399        7.676      866.967
10/03/2013  23:08:00      -51.541      -33.527       -1.317       45.132       24.500       16.000     2036.891      600.236      255.987        0.334        0.145       61.487       20.135        0.107      336.056        7.102      866.987
10/03/2013  23:09:00      -25.106      -24.473       -3.240       33.661       15.845       15.078     1133.068      251.050      227.345        0.143        0.081       35.060       15.915        0.206      335.992        6.995      867.006
10/03/2013  23:10:00     -102.980      -28.804      -13.289       21.319       12.893       12.168      454.517      166.217      148.065        0.619        0.038      106.932        8.788        0.007      335.949        6.924      867.011
10/03/2013  23:11:00     -113.337      -45.282       -6.837       15.801       19.417        9.588      249.675      377.026       91.921        0.783        0.036      122.048        3.220        0.001      335.925        6.883      867.016
10/03/2013  23:12:00      -88.717      -50.647      -10.253       28.174       16.788       11.919      793.779      281.827      142.053        0.588        0.061      102.156        6.517        0.004      335.992        6.995      867.025
10/03/2013  23:13:00     -115.487      -34.430      -11.857       18.920       18.768       11.732      357.951      352.221      137.633        0.776        0.042      120.510        8.581        0.005      335.870        6.790      867.025
10/03/2013  23:14:00     -111.352      -16.935      -14.823       17.214       17.857       12.955      296.336      318.871      167.836        0.684        0.039      112.632        7.736        0.005      335.874        6.800      867.024
10/03/2013  23:15:00      -82.316      -16.112      -13.118       27.862       24.841       18.445      776.278      617.071      340.200        0.447        0.087       83.878       16.298        0.038      335.779        6.640      867.017
10/03/2013  23:16:00      -86.636        2.183      -13.821       27.240       22.276       14.275      742.010      496.217      203.786        0.457        0.072       86.663       10.735        0.015      336.012        7.027      867.011
10/03/2013  23:17:00      -65.827       37.776      -12.869       31.473       34.070       19.167      990.567     1160.749      367.375        0.422        0.126       75.896       15.107        0.040      336.073        7.129      867.008
10/03/2013  23:18:00      -28.651       39.591      -12.549       29.736       36.216       12.933      884.245     1311.567      167.260        0.245        0.118       48.870        9.564        0.038      335.976        6.969      866.991
10/03/2013  23:19:00      -68.637       12.859      -10.413       26.455       45.865       13.150      699.888     2103.616      172.926        0.398        0.149       69.831        9.088        0.017      336.109        7.189      866.966
10/03/2013  23:20:00      -71.998       -2.607       -9.182       33.407       26.934       18.990     1116.032      725.466      360.629        0.374        0.110       72.045       19.228        0.071      335.886        6.819      866.951
10/03/2013  23:21:00      -85.190       19.402      -11.946       25.101       40.722       17.766      630.060     1658.247      315.642        0.519        0.130       87.372       19.155        0.048      335.916        6.868      866.962
10/03/2013  23:22:00     -101.802       -5.678      -11.263       33.198       25.505       12.995     1102.103      650.522      168.862        0.622        0.096      101.960       13.419        0.017      335.801        6.678      866.981
10/03/2013  23:23:00     -121.649       36.546      -13.068       42.719       30.179       25.721     1824.936      910.774      661.567        0.985        0.170      127.020       24.022        0.036      335.834        6.732      866.995
10/03/2013  23:24:00     -118.655      -18.458      -13.470       28.439       34.601       20.396      808.753     1197.224      416.017        0.851        0.121      120.082       19.785        0.027      335.793        6.663      866.997
10/03/2013  23:25:00      -69.999       20.401      -15.201       34.810       42.823       17.725     1211.724     1833.841      314.185        0.445        0.168       72.911       17.843        0.060      335.746        6.585      867.004
10/03/2013  23:26:00      -46.545       56.084       -2.773       40.186       45.648       25.878     1614.880     2083.765      669.668        0.484        0.218       72.883       19.828        0.074      336.002        7.011      867.005
10/03/2013  23:27:00      -38.367        2.028       -8.478       23.453       27.264       13.108      550.058      743.340      171.813        0.151        0.073       38.421       13.729        0.128      335.836        6.736      867.005
10/03/2013  23:28:00      -52.233       77.011      -16.929       29.686       42.295       16.908      881.282     1788.853      285.894        0.595        0.148       93.054       14.598        0.025      336.013        7.030      867.010
10/03/2013  23:29:00      -10.023      110.734      -11.720       20.124       28.484       15.522      404.987      811.357      240.923        0.698        0.073      111.187       14.236        0.016      336.122        7.213      867.008
10/03/2013  23:30:00      -24.535       85.436      -12.587       22.463       35.018       15.292      504.567     1226.235      233.831        0.501        0.098       88.889       13.205        0.022      336.111        7.193      867.016
10/03/2013  23:31:00      -39.138      114.311      -16.391       36.142       47.973       21.255     1306.277     2301.372      451.760        0.946        0.203      120.825       21.221        0.031      336.099        7.172      867.035
10/03/2013  23:32:00       -7.031      189.285      -25.240       47.199       42.310       22.687     2227.699     1790.121      514.708        2.052        0.227      189.416       18.954        0.010      336.073        7.129      867.045
10/03/2013  23:33:00        4.688      221.046      -22.036       63.710       70.361       39.303     4058.955     4950.706     1544.705        2.996        0.528      221.096       33.230        0.023      336.060        7.104      867.061
10/03/2013  23:34:00       89.974       76.047       18.730       67.834       50.377       44.438     4601.431     2537.858     1974.711        1.167        0.456      117.807       30.931        0.069      335.957        6.936      867.077
10/03/2013  23:35:00      105.262       82.176        9.985       89.059       58.635       45.403     7931.476     3438.039     2061.441        1.568        0.672      133.540       29.899        0.050      336.019        7.039      867.092
10/03/2013  23:36:00      136.988      104.657       20.233       69.621       46.569       43.257     4847.149     2168.705     1871.173        1.951        0.444      172.392       25.086        0.021      336.133        7.229      867.095
10/03/2013  23:37:00      110.615       64.419       23.280       49.110       38.106       31.926     2411.782     1452.032     1019.269        1.090        0.244      128.006       22.985        0.032      335.950        6.923      867.100
10/03/2013  23:38:00      118.208       83.590       10.086       63.437       49.188       36.591     4024.250     2419.488     1338.890        1.442        0.389      144.777       25.207        0.030      335.982        6.977      867.125
10/03/2013  23:39:00      142.219      103.853        5.833       55.698       46.025       50.916     3102.300     2118.330     2592.433        1.943        0.391      176.101       33.642        0.036      336.105        7.181      867.130
10/03/2013  23:40:00      107.143       68.421       25.928       59.306       41.857       38.244     3517.171     1751.973     1462.620        1.178        0.337      127.126       27.602        0.047      336.002        7.011      867.132
10/03/2013  23:41:00       71.419       77.479        8.643       64.935       60.053       45.593     4216.585     3606.321     2078.707        1.054        0.495      105.374       35.575        0.114      336.071        7.127      867.138
10/03/2013  23:42:00      119.027       93.093       12.156       56.301       61.750       49.240     3169.762     3813.077     2424.539        1.619        0.470      151.108       44.654        0.087      336.060        7.108      867.135
10/03/2013  23:43:00       95.012      106.985       -0.121       55.736       65.058       46.354     3106.468     4232.503     2148.649        1.498        0.474      143.084       41.022        0.082      336.166        7.283      867.137
10/03/2013  23:44:00       72.028       62.712       17.892       71.672       42.047       35.773     5136.851     1767.924     1279.712        0.881        0.409       95.503       27.835        0.085      336.123        7.212      867.141
10/03/2013  23:45:00       82.581       70.320       15.723       67.266       45.887       33.088     4524.686     2105.594     1094.787        0.987        0.386      108.464       25.783        0.057      336.126        7.218      867.141
10/03/2013  23:46:00       54.238       71.030       -2.931       54.608       41.027       30.754     2982.068     1683.225      945.781        0.680        0.281       89.370       26.089        0.085      336.029        7.057      867.160
10/03/2013  23:47:00       38.616       61.304       -0.722       41.729       52.306       40.591     1741.287     2735.970     1647.619        0.569        0.306       72.452       35.047        0.234      336.012        7.027      867.163
10/03/2013  23:48:00       44.560      120.361       -7.786       38.058       69.663       34.348     1448.379     4852.876     1179.767        1.201        0.374      128.345       34.748        0.073      336.029        7.056      867.183
10/03/2013  23:49:00       35.028       83.936       -1.429       44.053       50.333       37.334     1940.623     2533.409     1393.835        0.707        0.293       90.952       31.680        0.121      335.982        6.977      867.200
10/03/2013  23:50:00       37.563       80.472       -6.155       35.181       54.888       31.541     1237.677     3012.714      994.817        0.658        0.262       88.807       27.144        0.093      336.012        7.027      867.204
10/03/2013  23:51:00       77.457       64.910        7.650       42.268       28.486       36.351     1786.564      811.455     1321.374        0.709        0.196      101.059       22.507        0.050      335.991        6.994      867.217
10/03/2013  23:52:00       77.971       68.672        5.300       35.809       29.878       25.499     1282.302      892.705      650.221        0.682        0.141      103.900       21.135        0.041      335.984        6.980      867.231
10/03/2013  23:53:00       95.741       59.619       20.903       28.297       18.979       18.976      800.748      360.201      360.107        0.734        0.076      112.786       11.733        0.011      335.932        6.894      867.240
10/03/2013  23:54:00       50.393       29.528       15.915       24.645       23.096       27.799      607.363      533.441      772.802        0.279        0.096       58.407       12.999        0.050      335.911        6.860      867.247
10/03/2013  23:55:00       66.775       38.124       17.966       26.954       17.210       18.787      726.500      296.172      352.964        0.381        0.069       76.892       14.453        0.035      335.896        6.835      867.259
10/03/2013  23:56:00       43.931       32.050       22.520       36.188       25.293       24.658     1309.576      639.757      607.995        0.301        0.128       54.379       25.109        0.213      335.879        6.806      867.261
10/03/2013  23:57:00       17.962        8.157       29.845       28.522       27.285       21.339      813.525      744.481      455.363        0.165        0.101       19.727       18.168        0.848      335.772        6.627      867.273
10/03/2013  23:58:00       39.237      -67.807       -7.543       17.565       23.587       14.730      308.540      556.360      216.980        0.364        0.054       78.341       11.197        0.020      335.867        6.787      867.300
10/03/2013  23:59:00       22.753      -25.172        3.762       19.562       28.712       14.124      382.691      824.403      199.499        0.129        0.070       33.931       13.934        0.169      335.804        6.681      867.319
